<?xml version='1.0' encoding='UTF-8'?><gpx version="1.1" creator="JPX - https://github.com/jenetics/jpx" xmlns="http://www.topografix.com/GPX/1/1"><trk><trkseg><trkpt lat="44.93484955446691" lon="4.370739029969607"><ele>538.0</ele><time>2026-04-03T13:13:35Z</time></trkpt><trkpt lat="44.934877089851504" lon="4.370887328760417"><ele>538.0</ele><time>2026-04-03T13:13:37Z</time></trkpt><trkpt lat="44.934896359136786" lon="4.370980538699959"><ele>538.0</ele><time>2026-04-03T13:13:38Z</time></trkpt><trkpt lat="44.93492122538427" lon="4.371075100976451"><ele>538.0</ele><time>2026-04-03T13:13:39Z</time></trkpt><trkpt lat="44.93494389487515" lon="4.371171307511567"><ele>538.0</ele><time>2026-04-03T13:13:40Z</time></trkpt><trkpt lat="44.9349621489361" lon="4.371265149518762"><ele>538.0</ele><time>2026-04-03T13:13:41Z</time></trkpt><trkpt lat="44.93497930784367" lon="4.371356321098017"><ele>538.3333333333334</ele><time>2026-04-03T13:13:42Z</time></trkpt><trkpt lat="44.93501858817577" lon="4.371474426372589"><ele>538.6666666666667</ele><time>2026-04-03T13:13:44Z</time></trkpt><trkpt lat="44.93511908591207" lon="4.371451800958159"><ele>539.0</ele><time>2026-04-03T13:13:46Z</time></trkpt><trkpt lat="44.93518065369018" lon="4.3714117676568485"><ele>539.3333333333334</ele><time>2026-04-03T13:13:47Z</time></trkpt><trkpt lat="44.93524451985344" lon="4.371373437320444"><ele>539.6666666666666</ele><time>2026-04-03T13:13:48Z</time></trkpt><trkpt lat="44.935313906799394" lon="4.3713325609810365"><ele>540.0</ele><time>2026-04-03T13:13:49Z</time></trkpt><trkpt lat="44.93538352354111" lon="4.371293055252371"><ele>537.8333333333334</ele><time>2026-04-03T13:13:50Z</time></trkpt><trkpt lat="44.93545559809525" lon="4.371253837717811"><ele>535.6666666666666</ele><time>2026-04-03T13:13:51Z</time></trkpt><trkpt lat="44.935528500285805" lon="4.371211670529198"><ele>533.5</ele><time>2026-04-03T13:13:52Z</time></trkpt><trkpt lat="44.93560186360606" lon="4.371170381694576"><ele>531.3333333333333</ele><time>2026-04-03T13:13:53Z</time></trkpt><trkpt lat="44.935667757405774" lon="4.371137179154653"><ele>529.1666666666666</ele><time>2026-04-03T13:13:54Z</time></trkpt><trkpt lat="44.935766268522876" lon="4.3710524750401305"><ele>527.0</ele><time>2026-04-03T13:13:56Z</time></trkpt><trkpt lat="44.93586619267212" lon="4.371038970517261"><ele>526.6666666666666</ele><time>2026-04-03T13:13:58Z</time></trkpt><trkpt lat="44.935917871927565" lon="4.371116520332178"><ele>526.3333333333333</ele><time>2026-04-03T13:13:59Z</time></trkpt><trkpt lat="44.9359561317023" lon="4.371226248989718"><ele>526.0</ele><time>2026-04-03T13:14:00Z</time></trkpt><trkpt lat="44.935998376328875" lon="4.371335354090152"><ele>525.6666666666666</ele><time>2026-04-03T13:14:01Z</time></trkpt><trkpt lat="44.936050728450375" lon="4.371437517277526"><ele>525.3333333333334</ele><time>2026-04-03T13:14:02Z</time></trkpt><trkpt lat="44.936102263933" lon="4.371537766569656"><ele>525.0</ele><time>2026-04-03T13:14:03Z</time></trkpt><trkpt lat="44.936150620164824" lon="4.371641060821729"><ele>524.6</ele><time>2026-04-03T13:14:04Z</time></trkpt><trkpt lat="44.936197295473974" lon="4.371744037676219"><ele>524.2</ele><time>2026-04-03T13:14:05Z</time></trkpt><trkpt lat="44.93624352460128" lon="4.371849760218659"><ele>523.8</ele><time>2026-04-03T13:14:06Z</time></trkpt><trkpt lat="44.936266405673535" lon="4.371995652406163"><ele>523.4</ele><time>2026-04-03T13:14:06.999Z</time></trkpt><trkpt lat="44.93630519597353" lon="4.372143611276308"><ele>523.0</ele><time>2026-04-03T13:14:07.999Z</time></trkpt><trkpt lat="44.93635934225091" lon="4.37221797777281"><ele>523.0</ele><time>2026-04-03T13:14:08.999Z</time></trkpt><trkpt lat="44.93641027405252" lon="4.372333921947228"><ele>523.0</ele><time>2026-04-03T13:14:09.999Z</time></trkpt><trkpt lat="44.936460390661736" lon="4.372442808846278"><ele>523.0</ele><time>2026-04-03T13:14:10.999Z</time></trkpt><trkpt lat="44.93649446822213" lon="4.372562868242151"><ele>523.0</ele><time>2026-04-03T13:14:11.999Z</time></trkpt><trkpt lat="44.93650672727412" lon="4.3726757438211505"><ele>523.0</ele><time>2026-04-03T13:14:12.999Z</time></trkpt><trkpt lat="44.936482144644394" lon="4.372787723619543"><ele>523.0</ele><time>2026-04-03T13:14:13.999Z</time></trkpt><trkpt lat="44.93642820669002" lon="4.372903265443938"><ele>524.0</ele><time>2026-04-03T13:14:14.999Z</time></trkpt><trkpt lat="44.93637299083951" lon="4.37302379373181"><ele>525.0</ele><time>2026-04-03T13:14:15.999Z</time></trkpt><trkpt lat="44.936328214295315" lon="4.3731293451810735"><ele>526.0</ele><time>2026-04-03T13:14:16.999Z</time></trkpt><trkpt lat="44.936301132333924" lon="4.373218512370862"><ele>527.0</ele><time>2026-04-03T13:14:17.999Z</time></trkpt><trkpt lat="44.93629501255197" lon="4.37331628673782"><ele>528.0</ele><time>2026-04-03T13:14:19Z</time></trkpt><trkpt lat="44.93632284209656" lon="4.373413528988208"><ele>529.0</ele><time>2026-04-03T13:14:20Z</time></trkpt><trkpt lat="44.936364646363856" lon="4.373491434126144"><ele>529.0</ele><time>2026-04-03T13:14:21Z</time></trkpt><trkpt lat="44.93648979695234" lon="4.373512290377055"><ele>529.0</ele><time>2026-04-03T13:14:23Z</time></trkpt><trkpt lat="44.93655477264208" lon="4.373415113314977"><ele>529.0</ele><time>2026-04-03T13:14:24Z</time></trkpt><trkpt lat="44.93662980834429" lon="4.373417745288274"><ele>529.0</ele><time>2026-04-03T13:14:25Z</time></trkpt><trkpt lat="44.93669253151688" lon="4.373464845031188"><ele>529.0</ele><time>2026-04-03T13:14:26Z</time></trkpt><trkpt lat="44.93675373119224" lon="4.37353789857218"><ele>529.0</ele><time>2026-04-03T13:14:27Z</time></trkpt><trkpt lat="44.93682149503618" lon="4.373596228303874"><ele>531.6</ele><time>2026-04-03T13:14:28Z</time></trkpt><trkpt lat="44.936873327348984" lon="4.373670499934027"><ele>534.2</ele><time>2026-04-03T13:14:29Z</time></trkpt><trkpt lat="44.936923465819156" lon="4.373745774753033"><ele>536.8000000000001</ele><time>2026-04-03T13:14:30Z</time></trkpt><trkpt lat="44.9370219275451" lon="4.373884790418507"><ele>539.4</ele><time>2026-04-03T13:14:32Z</time></trkpt><trkpt lat="44.937098471145276" lon="4.373923120276006"><ele>542.0</ele><time>2026-04-03T13:14:33Z</time></trkpt><trkpt lat="44.937184122433656" lon="4.3739112348266"><ele>542.0</ele><time>2026-04-03T13:14:34Z</time></trkpt><trkpt lat="44.937267603992176" lon="4.3738794752424415"><ele>542.0</ele><time>2026-04-03T13:14:35Z</time></trkpt><trkpt lat="44.93732053256419" lon="4.373750015905372"><ele>542.0</ele><time>2026-04-03T13:14:36Z</time></trkpt><trkpt lat="44.93737006589346" lon="4.3736515943366"><ele>542.0</ele><time>2026-04-03T13:14:37Z</time></trkpt><trkpt lat="44.93743203486707" lon="4.373577195507654"><ele>542.0</ele><time>2026-04-03T13:14:38Z</time></trkpt><trkpt lat="44.93749390578457" lon="4.373497444156947"><ele>542.0</ele><time>2026-04-03T13:14:39Z</time></trkpt><trkpt lat="44.93753270856494" lon="4.373415857212094"><ele>542.6666666666666</ele><time>2026-04-03T13:14:40Z</time></trkpt><trkpt lat="44.93757945992239" lon="4.373329925817191"><ele>543.3333333333333</ele><time>2026-04-03T13:14:41Z</time></trkpt><trkpt lat="44.93762858770495" lon="4.373239626393139"><ele>544.0</ele><time>2026-04-03T13:14:42Z</time></trkpt><trkpt lat="44.93768369994278" lon="4.373159987234597"><ele>544.6666666666666</ele><time>2026-04-03T13:14:43Z</time></trkpt><trkpt lat="44.937742498034815" lon="4.373074231743193"><ele>545.3333333333334</ele><time>2026-04-03T13:14:44Z</time></trkpt><trkpt lat="44.93779718528896" lon="4.372997275968474"><ele>546.0</ele><time>2026-04-03T13:14:45Z</time></trkpt><trkpt lat="44.93785284740606" lon="4.372924124094"><ele>546.0</ele><time>2026-04-03T13:14:46Z</time></trkpt><trkpt lat="44.93790749266976" lon="4.37286229257238"><ele>546.0</ele><time>2026-04-03T13:14:47Z</time></trkpt><trkpt lat="44.93799785710122" lon="4.372779336972396"><ele>546.0</ele><time>2026-04-03T13:14:49Z</time></trkpt><trkpt lat="44.9380543878347" lon="4.372873289099"><ele>546.0</ele><time>2026-04-03T13:14:53Z</time></trkpt><trkpt lat="44.93804478640397" lon="4.372986561730383"><ele>546.0</ele><time>2026-04-03T13:14:55Z</time></trkpt><trkpt lat="44.9380554944772" lon="4.37308314109461"><ele>546.0</ele><time>2026-04-03T13:14:56Z</time></trkpt><trkpt lat="44.93807051278166" lon="4.373194145525287"><ele>552.6666666666666</ele><time>2026-04-03T13:14:57Z</time></trkpt><trkpt lat="44.937829810099316" lon="4.373343871969343"><ele>559.3333333333333</ele><time>2026-04-03T13:14:58Z</time></trkpt><trkpt lat="44.937829054445416" lon="4.373440040864493"><ele>566.0</ele><time>2026-04-03T13:14:59Z</time></trkpt><trkpt lat="44.937841305413684" lon="4.373606653455211"><ele>566.0</ele><time>2026-04-03T13:15:01Z</time></trkpt><trkpt lat="44.937908041327006" lon="4.373587167965327"><ele>566.0</ele><time>2026-04-03T13:15:04Z</time></trkpt><trkpt lat="44.937928417953295" lon="4.373465088992358"><ele>566.0</ele><time>2026-04-03T13:15:06Z</time></trkpt><trkpt lat="44.938018161973915" lon="4.373351286352198"><ele>566.0</ele><time>2026-04-03T13:15:08Z</time></trkpt><trkpt lat="44.938078024345806" lon="4.373278520274347"><ele>566.0</ele><time>2026-04-03T13:15:09Z</time></trkpt><trkpt lat="44.93814484882349" lon="4.373229792806208"><ele>566.0</ele><time>2026-04-03T13:15:10Z</time></trkpt><trkpt lat="44.938215920173185" lon="4.3731586242528735"><ele>566.0</ele><time>2026-04-03T13:15:11Z</time></trkpt><trkpt lat="44.93827621796866" lon="4.373113665578305"><ele>566.0</ele><time>2026-04-03T13:15:12Z</time></trkpt><trkpt lat="44.938341933084374" lon="4.373057800284137"><ele>566.0</ele><time>2026-04-03T13:15:13Z</time></trkpt><trkpt lat="44.93839668053437" lon="4.373013674053332"><ele>566.0</ele><time>2026-04-03T13:15:14Z</time></trkpt><trkpt lat="44.93850892730735" lon="4.37299027192095"><ele>566.0</ele><time>2026-04-03T13:15:16Z</time></trkpt><trkpt lat="44.93859473172125" lon="4.372955197819078"><ele>566.0</ele><time>2026-04-03T13:15:18Z</time></trkpt><trkpt lat="44.93866416909333" lon="4.372976217569716"><ele>562.6</ele><time>2026-04-03T13:15:20Z</time></trkpt><trkpt lat="44.93876576943456" lon="4.372980494269626"><ele>559.2</ele><time>2026-04-03T13:15:22Z</time></trkpt><trkpt lat="44.938870878890626" lon="4.372889613794502"><ele>555.8</ele><time>2026-04-03T13:15:24Z</time></trkpt><trkpt lat="44.938950052906634" lon="4.372827003971171"><ele>552.4</ele><time>2026-04-03T13:15:26Z</time></trkpt><trkpt lat="44.939012966714316" lon="4.372770536982317"><ele>549.0</ele><time>2026-04-03T13:15:29Z</time></trkpt><trkpt lat="44.939084243038614" lon="4.372809838800767"><ele>549.0</ele><time>2026-04-03T13:15:30Z</time></trkpt><trkpt lat="44.93915372621252" lon="4.372808809316941"><ele>549.0</ele><time>2026-04-03T13:15:31Z</time></trkpt><trkpt lat="44.9392868951075" lon="4.372842971681305"><ele>549.0</ele><time>2026-04-03T13:15:33Z</time></trkpt><trkpt lat="44.939366820893746" lon="4.3728638723694475"><ele>549.0</ele><time>2026-04-03T13:15:34Z</time></trkpt><trkpt lat="44.939438309291496" lon="4.372877027237582"><ele>549.0</ele><time>2026-04-03T13:15:35Z</time></trkpt><trkpt lat="44.93951147922862" lon="4.372850465914181"><ele>549.0</ele><time>2026-04-03T13:15:36Z</time></trkpt><trkpt lat="44.93957495679065" lon="4.3728177521777205"><ele>548.6</ele><time>2026-04-03T13:15:37Z</time></trkpt><trkpt lat="44.93964096820031" lon="4.37281121548118"><ele>548.2</ele><time>2026-04-03T13:15:38Z</time></trkpt><trkpt lat="44.93971561719866" lon="4.372898615194709"><ele>547.8000000000001</ele><time>2026-04-03T13:15:39.999Z</time></trkpt><trkpt lat="44.93979805805947" lon="4.372998996711681"><ele>547.4</ele><time>2026-04-03T13:15:41.999Z</time></trkpt><trkpt lat="44.93990143873196" lon="4.372931949375526"><ele>547.0</ele><time>2026-04-03T13:15:43.999Z</time></trkpt><trkpt lat="44.93996216273836" lon="4.372850393618662"><ele>548.2</ele><time>2026-04-03T13:15:44.999Z</time></trkpt><trkpt lat="44.940064571708106" lon="4.372760378981413"><ele>549.4000000000001</ele><time>2026-04-03T13:15:46.999Z</time></trkpt><trkpt lat="44.940154201864615" lon="4.372824860480688"><ele>550.5999999999999</ele><time>2026-04-03T13:15:48.999Z</time></trkpt><trkpt lat="44.94018576007693" lon="4.372901849771919"><ele>551.8</ele><time>2026-04-03T13:15:49.999Z</time></trkpt><trkpt lat="44.940223959602164" lon="4.372977006463673"><ele>553.0</ele><time>2026-04-03T13:15:50.999Z</time></trkpt><trkpt lat="44.940355045897256" lon="4.373000786486421"><ele>553.0</ele><time>2026-04-03T13:15:52.999Z</time></trkpt><trkpt lat="44.94041451397233" lon="4.372951734226646"><ele>553.0</ele><time>2026-04-03T13:15:53.999Z</time></trkpt><trkpt lat="44.940493483459875" lon="4.372849768977794"><ele>553.0</ele><time>2026-04-03T13:15:55.999Z</time></trkpt><trkpt lat="44.940589567350735" lon="4.37286622977378"><ele>553.0</ele><time>2026-04-03T13:15:57.999Z</time></trkpt><trkpt lat="44.94064988861706" lon="4.3729017914679655"><ele>553.0</ele><time>2026-04-03T13:15:58.999Z</time></trkpt><trkpt lat="44.94075782684598" lon="4.372887051382056"><ele>553.0</ele><time>2026-04-03T13:16:00.999Z</time></trkpt><trkpt lat="44.94082338952968" lon="4.372841654494907"><ele>555.8</ele><time>2026-04-03T13:16:01.999Z</time></trkpt><trkpt lat="44.94089798123124" lon="4.372828852239255"><ele>558.5999999999999</ele><time>2026-04-03T13:16:02.999Z</time></trkpt><trkpt lat="44.94100074562822" lon="4.372815762628061"><ele>561.4000000000001</ele><time>2026-04-03T13:16:04.999Z</time></trkpt><trkpt lat="44.941092050145976" lon="4.372743151394456"><ele>564.2</ele><time>2026-04-03T13:16:06.999Z</time></trkpt><trkpt lat="44.94119459308629" lon="4.372755267466145"><ele>567.0</ele><time>2026-04-03T13:16:08.999Z</time></trkpt><trkpt lat="44.94129657786586" lon="4.37273142516968"><ele>567.0</ele><time>2026-04-03T13:16:10.999Z</time></trkpt><trkpt lat="44.94135086630005" lon="4.372676817272676"><ele>567.0</ele><time>2026-04-03T13:16:11.999Z</time></trkpt><trkpt lat="44.94140761216577" lon="4.372595007137165"><ele>567.0</ele><time>2026-04-03T13:16:12.999Z</time></trkpt><trkpt lat="44.94144876540362" lon="4.372519048660693"><ele>567.0</ele><time>2026-04-03T13:16:13.999Z</time></trkpt><trkpt lat="44.94149754766741" lon="4.372441780593375"><ele>567.0</ele><time>2026-04-03T13:16:15.999Z</time></trkpt><trkpt lat="44.9415520358114" lon="4.37238987896689"><ele>567.0</ele><time>2026-04-03T13:16:16.999Z</time></trkpt><trkpt lat="44.941670942496316" lon="4.372366568263587"><ele>566.8000000000001</ele><time>2026-04-03T13:16:18.999Z</time></trkpt><trkpt lat="44.94177434360881" lon="4.372332624395598"><ele>566.6</ele><time>2026-04-03T13:16:20.999Z</time></trkpt><trkpt lat="44.94183694184723" lon="4.372236367883854"><ele>566.4000000000001</ele><time>2026-04-03T13:16:22.999Z</time></trkpt><trkpt lat="44.94191657568347" lon="4.372149022509136"><ele>566.2</ele><time>2026-04-03T13:16:25Z</time></trkpt><trkpt lat="44.94198938547853" lon="4.3720716944068645"><ele>566.0</ele><time>2026-04-03T13:16:27Z</time></trkpt><trkpt lat="44.94205015140661" lon="4.37200607682286"><ele>566.0</ele><time>2026-04-03T13:16:29Z</time></trkpt><trkpt lat="44.942116485954706" lon="4.371959982985997"><ele>566.0</ele><time>2026-04-03T13:16:32Z</time></trkpt><trkpt lat="44.94218579087798" lon="4.37194667655898"><ele>566.0</ele><time>2026-04-03T13:16:35Z</time></trkpt><trkpt lat="44.942256486407885" lon="4.371839800536828"><ele>566.0</ele><time>2026-04-03T13:16:41Z</time></trkpt><trkpt lat="44.942331688258385" lon="4.371684439777438"><ele>566.0</ele><time>2026-04-03T13:16:43Z</time></trkpt><trkpt lat="44.94237963451169" lon="4.371599954677157"><ele>566.0</ele><time>2026-04-03T13:16:44Z</time></trkpt><trkpt lat="44.94245523881657" lon="4.3714676412977225"><ele>566.0</ele><time>2026-04-03T13:16:46Z</time></trkpt><trkpt lat="44.94250613729319" lon="4.371390298281469"><ele>566.0</ele><time>2026-04-03T13:16:47Z</time></trkpt><trkpt lat="44.94256147621233" lon="4.371317699281609"><ele>566.0</ele><time>2026-04-03T13:16:48Z</time></trkpt><trkpt lat="44.94260870251095" lon="4.371232694164625"><ele>566.0</ele><time>2026-04-03T13:16:49Z</time></trkpt><trkpt lat="44.94265924730812" lon="4.371138610649332"><ele>566.0</ele><time>2026-04-03T13:16:50Z</time></trkpt><trkpt lat="44.94270347959725" lon="4.371030727643959"><ele>565.0</ele><time>2026-04-03T13:16:51Z</time></trkpt><trkpt lat="44.94275186194539" lon="4.370921131861723"><ele>564.0</ele><time>2026-04-03T13:16:52Z</time></trkpt><trkpt lat="44.94279298534511" lon="4.370829005114773"><ele>563.0</ele><time>2026-04-03T13:16:53Z</time></trkpt><trkpt lat="44.94285536041514" lon="4.370685958492179"><ele>562.0</ele><time>2026-04-03T13:16:55Z</time></trkpt><trkpt lat="44.942886194725595" lon="4.370601274123545"><ele>561.0</ele><time>2026-04-03T13:16:56Z</time></trkpt><trkpt lat="44.94291821254187" lon="4.370503836857735"><ele>560.0</ele><time>2026-04-03T13:16:57Z</time></trkpt><trkpt lat="44.942953188831545" lon="4.370404083571206"><ele>560.0</ele><time>2026-04-03T13:16:58Z</time></trkpt><trkpt lat="44.942974457241306" lon="4.3703088737821885"><ele>560.0</ele><time>2026-04-03T13:16:59Z</time></trkpt><trkpt lat="44.94297436283028" lon="4.370199273465671"><ele>560.0</ele><time>2026-04-03T13:17:00Z</time></trkpt><trkpt lat="44.942957373057055" lon="4.37008141894158"><ele>560.0</ele><time>2026-04-03T13:17:01Z</time></trkpt><trkpt lat="44.94294282375116" lon="4.369970888539176"><ele>560.0</ele><time>2026-04-03T13:17:02Z</time></trkpt><trkpt lat="44.9429432257844" lon="4.3698595044888995"><ele>560.0</ele><time>2026-04-03T13:17:03Z</time></trkpt><trkpt lat="44.94293029308159" lon="4.369767186513184"><ele>557.4</ele><time>2026-04-03T13:17:04Z</time></trkpt><trkpt lat="44.942911411400715" lon="4.369677677165833"><ele>554.8</ele><time>2026-04-03T13:17:05Z</time></trkpt><trkpt lat="44.94302318835283" lon="4.369549272654792"><ele>552.2</ele><time>2026-04-03T13:17:06Z</time></trkpt><trkpt lat="44.94306783252417" lon="4.369466352835672"><ele>549.6</ele><time>2026-04-03T13:17:07Z</time></trkpt><trkpt lat="44.943117148449055" lon="4.369372106883229"><ele>547.0</ele><time>2026-04-03T13:17:08Z</time></trkpt><trkpt lat="44.94316893013524" lon="4.369277971174964"><ele>547.0</ele><time>2026-04-03T13:17:09Z</time></trkpt><trkpt lat="44.94325185143697" lon="4.369236539110493"><ele>547.0</ele><time>2026-04-03T13:17:10Z</time></trkpt><trkpt lat="44.943310160727755" lon="4.369163232530363"><ele>547.0</ele><time>2026-04-03T13:17:11Z</time></trkpt><trkpt lat="44.94336757502567" lon="4.36908814979077"><ele>547.0</ele><time>2026-04-03T13:17:12Z</time></trkpt><trkpt lat="44.94341914457032" lon="4.369028783630313"><ele>547.0</ele><time>2026-04-03T13:17:13Z</time></trkpt><trkpt lat="44.94346987849252" lon="4.3689745641933975"><ele>547.0</ele><time>2026-04-03T13:17:14Z</time></trkpt><trkpt lat="44.94352532454283" lon="4.368925399542468"><ele>547.0</ele><time>2026-04-03T13:17:15Z</time></trkpt><trkpt lat="44.943645109524134" lon="4.368866936620782"><ele>547.2857142857142</ele><time>2026-04-03T13:17:17Z</time></trkpt><trkpt lat="44.94371617554096" lon="4.3688550495259095"><ele>547.5714285714286</ele><time>2026-04-03T13:17:18Z</time></trkpt><trkpt lat="44.94378999715971" lon="4.368877412038239"><ele>547.8571428571429</ele><time>2026-04-03T13:17:19Z</time></trkpt><trkpt lat="44.94385394124222" lon="4.36887840664174"><ele>548.1428571428571</ele><time>2026-04-03T13:17:20Z</time></trkpt><trkpt lat="44.943919833126856" lon="4.36888221361306"><ele>548.4285714285714</ele><time>2026-04-03T13:17:21Z</time></trkpt><trkpt lat="44.94399471214738" lon="4.368866908986671"><ele>548.7142857142857</ele><time>2026-04-03T13:17:22Z</time></trkpt><trkpt lat="44.94405520097485" lon="4.368903798264591"><ele>549.0</ele><time>2026-04-03T13:17:23Z</time></trkpt><trkpt lat="44.94412019094525" lon="4.368907673114251"><ele>548.4285714285714</ele><time>2026-04-03T13:17:24Z</time></trkpt><trkpt lat="44.94418419849088" lon="4.3689443408733295"><ele>547.8571428571429</ele><time>2026-04-03T13:17:25Z</time></trkpt><trkpt lat="44.94424867207075" lon="4.368986898629351"><ele>547.2857142857143</ele><time>2026-04-03T13:17:26Z</time></trkpt><trkpt lat="44.94430843468665" lon="4.3690413240486246"><ele>546.7142857142858</ele><time>2026-04-03T13:17:27Z</time></trkpt><trkpt lat="44.9443604170727" lon="4.369116859932078"><ele>546.1428571428572</ele><time>2026-04-03T13:17:28Z</time></trkpt><trkpt lat="44.94442773548825" lon="4.369164078391338"><ele>545.5714285714286</ele><time>2026-04-03T13:17:29Z</time></trkpt><trkpt lat="44.94447788590398" lon="4.369232045782895"><ele>545.0</ele><time>2026-04-03T13:17:30Z</time></trkpt><trkpt lat="44.94452488592631" lon="4.369311620029113"><ele>545.0</ele><time>2026-04-03T13:17:31Z</time></trkpt><trkpt lat="44.944556327844126" lon="4.369419504849032"><ele>545.0</ele><time>2026-04-03T13:17:32Z</time></trkpt><trkpt lat="44.94459881615594" lon="4.369513562026224"><ele>545.0</ele><time>2026-04-03T13:17:33Z</time></trkpt><trkpt lat="44.94463909357138" lon="4.369602724753504"><ele>545.0</ele><time>2026-04-03T13:17:34Z</time></trkpt><trkpt lat="44.94469662546653" lon="4.369695613561874"><ele>545.0</ele><time>2026-04-03T13:17:35Z</time></trkpt><trkpt lat="44.944743069739204" lon="4.3698077767271455"><ele>545.0</ele><time>2026-04-03T13:17:36Z</time></trkpt><trkpt lat="44.944791913055866" lon="4.369915733170531"><ele>545.4</ele><time>2026-04-03T13:17:37Z</time></trkpt><trkpt lat="44.94484182567517" lon="4.370017042801224"><ele>545.8</ele><time>2026-04-03T13:17:38Z</time></trkpt><trkpt lat="44.944882645176406" lon="4.3701281439217095"><ele>546.2</ele><time>2026-04-03T13:17:39Z</time></trkpt><trkpt lat="44.944966950903385" lon="4.370204031923611"><ele>546.6</ele><time>2026-04-03T13:17:40Z</time></trkpt><trkpt lat="44.94504554572293" lon="4.370294903921482"><ele>547.0</ele><time>2026-04-03T13:17:41Z</time></trkpt><trkpt lat="44.945130138514095" lon="4.370369400161211"><ele>547.0</ele><time>2026-04-03T13:17:42Z</time></trkpt><trkpt lat="44.94520545866076" lon="4.370458449387201"><ele>547.0</ele><time>2026-04-03T13:17:43Z</time></trkpt><trkpt lat="44.94529923212174" lon="4.370509593583263"><ele>547.0</ele><time>2026-04-03T13:17:43.999Z</time></trkpt><trkpt lat="44.94538049540378" lon="4.370592344238144"><ele>547.0</ele><time>2026-04-03T13:17:44.999Z</time></trkpt><trkpt lat="44.94547332867828" lon="4.370645506973634"><ele>547.0</ele><time>2026-04-03T13:17:45.999Z</time></trkpt><trkpt lat="44.94557450291925" lon="4.370690842662756"><ele>552.4</ele><time>2026-04-03T13:17:46.999Z</time></trkpt><trkpt lat="44.94567520233534" lon="4.370727657314185"><ele>557.8000000000001</ele><time>2026-04-03T13:17:47.999Z</time></trkpt><trkpt lat="44.945791087198316" lon="4.370753118971581"><ele>563.2</ele><time>2026-04-03T13:17:48.999Z</time></trkpt><trkpt lat="44.94588549006026" lon="4.370767153559317"><ele>568.6</ele><time>2026-04-03T13:17:49.999Z</time></trkpt><trkpt lat="44.94597965365698" lon="4.370778803647149"><ele>574.0</ele><time>2026-04-03T13:17:50.999Z</time></trkpt><trkpt lat="44.94607762920531" lon="4.370791233243062"><ele>574.0</ele><time>2026-04-03T13:17:51.999Z</time></trkpt><trkpt lat="44.94618301316769" lon="4.370808697495881"><ele>574.0</ele><time>2026-04-03T13:17:52.999Z</time></trkpt><trkpt lat="44.94628569834468" lon="4.37082433745373"><ele>574.0</ele><time>2026-04-03T13:17:53.999Z</time></trkpt><trkpt lat="44.946388580520626" lon="4.370829038609767"><ele>574.0</ele><time>2026-04-03T13:17:54.999Z</time></trkpt><trkpt lat="44.94648956174752" lon="4.370826962253087"><ele>574.0</ele><time>2026-04-03T13:17:55.999Z</time></trkpt><trkpt lat="44.946588556464114" lon="4.370810660374831"><ele>574.0</ele><time>2026-04-03T13:17:56.999Z</time></trkpt><trkpt lat="44.94669844665717" lon="4.370764318106917"><ele>574.0</ele><time>2026-04-03T13:17:57.999Z</time></trkpt><trkpt lat="44.94679069686052" lon="4.370702972554518"><ele>574.0</ele><time>2026-04-03T13:17:58.999Z</time></trkpt><trkpt lat="44.94687391730653" lon="4.370639308847235"><ele>574.0</ele><time>2026-04-03T13:17:59.999Z</time></trkpt><trkpt lat="44.94696119950866" lon="4.370571239301703"><ele>574.0</ele><time>2026-04-03T13:18:00.999Z</time></trkpt><trkpt lat="44.947043551292325" lon="4.37049919159024"><ele>573.8333333333334</ele><time>2026-04-03T13:18:01.999Z</time></trkpt><trkpt lat="44.947125689392884" lon="4.370448104879249"><ele>573.6666666666667</ele><time>2026-04-03T13:18:02.999Z</time></trkpt><trkpt lat="44.9472055967641" lon="4.370403385676865"><ele>573.5</ele><time>2026-04-03T13:18:03.999Z</time></trkpt><trkpt lat="44.94729780716244" lon="4.370340124300213"><ele>573.3333333333334</ele><time>2026-04-03T13:18:04.999Z</time></trkpt><trkpt lat="44.94736918039337" lon="4.370297888255402"><ele>573.1666666666666</ele><time>2026-04-03T13:18:05.999Z</time></trkpt><trkpt lat="44.94745541392349" lon="4.370251531952774"><ele>573.0</ele><time>2026-04-03T13:18:06.999Z</time></trkpt><trkpt lat="44.94754688395312" lon="4.370196745136112"><ele>573.0</ele><time>2026-04-03T13:18:07.999Z</time></trkpt><trkpt lat="44.947637506818246" lon="4.3701650427809655"><ele>573.0</ele><time>2026-04-03T13:18:08.999Z</time></trkpt><trkpt lat="44.94772799370148" lon="4.370148808840699"><ele>573.0</ele><time>2026-04-03T13:18:09.999Z</time></trkpt><trkpt lat="44.94782196046098" lon="4.370171860858874"><ele>573.0</ele><time>2026-04-03T13:18:10.999Z</time></trkpt><trkpt lat="44.94791287842988" lon="4.370183661925054"><ele>573.0</ele><time>2026-04-03T13:18:11.999Z</time></trkpt><trkpt lat="44.94800238977689" lon="4.3702055350729765"><ele>573.0</ele><time>2026-04-03T13:18:12.999Z</time></trkpt><trkpt lat="44.94809521613897" lon="4.37022206473792"><ele>573.0</ele><time>2026-04-03T13:18:13.999Z</time></trkpt><trkpt lat="44.94818296231496" lon="4.370280132649779"><ele>573.0</ele><time>2026-04-03T13:18:14.999Z</time></trkpt><trkpt lat="44.94827217785435" lon="4.370335579907428"><ele>573.0</ele><time>2026-04-03T13:18:15.999Z</time></trkpt><trkpt lat="44.94835634053237" lon="4.370423081837796"><ele>573.0</ele><time>2026-04-03T13:18:16.999Z</time></trkpt><trkpt lat="44.94845019334342" lon="4.370443142566935"><ele>572.8</ele><time>2026-04-03T13:18:17.999Z</time></trkpt><trkpt lat="44.94853721595316" lon="4.370506533958208"><ele>572.5999999999999</ele><time>2026-04-03T13:18:18.999Z</time></trkpt><trkpt lat="44.94861598057378" lon="4.370573371735155"><ele>572.4000000000001</ele><time>2026-04-03T13:18:19.999Z</time></trkpt><trkpt lat="44.948704358385335" lon="4.3706146552165075"><ele>572.2</ele><time>2026-04-03T13:18:20.999Z</time></trkpt><trkpt lat="44.94880072673451" lon="4.370625771809106"><ele>572.0</ele><time>2026-04-03T13:18:21.999Z</time></trkpt><trkpt lat="44.94889095115999" lon="4.370619060198628"><ele>573.8000000000001</ele><time>2026-04-03T13:18:22.999Z</time></trkpt><trkpt lat="44.94898430403947" lon="4.3706145583291205"><ele>575.6</ele><time>2026-04-03T13:18:23.999Z</time></trkpt><trkpt lat="44.9490826385728" lon="4.370590700047744"><ele>577.4000000000001</ele><time>2026-04-03T13:18:24.999Z</time></trkpt><trkpt lat="44.9491798726825" lon="4.370561626113305"><ele>579.2</ele><time>2026-04-03T13:18:25.999Z</time></trkpt><trkpt lat="44.94926999220044" lon="4.370505008219841"><ele>581.0</ele><time>2026-04-03T13:18:26.999Z</time></trkpt><trkpt lat="44.949350784416296" lon="4.370435948856897"><ele>582.4</ele><time>2026-04-03T13:18:27.999Z</time></trkpt><trkpt lat="44.9494283013352" lon="4.370356622851986"><ele>583.8</ele><time>2026-04-03T13:18:28.999Z</time></trkpt><trkpt lat="44.949499202265656" lon="4.370280067547838"><ele>585.1999999999999</ele><time>2026-04-03T13:18:29.999Z</time></trkpt><trkpt lat="44.949570162727774" lon="4.370184205195584"><ele>586.6</ele><time>2026-04-03T13:18:31Z</time></trkpt><trkpt lat="44.949635114168586" lon="4.37006722248201"><ele>588.0</ele><time>2026-04-03T13:18:32Z</time></trkpt><trkpt lat="44.94968977539927" lon="4.3699395861516575"><ele>588.0</ele><time>2026-04-03T13:18:33Z</time></trkpt><trkpt lat="44.94974142397052" lon="4.369809417829751"><ele>588.0</ele><time>2026-04-03T13:18:34Z</time></trkpt><trkpt lat="44.94978724987434" lon="4.369673164157927"><ele>588.0</ele><time>2026-04-03T13:18:35Z</time></trkpt><trkpt lat="44.94984040271616" lon="4.369564562107682"><ele>588.0</ele><time>2026-04-03T13:18:36Z</time></trkpt><trkpt lat="44.94987496241145" lon="4.369462851157238"><ele>588.0</ele><time>2026-04-03T13:18:37Z</time></trkpt><trkpt lat="44.94990346090895" lon="4.369367276489954"><ele>587.6</ele><time>2026-04-03T13:18:38Z</time></trkpt><trkpt lat="44.94992805699971" lon="4.369209229828883"><ele>587.1999999999999</ele><time>2026-04-03T13:18:39Z</time></trkpt><trkpt lat="44.949949655236374" lon="4.369071968048933"><ele>586.8</ele><time>2026-04-03T13:18:40Z</time></trkpt><trkpt lat="44.9499564808364" lon="4.368936154454919"><ele>586.4</ele><time>2026-04-03T13:18:41Z</time></trkpt><trkpt lat="44.94996884201266" lon="4.368817494929213"><ele>586.0</ele><time>2026-04-03T13:18:42Z</time></trkpt><trkpt lat="44.94996738832392" lon="4.368708697843803"><ele>586.0</ele><time>2026-04-03T13:18:43Z</time></trkpt><trkpt lat="44.94996598638626" lon="4.368603774010251"><ele>586.0</ele><time>2026-04-03T13:18:44Z</time></trkpt><trkpt lat="44.94996449593997" lon="4.368492225768101"><ele>586.0</ele><time>2026-04-03T13:18:45Z</time></trkpt><trkpt lat="44.949963645530595" lon="4.368380987698057"><ele>586.0</ele><time>2026-04-03T13:18:46Z</time></trkpt><trkpt lat="44.949964120549936" lon="4.368256119330536"><ele>586.0</ele><time>2026-04-03T13:18:47Z</time></trkpt><trkpt lat="44.94995825215362" lon="4.368134758777059"><ele>586.0</ele><time>2026-04-03T13:18:48Z</time></trkpt><trkpt lat="44.949979361558626" lon="4.368020454663443"><ele>584.6666666666667</ele><time>2026-04-03T13:18:49Z</time></trkpt><trkpt lat="44.950008656499136" lon="4.367911425246191"><ele>583.3333333333334</ele><time>2026-04-03T13:18:50Z</time></trkpt><trkpt lat="44.950046716540285" lon="4.367800283406785"><ele>582.0</ele><time>2026-04-03T13:18:51Z</time></trkpt><trkpt lat="44.95008374403966" lon="4.367691443652788"><ele>580.6666666666666</ele><time>2026-04-03T13:18:52Z</time></trkpt><trkpt lat="44.95013068496648" lon="4.367590352387107"><ele>579.3333333333333</ele><time>2026-04-03T13:18:53Z</time></trkpt><trkpt lat="44.95018272416854" lon="4.367489391459799"><ele>578.0</ele><time>2026-04-03T13:18:54Z</time></trkpt><trkpt lat="44.950241431060746" lon="4.367392892215799"><ele>580.0</ele><time>2026-04-03T13:18:55Z</time></trkpt><trkpt lat="44.95030138064847" lon="4.367304811471462"><ele>582.0</ele><time>2026-04-03T13:18:56Z</time></trkpt><trkpt lat="44.95035923891848" lon="4.36721521189652"><ele>584.0</ele><time>2026-04-03T13:18:57Z</time></trkpt><trkpt lat="44.950414025296965" lon="4.367119686613148"><ele>586.0</ele><time>2026-04-03T13:18:58Z</time></trkpt><trkpt lat="44.95047068866213" lon="4.36702420220627"><ele>588.0</ele><time>2026-04-03T13:18:59Z</time></trkpt><trkpt lat="44.95054005291696" lon="4.3669443407795345"><ele>590.0</ele><time>2026-04-03T13:19:00Z</time></trkpt><trkpt lat="44.95059014339479" lon="4.366840737574284"><ele>590.0</ele><time>2026-04-03T13:19:01Z</time></trkpt><trkpt lat="44.95064814217626" lon="4.366745274090735"><ele>590.0</ele><time>2026-04-03T13:19:02Z</time></trkpt><trkpt lat="44.95071901702715" lon="4.366671484934485"><ele>590.0</ele><time>2026-04-03T13:19:03Z</time></trkpt><trkpt lat="44.95078097669134" lon="4.366580745097993"><ele>590.0</ele><time>2026-04-03T13:19:04Z</time></trkpt><trkpt lat="44.9508432090599" lon="4.3664945320026955"><ele>590.0</ele><time>2026-04-03T13:19:05Z</time></trkpt><trkpt lat="44.95089951871444" lon="4.366391651542752"><ele>590.0</ele><time>2026-04-03T13:19:06Z</time></trkpt><trkpt lat="44.950966062633" lon="4.366303695749167"><ele>591.8333333333333</ele><time>2026-04-03T13:19:07Z</time></trkpt><trkpt lat="44.951030502564585" lon="4.366216355059114"><ele>593.6666666666666</ele><time>2026-04-03T13:19:08Z</time></trkpt><trkpt lat="44.95109295401242" lon="4.366135033881803"><ele>595.5</ele><time>2026-04-03T13:19:09Z</time></trkpt><trkpt lat="44.95115209621984" lon="4.366051232472509"><ele>597.3333333333334</ele><time>2026-04-03T13:19:10Z</time></trkpt><trkpt lat="44.9512097836983" lon="4.3659701053583175"><ele>599.1666666666667</ele><time>2026-04-03T13:19:11Z</time></trkpt><trkpt lat="44.95127010894869" lon="4.365910589452375"><ele>601.0</ele><time>2026-04-03T13:19:12Z</time></trkpt><trkpt lat="44.951337132930874" lon="4.365814274352987"><ele>601.0</ele><time>2026-04-03T13:19:14Z</time></trkpt><trkpt lat="44.951392840143754" lon="4.365737124581777"><ele>601.0</ele><time>2026-04-03T13:19:17Z</time></trkpt><trkpt lat="44.95134510248797" lon="4.365822400241548"><ele>601.0</ele><time>2026-04-03T13:19:34Z</time></trkpt><trkpt lat="44.95133240558158" lon="4.365952504869381"><ele>601.0</ele><time>2026-04-03T13:19:36Z</time></trkpt><trkpt lat="44.95128487165756" lon="4.366082679085071"><ele>601.0</ele><time>2026-04-03T13:19:39Z</time></trkpt><trkpt lat="44.951241102320736" lon="4.366201376364011"><ele>601.0</ele><time>2026-04-03T13:19:42Z</time></trkpt><trkpt lat="44.951196698776094" lon="4.366287904866713"><ele>605.1666666666667</ele><time>2026-04-03T13:19:43.999Z</time></trkpt><trkpt lat="44.951169878989944" lon="4.366379235702597"><ele>609.3333333333334</ele><time>2026-04-03T13:19:45.999Z</time></trkpt><trkpt lat="44.95111907233851" lon="4.366476499827794"><ele>613.5</ele><time>2026-04-03T13:19:47.999Z</time></trkpt><trkpt lat="44.95109193147726" lon="4.366606516124596"><ele>617.6666666666666</ele><time>2026-04-03T13:19:49.999Z</time></trkpt><trkpt lat="44.95110076306074" lon="4.366709312675466"><ele>621.8333333333333</ele><time>2026-04-03T13:19:51.999Z</time></trkpt><trkpt lat="44.95105863516953" lon="4.366826662816351"><ele>626.0</ele><time>2026-04-03T13:19:54.999Z</time></trkpt><trkpt lat="44.95105390996069" lon="4.3669164606148865"><ele>626.0</ele><time>2026-04-03T13:19:57.999Z</time></trkpt><trkpt lat="44.95104989733614" lon="4.367031152888411"><ele>626.0</ele><time>2026-04-03T13:20:01.999Z</time></trkpt><trkpt lat="44.95103625568786" lon="4.367127901535708"><ele>626.0</ele><time>2026-04-03T13:20:04.999Z</time></trkpt><trkpt lat="44.95103422307378" lon="4.3672483251803325"><ele>626.0</ele><time>2026-04-03T13:20:08.999Z</time></trkpt><trkpt lat="44.95104676999561" lon="4.367347991960591"><ele>626.0</ele><time>2026-04-03T13:20:11.999Z</time></trkpt><trkpt lat="44.95106578748165" lon="4.367464340323638"><ele>626.0</ele><time>2026-04-03T13:20:15.999Z</time></trkpt><trkpt lat="44.951082207282994" lon="4.367561815075423"><ele>627.6666666666666</ele><time>2026-04-03T13:20:18.999Z</time></trkpt><trkpt lat="44.951090870722346" lon="4.367656707005878"><ele>629.3333333333333</ele><time>2026-04-03T13:20:19.999Z</time></trkpt><trkpt lat="44.951053957996805" lon="4.367743432696216"><ele>631.0</ele><time>2026-04-03T13:20:21.999Z</time></trkpt><trkpt lat="44.951051955143896" lon="4.367850479849197"><ele>632.6666666666666</ele><time>2026-04-03T13:21:30Z</time></trkpt><trkpt lat="44.951121095031304" lon="4.367914484008786"><ele>634.3333333333334</ele><time>2026-04-03T13:21:53Z</time></trkpt><trkpt lat="44.951205639544376" lon="4.367860277765121"><ele>636.0</ele><time>2026-04-03T13:22:10.999Z</time></trkpt><trkpt lat="44.95123764052958" lon="4.367761268774263"><ele>636.0</ele><time>2026-04-03T13:22:12.999Z</time></trkpt><trkpt lat="44.95131514351253" lon="4.367806075825966"><ele>636.0</ele><time>2026-04-03T13:22:16.999Z</time></trkpt><trkpt lat="44.9513087545924" lon="4.367898838118655"><ele>636.0</ele><time>2026-04-03T13:22:20.999Z</time></trkpt><trkpt lat="44.95137331955339" lon="4.367893830604386"><ele>636.0</ele><time>2026-04-03T13:22:24.999Z</time></trkpt><trkpt lat="44.951392073366556" lon="4.36780859517664"><ele>636.0</ele><time>2026-04-03T13:22:28.999Z</time></trkpt><trkpt lat="44.95142132827356" lon="4.367728826179597"><ele>636.0</ele><time>2026-04-03T13:22:31.999Z</time></trkpt><trkpt lat="44.951476141786536" lon="4.367672363249995"><ele>636.0</ele><time>2026-04-03T13:22:34.999Z</time></trkpt><trkpt lat="44.95152411628247" lon="4.367740190786801"><ele>636.0</ele><time>2026-04-03T13:22:38.999Z</time></trkpt><trkpt lat="44.95155067110294" lon="4.3676262996307935"><ele>636.0</ele><time>2026-04-03T13:22:43Z</time></trkpt><trkpt lat="44.951612543527226" lon="4.367553413313413"><ele>636.0</ele><time>2026-04-03T13:22:47Z</time></trkpt><trkpt lat="44.951683983460065" lon="4.36764491549596"><ele>636.0</ele><time>2026-04-03T13:22:53Z</time></trkpt><trkpt lat="44.95173666528772" lon="4.367699290888666"><ele>636.0</ele><time>2026-04-03T13:22:56Z</time></trkpt><trkpt lat="44.95180864634384" lon="4.367699039885712"><ele>636.0</ele><time>2026-04-03T13:23:38Z</time></trkpt><trkpt lat="44.95187932755596" lon="4.3676626088406065"><ele>639.1666666666666</ele><time>2026-04-03T13:23:41Z</time></trkpt><trkpt lat="44.95192204640736" lon="4.367735654886262"><ele>642.3333333333334</ele><time>2026-04-03T13:23:44Z</time></trkpt><trkpt lat="44.95198164011066" lon="4.3677842225208945"><ele>645.5</ele><time>2026-04-03T13:24:01.999Z</time></trkpt><trkpt lat="44.95202845365996" lon="4.367709042906193"><ele>648.6666666666667</ele><time>2026-04-03T13:24:09.999Z</time></trkpt><trkpt lat="44.95205342896256" lon="4.367623273370151"><ele>651.8333333333334</ele><time>2026-04-03T13:24:12.999Z</time></trkpt><trkpt lat="44.952071324838386" lon="4.367504134875201"><ele>655.0</ele><time>2026-04-03T13:24:17.999Z</time></trkpt><trkpt lat="44.95212178360111" lon="4.367393558902427"><ele>655.0</ele><time>2026-04-03T13:25:33Z</time></trkpt><trkpt lat="44.95218658691975" lon="4.367306345678916"><ele>655.0</ele><time>2026-04-03T13:25:38Z</time></trkpt><trkpt lat="44.95223354061421" lon="4.367213377310865"><ele>655.0</ele><time>2026-04-03T13:25:41Z</time></trkpt><trkpt lat="44.952298182611464" lon="4.367197259532496"><ele>655.0</ele><time>2026-04-03T13:25:44Z</time></trkpt><trkpt lat="44.95237182561305" lon="4.367206620387364"><ele>655.0</ele><time>2026-04-03T13:25:50Z</time></trkpt><trkpt lat="44.95243569195619" lon="4.367160119576618"><ele>655.0</ele><time>2026-04-03T13:25:54Z</time></trkpt><trkpt lat="44.95253691102511" lon="4.367105864549518"><ele>658.8333333333334</ele><time>2026-04-03T13:25:57Z</time></trkpt><trkpt lat="44.95260136361599" lon="4.367055402534655"><ele>662.6666666666667</ele><time>2026-04-03T13:25:58.999Z</time></trkpt><trkpt lat="44.95267881394237" lon="4.3670761881195475"><ele>666.5</ele><time>2026-04-03T13:26:00.999Z</time></trkpt><trkpt lat="44.9527370576768" lon="4.367030876670611"><ele>670.3333333333334</ele><time>2026-04-03T13:26:03.999Z</time></trkpt><trkpt lat="44.9528085016415" lon="4.366964871469966"><ele>674.1666666666666</ele><time>2026-04-03T13:26:09.999Z</time></trkpt><trkpt lat="44.952894507749235" lon="4.366884351808919"><ele>678.0</ele><time>2026-04-03T13:26:11.999Z</time></trkpt><trkpt lat="44.952963480308796" lon="4.366811089425255"><ele>678.0</ele><time>2026-04-03T13:26:13.999Z</time></trkpt><trkpt lat="44.95297969292787" lon="4.3667237201404365"><ele>678.0</ele><time>2026-04-03T13:26:18.999Z</time></trkpt><trkpt lat="44.953017785651866" lon="4.366629242696763"><ele>678.0</ele><time>2026-04-03T13:26:58Z</time></trkpt><trkpt lat="44.95307280989326" lon="4.366530865303739"><ele>678.0</ele><time>2026-04-03T13:27:01Z</time></trkpt><trkpt lat="44.95315047651819" lon="4.36648841390357"><ele>678.0</ele><time>2026-04-03T13:27:03Z</time></trkpt><trkpt lat="44.95321223916892" lon="4.3664469034244435"><ele>678.0</ele><time>2026-04-03T13:27:05Z</time></trkpt><trkpt lat="44.953274835840205" lon="4.366389710457555"><ele>677.8333333333334</ele><time>2026-04-03T13:27:08Z</time></trkpt><trkpt lat="44.953334516366716" lon="4.366321101394103"><ele>677.6666666666666</ele><time>2026-04-03T13:27:10Z</time></trkpt><trkpt lat="44.95339693773055" lon="4.366270729603585"><ele>677.5</ele><time>2026-04-03T13:27:12Z</time></trkpt><trkpt lat="44.953459512026654" lon="4.366183658723459"><ele>677.3333333333333</ele><time>2026-04-03T13:27:14Z</time></trkpt><trkpt lat="44.95353261441397" lon="4.366170529721158"><ele>677.1666666666666</ele><time>2026-04-03T13:27:16Z</time></trkpt><trkpt lat="44.95360601730897" lon="4.3662037824768545"><ele>677.0</ele><time>2026-04-03T13:27:19Z</time></trkpt><trkpt lat="44.953682370632265" lon="4.3661839161705895"><ele>680.8571428571428</ele><time>2026-04-03T13:27:31Z</time></trkpt><trkpt lat="44.9537503477513" lon="4.36618083603742"><ele>684.7142857142857</ele><time>2026-04-03T13:27:33Z</time></trkpt><trkpt lat="44.953825515633355" lon="4.366177097006508"><ele>688.5714285714286</ele><time>2026-04-03T13:27:35Z</time></trkpt><trkpt lat="44.95389917653866" lon="4.36618073289444"><ele>692.4285714285713</ele><time>2026-04-03T13:27:37Z</time></trkpt><trkpt lat="44.953974320399844" lon="4.3662093666243456"><ele>696.2857142857142</ele><time>2026-04-03T13:27:39Z</time></trkpt><trkpt lat="44.95404079562341" lon="4.366183099094394"><ele>700.1428571428571</ele><time>2026-04-03T13:27:41Z</time></trkpt><trkpt lat="44.9541009462979" lon="4.3661350527677145"><ele>704.0</ele><time>2026-04-03T13:27:43Z</time></trkpt><trkpt lat="44.95416417117219" lon="4.366206016262068"><ele>706.1666666666666</ele><time>2026-04-03T13:27:47Z</time></trkpt><trkpt lat="44.95424661240297" lon="4.366238641528523"><ele>708.3333333333333</ele><time>2026-04-03T13:27:51Z</time></trkpt><trkpt lat="44.95431159424053" lon="4.366250187123378"><ele>710.5</ele><time>2026-04-03T13:27:53Z</time></trkpt><trkpt lat="44.95438149875913" lon="4.366286447226792"><ele>712.6666666666666</ele><time>2026-04-03T13:27:55Z</time></trkpt><trkpt lat="44.954451018644036" lon="4.36635157025401"><ele>714.8333333333334</ele><time>2026-04-03T13:27:58Z</time></trkpt><trkpt lat="44.95451555712142" lon="4.366362965691152"><ele>717.0</ele><time>2026-04-03T13:28:05Z</time></trkpt><trkpt lat="44.95459014573005" lon="4.366406463805992"><ele>717.0</ele><time>2026-04-03T13:28:08Z</time></trkpt><trkpt lat="44.9546541314092" lon="4.366437360595007"><ele>717.0</ele><time>2026-04-03T13:28:10Z</time></trkpt><trkpt lat="44.95472792206195" lon="4.3664808038370575"><ele>717.0</ele><time>2026-04-03T13:28:12Z</time></trkpt><trkpt lat="44.95479684477093" lon="4.366554308368616"><ele>717.0</ele><time>2026-04-03T13:29:43Z</time></trkpt><trkpt lat="44.95485937735832" lon="4.366599125591795"><ele>717.0</ele><time>2026-04-03T13:29:45Z</time></trkpt><trkpt lat="44.95491098367129" lon="4.3666610759392235"><ele>717.0</ele><time>2026-04-03T13:29:47Z</time></trkpt><trkpt lat="44.95496643501261" lon="4.366729661135388"><ele>717.0</ele><time>2026-04-03T13:29:49Z</time></trkpt><trkpt lat="44.95504425798702" lon="4.36675360868957"><ele>722.1666666666666</ele><time>2026-04-03T13:29:51Z</time></trkpt><trkpt lat="44.955105040456296" lon="4.366786034237862"><ele>727.3333333333334</ele><time>2026-04-03T13:29:53Z</time></trkpt><trkpt lat="44.95516789815827" lon="4.366823132813937"><ele>732.5</ele><time>2026-04-03T13:29:55Z</time></trkpt><trkpt lat="44.955200076497306" lon="4.366912285716895"><ele>737.6666666666667</ele><time>2026-04-03T13:29:59Z</time></trkpt><trkpt lat="44.95528807210428" lon="4.366942523386361"><ele>742.8333333333334</ele><time>2026-04-03T13:30:02Z</time></trkpt><trkpt lat="44.95536840601256" lon="4.366995404710299"><ele>748.0</ele><time>2026-04-03T13:30:05Z</time></trkpt><trkpt lat="44.95542001748573" lon="4.367070486227539"><ele>748.0</ele><time>2026-04-03T13:30:07Z</time></trkpt><trkpt lat="44.955491667968666" lon="4.367136009032007"><ele>748.0</ele><time>2026-04-03T13:30:09Z</time></trkpt><trkpt lat="44.95555778202433" lon="4.36720556118647"><ele>748.0</ele><time>2026-04-03T13:30:11Z</time></trkpt><trkpt lat="44.95560712968244" lon="4.367326836975908"><ele>748.0</ele><time>2026-04-03T13:30:13.999Z</time></trkpt><trkpt lat="44.95565686521424" lon="4.367436969320653"><ele>748.0</ele><time>2026-04-03T13:30:16.999Z</time></trkpt><trkpt lat="44.95572820198707" lon="4.367512114170766"><ele>748.0</ele><time>2026-04-03T13:30:19.999Z</time></trkpt><trkpt lat="44.95578222721722" lon="4.367625836922474"><ele>747.8333333333334</ele><time>2026-04-03T13:30:23.999Z</time></trkpt><trkpt lat="44.955824124588574" lon="4.367719680949742"><ele>747.6666666666667</ele><time>2026-04-03T13:30:25.999Z</time></trkpt><trkpt lat="44.95585144696165" lon="4.36784262508094"><ele>747.5</ele><time>2026-04-03T13:30:27.999Z</time></trkpt><trkpt lat="44.95591428753886" lon="4.3678955188386945"><ele>747.3333333333334</ele><time>2026-04-03T13:30:29.999Z</time></trkpt><trkpt lat="44.955959904566654" lon="4.367960175166943"><ele>747.1666666666666</ele><time>2026-04-03T13:30:31.999Z</time></trkpt><trkpt lat="44.95601883631721" lon="4.368020298680266"><ele>747.0</ele><time>2026-04-03T13:30:33.999Z</time></trkpt><trkpt lat="44.95609609620684" lon="4.368084717775326"><ele>747.0</ele><time>2026-04-03T13:30:35.999Z</time></trkpt><trkpt lat="44.956166281979996" lon="4.3681087106771646"><ele>747.0</ele><time>2026-04-03T13:30:36.999Z</time></trkpt><trkpt lat="44.9562388603458" lon="4.368131819207357"><ele>747.0</ele><time>2026-04-03T13:30:38.999Z</time></trkpt><trkpt lat="44.95631099865076" lon="4.368167104000548"><ele>747.0</ele><time>2026-04-03T13:30:40.999Z</time></trkpt><trkpt lat="44.95639790436562" lon="4.368170288666122"><ele>747.0</ele><time>2026-04-03T13:30:43.999Z</time></trkpt><trkpt lat="44.95649350575549" lon="4.368199656446654"><ele>747.0</ele><time>2026-04-03T13:32:00Z</time></trkpt><trkpt lat="44.9565603111783" lon="4.368244159439561"><ele>747.0</ele><time>2026-04-03T13:32:02Z</time></trkpt><trkpt lat="44.9566219512294" lon="4.368289182121231"><ele>747.0</ele><time>2026-04-03T13:32:03Z</time></trkpt><trkpt lat="44.95671364165686" lon="4.368356732874861"><ele>747.0</ele><time>2026-04-03T13:32:04Z</time></trkpt><trkpt lat="44.95678891704327" lon="4.368413082107262"><ele>747.0</ele><time>2026-04-03T13:32:05Z</time></trkpt><trkpt lat="44.95685201631298" lon="4.368465230523537"><ele>747.0</ele><time>2026-04-03T13:32:06Z</time></trkpt><trkpt lat="44.95692172811265" lon="4.368501133159049"><ele>747.0</ele><time>2026-04-03T13:32:07Z</time></trkpt><trkpt lat="44.95698081655971" lon="4.368562907483651"><ele>746.1666666666666</ele><time>2026-04-03T13:32:08Z</time></trkpt><trkpt lat="44.95705169109066" lon="4.368580343561142"><ele>745.3333333333334</ele><time>2026-04-03T13:32:09Z</time></trkpt><trkpt lat="44.95711027214543" lon="4.36861401306042"><ele>744.5</ele><time>2026-04-03T13:32:10Z</time></trkpt><trkpt lat="44.95721767470668" lon="4.368694490805678"><ele>743.6666666666667</ele><time>2026-04-03T13:32:12Z</time></trkpt><trkpt lat="44.957310220961745" lon="4.368760942451828"><ele>742.8333333333334</ele><time>2026-04-03T13:32:14Z</time></trkpt><trkpt lat="44.957345415611464" lon="4.368839380972081"><ele>742.0</ele><time>2026-04-03T13:32:15Z</time></trkpt><trkpt lat="44.95739819939292" lon="4.368899333280097"><ele>742.0</ele><time>2026-04-03T13:32:16Z</time></trkpt><trkpt lat="44.95745860122787" lon="4.368948205386495"><ele>742.0</ele><time>2026-04-03T13:32:17Z</time></trkpt><trkpt lat="44.957516104576506" lon="4.368995508836734"><ele>742.0</ele><time>2026-04-03T13:32:18Z</time></trkpt><trkpt lat="44.95755625828639" lon="4.369076695214784"><ele>742.0</ele><time>2026-04-03T13:32:19Z</time></trkpt><trkpt lat="44.95763635103285" lon="4.3692153034667"><ele>742.0</ele><time>2026-04-03T13:32:20.999Z</time></trkpt><trkpt lat="44.95768044127491" lon="4.369346147470728"><ele>742.0</ele><time>2026-04-03T13:32:22.999Z</time></trkpt><trkpt lat="44.957719704954656" lon="4.36947366032767"><ele>743.5</ele><time>2026-04-03T13:32:24.999Z</time></trkpt><trkpt lat="44.95774821024906" lon="4.369558553836473"><ele>745.0</ele><time>2026-04-03T13:32:26.999Z</time></trkpt><trkpt lat="44.95778767623746" lon="4.369669884746689"><ele>746.5</ele><time>2026-04-03T13:32:28.999Z</time></trkpt><trkpt lat="44.95787073000172" lon="4.3697524041372455"><ele>748.0</ele><time>2026-04-03T13:32:30.999Z</time></trkpt><trkpt lat="44.95795535943799" lon="4.369774079097576"><ele>749.5</ele><time>2026-04-03T13:32:32.999Z</time></trkpt><trkpt lat="44.9580364684441" lon="4.369786985505352"><ele>751.0</ele><time>2026-04-03T13:32:34.999Z</time></trkpt><trkpt lat="44.9581230778429" lon="4.3698370135239175"><ele>751.0</ele><time>2026-04-03T13:32:36.999Z</time></trkpt><trkpt lat="44.95819801116533" lon="4.3699144236769465"><ele>751.0</ele><time>2026-04-03T13:32:38.999Z</time></trkpt><trkpt lat="44.95827219782598" lon="4.370027328252317"><ele>751.0</ele><time>2026-04-03T13:33:01.999Z</time></trkpt><trkpt lat="44.958337933403236" lon="4.370136836895527"><ele>751.0</ele><time>2026-04-03T13:33:03.999Z</time></trkpt><trkpt lat="44.95839640086757" lon="4.37027149070815"><ele>751.0</ele><time>2026-04-03T13:33:05.999Z</time></trkpt><trkpt lat="44.958453609338186" lon="4.370404401498318"><ele>753.5999999999999</ele><time>2026-04-03T13:33:07.999Z</time></trkpt><trkpt lat="44.95852956145805" lon="4.3705737829352715"><ele>756.2</ele><time>2026-04-03T13:33:09.999Z</time></trkpt><trkpt lat="44.958547706128186" lon="4.370659789245381"><ele>758.8</ele><time>2026-04-03T13:33:10.999Z</time></trkpt><trkpt lat="44.95857368451293" lon="4.3707452617952045"><ele>761.4000000000001</ele><time>2026-04-03T13:33:11.999Z</time></trkpt><trkpt lat="44.95859928335323" lon="4.370828101799628"><ele>764.0</ele><time>2026-04-03T13:33:13Z</time></trkpt><trkpt lat="44.95865016071933" lon="4.3709838454376815"><ele>764.0</ele><time>2026-04-03T13:33:15Z</time></trkpt><trkpt lat="44.95870959676915" lon="4.371107761174637"><ele>764.0</ele><time>2026-04-03T13:33:17Z</time></trkpt><trkpt lat="44.958766120260236" lon="4.371231881347914"><ele>764.0</ele><time>2026-04-03T13:33:19Z</time></trkpt><trkpt lat="44.958825398186534" lon="4.371320095416145"><ele>764.0</ele><time>2026-04-03T13:33:21Z</time></trkpt><trkpt lat="44.9589063474299" lon="4.3714450789686845"><ele>764.0</ele><time>2026-04-03T13:33:23Z</time></trkpt><trkpt lat="44.958961828376935" lon="4.371522961878958"><ele>763.1666666666666</ele><time>2026-04-03T13:33:25Z</time></trkpt><trkpt lat="44.9590453698491" lon="4.371518146104246"><ele>762.3333333333333</ele><time>2026-04-03T13:33:56Z</time></trkpt><trkpt lat="44.959140722779125" lon="4.371550761720971"><ele>761.5</ele><time>2026-04-03T13:33:59Z</time></trkpt><trkpt lat="44.959215171551946" lon="4.371532155903759"><ele>760.6666666666666</ele><time>2026-04-03T13:34:01Z</time></trkpt><trkpt lat="44.959295676892886" lon="4.3715195085663305"><ele>759.8333333333334</ele><time>2026-04-03T13:34:03Z</time></trkpt><trkpt lat="44.959384419398454" lon="4.371484962246705"><ele>759.0</ele><time>2026-04-03T13:34:06Z</time></trkpt><trkpt lat="44.95945495839969" lon="4.371477744874428"><ele>759.0</ele><time>2026-04-03T13:34:08Z</time></trkpt><trkpt lat="44.95951256678509" lon="4.371437902815016"><ele>759.0</ele><time>2026-04-03T13:34:12Z</time></trkpt><trkpt lat="44.95958376020544" lon="4.37143798044504"><ele>759.0</ele><time>2026-04-03T13:34:15Z</time></trkpt><trkpt lat="44.95967162307481" lon="4.371417892783391"><ele>759.0</ele><time>2026-04-03T13:34:18Z</time></trkpt><trkpt lat="44.9597315432516" lon="4.371384769109092"><ele>759.0</ele><time>2026-04-03T13:34:20Z</time></trkpt><trkpt lat="44.95984746224447" lon="4.371380442122697"><ele>759.0</ele><time>2026-04-03T13:34:22Z</time></trkpt><trkpt lat="44.959976505509864" lon="4.371416343090011"><ele>763.3333333333334</ele><time>2026-04-03T13:34:24Z</time></trkpt><trkpt lat="44.960060916072095" lon="4.371433874976609"><ele>767.6666666666667</ele><time>2026-04-03T13:34:26Z</time></trkpt><trkpt lat="44.960163214610645" lon="4.371468005367415"><ele>772.0</ele><time>2026-04-03T13:34:27.999Z</time></trkpt><trkpt lat="44.96023154137562" lon="4.37148839396259"><ele>776.3333333333334</ele><time>2026-04-03T13:34:29.999Z</time></trkpt><trkpt lat="44.960291085366514" lon="4.371532627151344"><ele>780.6666666666667</ele><time>2026-04-03T13:34:31.999Z</time></trkpt><trkpt lat="44.960353280841524" lon="4.371606911754992"><ele>785.0</ele><time>2026-04-03T13:34:33.999Z</time></trkpt><trkpt lat="44.960412707909214" lon="4.371653708010535"><ele>785.0000000000001</ele><time>2026-04-03T13:34:35.999Z</time></trkpt><trkpt lat="44.960470016721985" lon="4.371720371717805"><ele>785.0</ele><time>2026-04-03T13:34:37.999Z</time></trkpt><trkpt lat="44.96056970348303" lon="4.371806393752976"><ele>785.0</ele><time>2026-04-03T13:34:40.999Z</time></trkpt><trkpt lat="44.96064679871978" lon="4.371829219027065"><ele>785.0</ele><time>2026-04-03T13:34:42.999Z</time></trkpt><trkpt lat="44.96070889644439" lon="4.371851910897243"><ele>785.0000000000001</ele><time>2026-04-03T13:34:44.999Z</time></trkpt><trkpt lat="44.96078074748896" lon="4.371821559931646"><ele>785.0</ele><time>2026-04-03T13:34:49.999Z</time></trkpt><trkpt lat="44.96084321488811" lon="4.37179626860209"><ele>786.8571428571429</ele><time>2026-04-03T13:35:03.999Z</time></trkpt><trkpt lat="44.96092521562611" lon="4.371839704649973"><ele>788.7142857142857</ele><time>2026-04-03T13:35:06.999Z</time></trkpt><trkpt lat="44.96098622831889" lon="4.371872570951801"><ele>790.5714285714286</ele><time>2026-04-03T13:35:08.999Z</time></trkpt><trkpt lat="44.96104600774222" lon="4.371911408657579"><ele>792.4285714285714</ele><time>2026-04-03T13:35:10.999Z</time></trkpt><trkpt lat="44.96111379403426" lon="4.371939600041085"><ele>794.2857142857142</ele><time>2026-04-03T13:35:12.999Z</time></trkpt><trkpt lat="44.96114914526693" lon="4.372016886695878"><ele>796.1428571428571</ele><time>2026-04-03T13:35:14.999Z</time></trkpt><trkpt lat="44.961194797150526" lon="4.372080701018061"><ele>798.0</ele><time>2026-04-03T13:35:17.999Z</time></trkpt><trkpt lat="44.9612057797226" lon="4.372190360448669"><ele>798.0</ele><time>2026-04-03T13:35:20Z</time></trkpt><trkpt lat="44.96126956970453" lon="4.372289424422972"><ele>798.0</ele><time>2026-04-03T13:35:22Z</time></trkpt><trkpt lat="44.96133670946934" lon="4.3722553959973105"><ele>798.0</ele><time>2026-04-03T13:35:25Z</time></trkpt><trkpt lat="44.961367683535315" lon="4.372340439006214"><ele>798.0</ele><time>2026-04-03T13:35:28Z</time></trkpt><trkpt lat="44.96141710430939" lon="4.3724085112141635"><ele>798.0</ele><time>2026-04-03T13:35:31Z</time></trkpt><trkpt lat="44.96145932473393" lon="4.372490169184837"><ele>798.0</ele><time>2026-04-03T13:35:33Z</time></trkpt><trkpt lat="44.961476165310316" lon="4.372577547194641"><ele>798.0</ele><time>2026-04-03T13:35:35Z</time></trkpt><trkpt lat="44.961513097970055" lon="4.37266084554571"><ele>798.0</ele><time>2026-04-03T13:35:39Z</time></trkpt><trkpt lat="44.961540548933755" lon="4.372766218997051"><ele>798.0</ele><time>2026-04-03T13:35:41Z</time></trkpt><trkpt lat="44.96157148058994" lon="4.372876649995894"><ele>798.0</ele><time>2026-04-03T13:35:43Z</time></trkpt><trkpt lat="44.961606328947035" lon="4.372952576610404"><ele>798.0</ele><time>2026-04-03T13:35:44Z</time></trkpt><trkpt lat="44.961673909910196" lon="4.373035396590098"><ele>798.0</ele><time>2026-04-03T13:35:46Z</time></trkpt><trkpt lat="44.961727891295276" lon="4.373124145306448"><ele>798.0</ele><time>2026-04-03T13:35:48Z</time></trkpt><trkpt lat="44.96179853768513" lon="4.373155677891037"><ele>805.0</ele><time>2026-04-03T13:35:49Z</time></trkpt><trkpt lat="44.961864945746875" lon="4.373292341287903"><ele>812.0</ele><time>2026-04-03T13:35:51Z</time></trkpt><trkpt lat="44.96195384936238" lon="4.373360631218509"><ele>819.0</ele><time>2026-04-03T13:35:53Z</time></trkpt><trkpt lat="44.96204557111901" lon="4.37342449306961"><ele>826.0</ele><time>2026-04-03T13:35:55Z</time></trkpt><trkpt lat="44.962110513073604" lon="4.3734485296401875"><ele>833.0</ele><time>2026-04-03T13:35:56Z</time></trkpt><trkpt lat="44.96218510544188" lon="4.3735587902876985"><ele>833.0</ele><time>2026-04-03T13:35:58Z</time></trkpt><trkpt lat="44.96226278803662" lon="4.373715624684262"><ele>833.0</ele><time>2026-04-03T13:36:00Z</time></trkpt><trkpt lat="44.962308033756905" lon="4.373782373472617"><ele>833.0</ele><time>2026-04-03T13:36:01Z</time></trkpt><trkpt lat="44.962411891693826" lon="4.373888185030923"><ele>833.0</ele><time>2026-04-03T13:36:03Z</time></trkpt><trkpt lat="44.962472143888476" lon="4.3739439245466025"><ele>833.0</ele><time>2026-04-03T13:36:04Z</time></trkpt><trkpt lat="44.96251804183329" lon="4.37401126229645"><ele>837.1666666666667</ele><time>2026-04-03T13:36:05Z</time></trkpt><trkpt lat="44.962582545652666" lon="4.3740525555657985"><ele>841.3333333333334</ele><time>2026-04-03T13:36:06Z</time></trkpt><trkpt lat="44.962646490888915" lon="4.37406695970769"><ele>845.5</ele><time>2026-04-03T13:36:37.999Z</time></trkpt><trkpt lat="44.962553725109096" lon="4.374034712938528"><ele>849.6666666666667</ele><time>2026-04-03T13:38:49.999Z</time></trkpt><trkpt lat="44.96264269481415" lon="4.374059055633652"><ele>853.8333333333334</ele><time>2026-04-03T13:40:44Z</time></trkpt><trkpt lat="44.962705802450614" lon="4.3740675323122415"><ele>858.0</ele><time>2026-04-03T13:40:46Z</time></trkpt><trkpt lat="44.96277240799417" lon="4.374079220788128"><ele>858.0</ele><time>2026-04-03T13:40:52Z</time></trkpt><trkpt lat="44.962841803183956" lon="4.374100045972932"><ele>858.0</ele><time>2026-04-03T13:41:21.999Z</time></trkpt><trkpt lat="44.962899868883376" lon="4.374170149252541"><ele>858.0</ele><time>2026-04-03T13:42:14Z</time></trkpt><trkpt lat="44.96295347990686" lon="4.3742182037663255"><ele>858.0</ele><time>2026-04-03T13:42:16Z</time></trkpt><trkpt lat="44.9630312378685" lon="4.374254802928893"><ele>858.0</ele><time>2026-04-03T13:42:18Z</time></trkpt><trkpt lat="44.96308888711371" lon="4.3743061285675635"><ele>858.0</ele><time>2026-04-03T13:42:20Z</time></trkpt><trkpt lat="44.963149981873265" lon="4.374371837589083"><ele>858.0</ele><time>2026-04-03T13:42:22Z</time></trkpt><trkpt lat="44.963225160215735" lon="4.3744142651160205"><ele>858.0</ele><time>2026-04-03T13:42:24Z</time></trkpt><trkpt lat="44.96331471768281" lon="4.374457667972138"><ele>858.0</ele><time>2026-04-03T13:42:27Z</time></trkpt><trkpt lat="44.96340249046319" lon="4.374517192637442"><ele>858.0</ele><time>2026-04-03T13:42:29Z</time></trkpt><trkpt lat="44.963482346084135" lon="4.374560848811194"><ele>858.0</ele><time>2026-04-03T13:42:31Z</time></trkpt><trkpt lat="44.96355186600484" lon="4.374590090630024"><ele>858.0</ele><time>2026-04-03T13:42:33Z</time></trkpt><trkpt lat="44.96360705381781" lon="4.374635937031898"><ele>858.0</ele><time>2026-04-03T13:42:35Z</time></trkpt><trkpt lat="44.96370783074269" lon="4.3747021738715555"><ele>862.8333333333334</ele><time>2026-04-03T13:42:37Z</time></trkpt><trkpt lat="44.96375805690818" lon="4.37476862437609"><ele>867.6666666666667</ele><time>2026-04-03T13:42:39Z</time></trkpt><trkpt lat="44.9637884581307" lon="4.374889253771243"><ele>872.5</ele><time>2026-04-03T13:42:41Z</time></trkpt><trkpt lat="44.963832071072495" lon="4.374968186511857"><ele>877.3333333333334</ele><time>2026-04-03T13:42:47.999Z</time></trkpt><trkpt lat="44.963903300599206" lon="4.375027459746356"><ele>882.1666666666667</ele><time>2026-04-03T13:42:49.999Z</time></trkpt><trkpt lat="44.96396759715628" lon="4.375081798561258"><ele>887.0</ele><time>2026-04-03T13:42:54.999Z</time></trkpt><trkpt lat="44.9640120778123" lon="4.374994647467717"><ele>887.0000000000001</ele><time>2026-04-03T13:42:59.999Z</time></trkpt><trkpt lat="44.96404513427908" lon="4.375082558631312"><ele>887.0</ele><time>2026-04-03T13:43:08.999Z</time></trkpt><trkpt lat="44.964090342075245" lon="4.3751555243428975"><ele>887.0</ele><time>2026-04-03T13:43:31.999Z</time></trkpt><trkpt lat="44.964136787517695" lon="4.375235634731895"><ele>887.0</ele><time>2026-04-03T13:43:35.999Z</time></trkpt><trkpt lat="44.96416174126931" lon="4.375354360298617"><ele>887.0000000000001</ele><time>2026-04-03T13:43:38.999Z</time></trkpt><trkpt lat="44.9641564033132" lon="4.375488468837593"><ele>887.0</ele><time>2026-04-03T13:43:41.999Z</time></trkpt><trkpt lat="44.96414026145136" lon="4.375620720817189"><ele>886.0000000000001</ele><time>2026-04-03T13:43:44Z</time></trkpt><trkpt lat="44.964144235534086" lon="4.375727991890515"><ele>885.0</ele><time>2026-04-03T13:43:46Z</time></trkpt><trkpt lat="44.96420157496526" lon="4.375851498584829"><ele>884.0</ele><time>2026-04-03T13:44:32Z</time></trkpt><trkpt lat="44.9642142942598" lon="4.375947100717798"><ele>883.0</ele><time>2026-04-03T13:44:44Z</time></trkpt><trkpt lat="44.96425608598122" lon="4.376031262063495"><ele>882.0000000000001</ele><time>2026-04-03T13:45:05.999Z</time></trkpt><trkpt lat="44.964255272133975" lon="4.376123348521979"><ele>881.0</ele><time>2026-04-03T13:46:39Z</time></trkpt><trkpt lat="44.96427755280868" lon="4.376223088943495"><ele>886.0</ele><time>2026-04-03T13:46:57Z</time></trkpt><trkpt lat="44.96432187101576" lon="4.376301242955986"><ele>891.0</ele><time>2026-04-03T13:46:59Z</time></trkpt><trkpt lat="44.96439818924629" lon="4.376383693215815"><ele>896.0</ele><time>2026-04-03T13:47:03Z</time></trkpt><trkpt lat="44.96445148594224" lon="4.376440642440734"><ele>901.0</ele><time>2026-04-03T13:47:05Z</time></trkpt><trkpt lat="44.964505447762555" lon="4.376505707545423"><ele>906.0</ele><time>2026-04-03T13:47:08.999Z</time></trkpt><trkpt lat="44.964478533987545" lon="4.376586376486293"><ele>911.0</ele><time>2026-04-03T13:47:16.999Z</time></trkpt><trkpt lat="44.96440937660931" lon="4.376569637579244"><ele>916.0</ele><time>2026-04-03T13:47:20.999Z</time></trkpt><trkpt lat="44.964336524146006" lon="4.376576960646061"><ele>915.9999999999999</ele><time>2026-04-03T13:47:23.999Z</time></trkpt><trkpt lat="44.96425901685685" lon="4.376582031272903"><ele>916.0</ele><time>2026-04-03T13:47:25.999Z</time></trkpt><trkpt lat="44.9641728259076" lon="4.376570192002287"><ele>916.0</ele><time>2026-04-03T13:47:28.999Z</time></trkpt><trkpt lat="44.96409281003103" lon="4.376540063242719"><ele>916.0</ele><time>2026-04-03T13:47:30.999Z</time></trkpt><trkpt lat="44.964025484153204" lon="4.376496614978086"><ele>915.9999999999999</ele><time>2026-04-03T13:47:32.999Z</time></trkpt><trkpt lat="44.963950950988334" lon="4.3764843144978345"><ele>916.0</ele><time>2026-04-03T13:47:34.999Z</time></trkpt><trkpt lat="44.9638622231188" lon="4.376484475470451"><ele>912.4999999999999</ele><time>2026-04-03T13:47:36.999Z</time></trkpt><trkpt lat="44.96379141726518" lon="4.3764583725988"><ele>909.0</ele><time>2026-04-03T13:47:38.999Z</time></trkpt><trkpt lat="44.963725823754224" lon="4.376445308115206"><ele>905.5</ele><time>2026-04-03T13:47:40.999Z</time></trkpt><trkpt lat="44.96365741162434" lon="4.376412906058219"><ele>902.0</ele><time>2026-04-03T13:47:42.999Z</time></trkpt><trkpt lat="44.96355520420887" lon="4.376420630070703"><ele>898.4999999999999</ele><time>2026-04-03T13:47:44.999Z</time></trkpt><trkpt lat="44.96345227524545" lon="4.376432184786622"><ele>895.0</ele><time>2026-04-03T13:47:46.999Z</time></trkpt><trkpt lat="44.96335627950783" lon="4.376464944090912"><ele>893.4999999999999</ele><time>2026-04-03T13:47:48.999Z</time></trkpt><trkpt lat="44.963268983414245" lon="4.376526750795121"><ele>892.0</ele><time>2026-04-03T13:47:50.999Z</time></trkpt><trkpt lat="44.9631818394469" lon="4.376569996607033"><ele>890.5</ele><time>2026-04-03T13:47:52.999Z</time></trkpt><trkpt lat="44.96311923020999" lon="4.376579999677995"><ele>889.0</ele><time>2026-04-03T13:47:55Z</time></trkpt><trkpt lat="44.963055995545936" lon="4.376583992242445"><ele>887.4999999999999</ele><time>2026-04-03T13:47:57Z</time></trkpt><trkpt lat="44.96298431247871" lon="4.376656122845093"><ele>886.0</ele><time>2026-04-03T13:47:59Z</time></trkpt><trkpt lat="44.962909676750705" lon="4.376701506709195"><ele>885.9999999999999</ele><time>2026-04-03T13:48:01Z</time></trkpt><trkpt lat="44.96283132589692" lon="4.376699512824881"><ele>886.0</ele><time>2026-04-03T13:48:03Z</time></trkpt><trkpt lat="44.9627592885769" lon="4.37677346147788"><ele>886.0</ele><time>2026-04-03T13:48:05Z</time></trkpt><trkpt lat="44.962690867204515" lon="4.376761326921475"><ele>886.0</ele><time>2026-04-03T13:48:07Z</time></trkpt><trkpt lat="44.9625943038667" lon="4.376767093546088"><ele>885.9999999999999</ele><time>2026-04-03T13:48:09Z</time></trkpt><trkpt lat="44.9625022329621" lon="4.376829743419814"><ele>886.0</ele><time>2026-04-03T13:48:11Z</time></trkpt><trkpt lat="44.96244960599477" lon="4.376915046221783"><ele>886.4285714285714</ele><time>2026-04-03T13:48:13Z</time></trkpt><trkpt lat="44.96239452092691" lon="4.376961970981443"><ele>886.8571428571429</ele><time>2026-04-03T13:48:17Z</time></trkpt><trkpt lat="44.96234567277604" lon="4.3770691563722055"><ele>887.2857142857142</ele><time>2026-04-03T13:48:20Z</time></trkpt><trkpt lat="44.96231526478791" lon="4.377166112781335"><ele>887.7142857142858</ele><time>2026-04-03T13:48:24Z</time></trkpt><trkpt lat="44.96229961121615" lon="4.377254448642984"><ele>888.1428571428571</ele><time>2026-04-03T13:48:27Z</time></trkpt><trkpt lat="44.962249775818584" lon="4.377327127418822"><ele>888.5714285714286</ele><time>2026-04-03T13:50:29Z</time></trkpt><trkpt lat="44.9623114352104" lon="4.377388063780298"><ele>889.0</ele><time>2026-04-03T13:56:08.999Z</time></trkpt><trkpt lat="44.96234491001725" lon="4.377482067521951"><ele>891.1666666666666</ele><time>2026-04-03T13:56:11.999Z</time></trkpt><trkpt lat="44.96237276435201" lon="4.377578555778701"><ele>893.3333333333333</ele><time>2026-04-03T13:56:13.999Z</time></trkpt><trkpt lat="44.9624036583646" lon="4.377671391602464"><ele>895.5</ele><time>2026-04-03T13:56:15.999Z</time></trkpt><trkpt lat="44.96244109535973" lon="4.3777728116851655"><ele>897.6666666666667</ele><time>2026-04-03T13:56:17.999Z</time></trkpt><trkpt lat="44.96246057146194" lon="4.377890541365711"><ele>899.8333333333334</ele><time>2026-04-03T13:56:20Z</time></trkpt><trkpt lat="44.96251452489296" lon="4.378007419579152"><ele>902.0</ele><time>2026-04-03T13:56:22Z</time></trkpt><trkpt lat="44.96254088611108" lon="4.378112506926751"><ele>908.1666666666667</ele><time>2026-04-03T13:56:24Z</time></trkpt><trkpt lat="44.962569152852794" lon="4.378194094414886"><ele>914.3333333333334</ele><time>2026-04-03T13:56:26Z</time></trkpt><trkpt lat="44.962608724838866" lon="4.378298701992576"><ele>920.5</ele><time>2026-04-03T13:56:28Z</time></trkpt><trkpt lat="44.96265407548954" lon="4.378422233627205"><ele>926.6666666666667</ele><time>2026-04-03T13:56:30Z</time></trkpt><trkpt lat="44.962673147418315" lon="4.37854191730625"><ele>932.8333333333334</ele><time>2026-04-03T13:56:32Z</time></trkpt><trkpt lat="44.96270408341374" lon="4.378659568764386"><ele>939.0</ele><time>2026-04-03T13:56:34Z</time></trkpt><trkpt lat="44.96272629203622" lon="4.378780865613873"><ele>938.5</ele><time>2026-04-03T13:56:36Z</time></trkpt><trkpt lat="44.96275570702117" lon="4.378911759543578"><ele>938.0</ele><time>2026-04-03T13:56:38Z</time></trkpt><trkpt lat="44.96278174663698" lon="4.379027837232045"><ele>937.5</ele><time>2026-04-03T13:56:40Z</time></trkpt><trkpt lat="44.96279608786804" lon="4.379150856753828"><ele>937.0</ele><time>2026-04-03T13:56:42Z</time></trkpt><trkpt lat="44.96283143451971" lon="4.379266919304889"><ele>936.5</ele><time>2026-04-03T13:56:44Z</time></trkpt><trkpt lat="44.96286788034779" lon="4.3793589717510635"><ele>936.0</ele><time>2026-04-03T13:56:46Z</time></trkpt><trkpt lat="44.962918447238174" lon="4.379453729030633"><ele>936.0</ele><time>2026-04-03T13:56:48Z</time></trkpt><trkpt lat="44.962929554225376" lon="4.379557995719316"><ele>936.0</ele><time>2026-04-03T13:56:50Z</time></trkpt><trkpt lat="44.96294744862431" lon="4.37967354459721"><ele>936.0</ele><time>2026-04-03T13:56:52Z</time></trkpt><trkpt lat="44.962970740495905" lon="4.379790131407913"><ele>936.0</ele><time>2026-04-03T13:56:54Z</time></trkpt><trkpt lat="44.96297825953183" lon="4.379919234083098"><ele>936.0</ele><time>2026-04-03T13:56:56Z</time></trkpt><trkpt lat="44.96300459424951" lon="4.380047502596441"><ele>936.0</ele><time>2026-04-03T13:57:00Z</time></trkpt><trkpt lat="44.963039050198546" lon="4.380205932820174"><ele>935.5</ele><time>2026-04-03T13:57:03Z</time></trkpt><trkpt lat="44.963038563133544" lon="4.380318250752491"><ele>935.0</ele><time>2026-04-03T13:57:08Z</time></trkpt><trkpt lat="44.96296629440851" lon="4.380316990967613"><ele>934.5</ele><time>2026-04-03T13:57:21Z</time></trkpt><trkpt lat="44.96290000131414" lon="4.380308880945224"><ele>934.0</ele><time>2026-04-03T13:57:37.999Z</time></trkpt><trkpt lat="44.96281821912818" lon="4.380327851398543"><ele>933.5</ele><time>2026-04-03T13:57:39.999Z</time></trkpt><trkpt lat="44.962708471835924" lon="4.380385496534127"><ele>933.0</ele><time>2026-04-03T13:57:41.999Z</time></trkpt><trkpt lat="44.96264504025469" lon="4.380420909155605"><ele>933.0</ele><time>2026-04-03T13:57:42.999Z</time></trkpt><trkpt lat="44.96257071945681" lon="4.380409858839061"><ele>933.0</ele><time>2026-04-03T13:57:43.999Z</time></trkpt><trkpt lat="44.96245703019729" lon="4.3803926077334"><ele>933.0</ele><time>2026-04-03T13:57:45.999Z</time></trkpt><trkpt lat="44.96239139024991" lon="4.380378508234538"><ele>933.0</ele><time>2026-04-03T13:57:46.999Z</time></trkpt><trkpt lat="44.96231398241475" lon="4.38033953386622"><ele>933.0</ele><time>2026-04-03T13:57:47.999Z</time></trkpt><trkpt lat="44.96224418542826" lon="4.380311893302727"><ele>933.0</ele><time>2026-04-03T13:57:48.999Z</time></trkpt><trkpt lat="44.96217690548778" lon="4.380300383840536"><ele>927.0</ele><time>2026-04-03T13:57:49.999Z</time></trkpt><trkpt lat="44.96210256899683" lon="4.380273140317651"><ele>921.0</ele><time>2026-04-03T13:57:50.999Z</time></trkpt><trkpt lat="44.962027877055874" lon="4.3802412607114105"><ele>915.0</ele><time>2026-04-03T13:57:51.999Z</time></trkpt><trkpt lat="44.961948863813156" lon="4.3802049031562476"><ele>909.0</ele><time>2026-04-03T13:57:52.999Z</time></trkpt><trkpt lat="44.96187975415479" lon="4.380183517026504"><ele>903.0</ele><time>2026-04-03T13:57:53.999Z</time></trkpt><trkpt lat="44.96180796307435" lon="4.380182157333239"><ele>897.0</ele><time>2026-04-03T13:57:54.999Z</time></trkpt><trkpt lat="44.96173222290232" lon="4.3801839401661535"><ele>894.0</ele><time>2026-04-03T13:57:55.999Z</time></trkpt><trkpt lat="44.9616203283635" lon="4.380250219182249"><ele>891.0</ele><time>2026-04-03T13:57:57.999Z</time></trkpt><trkpt lat="44.961541674850196" lon="4.380400766871285"><ele>888.0</ele><time>2026-04-03T13:57:59.999Z</time></trkpt><trkpt lat="44.96151085519727" lon="4.380489473644164"><ele>885.0</ele><time>2026-04-03T13:58:00.999Z</time></trkpt><trkpt lat="44.96147640528504" lon="4.380569526951266"><ele>882.0</ele><time>2026-04-03T13:58:01.999Z</time></trkpt><trkpt lat="44.96143931406099" lon="4.380656887046541"><ele>888.2</ele><time>2026-04-03T13:58:02.999Z</time></trkpt><trkpt lat="44.96140272386865" lon="4.380832281703615"><ele>894.4000000000001</ele><time>2026-04-03T13:58:04.999Z</time></trkpt><trkpt lat="44.96137361913733" lon="4.380940367281601"><ele>900.5999999999999</ele><time>2026-04-03T13:58:05.999Z</time></trkpt><trkpt lat="44.96135916264904" lon="4.381076121125643"><ele>906.8</ele><time>2026-04-03T13:58:07.999Z</time></trkpt><trkpt lat="44.96133621990563" lon="4.381192016107723"><ele>913.0</ele><time>2026-04-03T13:58:08.999Z</time></trkpt><trkpt lat="44.961315912154696" lon="4.381311826455962"><ele>915.8</ele><time>2026-04-03T13:58:09.999Z</time></trkpt><trkpt lat="44.96130198779464" lon="4.381422248733192"><ele>918.5999999999999</ele><time>2026-04-03T13:58:10.999Z</time></trkpt><trkpt lat="44.96126735561153" lon="4.381553711761529"><ele>921.4000000000001</ele><time>2026-04-03T13:58:11.999Z</time></trkpt><trkpt lat="44.96122868728316" lon="4.38168281069302"><ele>924.2</ele><time>2026-04-03T13:58:12.999Z</time></trkpt><trkpt lat="44.96119229608012" lon="4.381791611409303"><ele>927.0</ele><time>2026-04-03T13:58:13.999Z</time></trkpt><trkpt lat="44.961158398688994" lon="4.38190616014657"><ele>927.0</ele><time>2026-04-03T13:58:14.999Z</time></trkpt><trkpt lat="44.96113506502148" lon="4.382019568062627"><ele>927.0</ele><time>2026-04-03T13:58:15.999Z</time></trkpt><trkpt lat="44.961101833038725" lon="4.382132342354734"><ele>927.0</ele><time>2026-04-03T13:58:16.999Z</time></trkpt><trkpt lat="44.96106049409888" lon="4.38222680777759"><ele>927.0</ele><time>2026-04-03T13:58:17.999Z</time></trkpt><trkpt lat="44.96102254769088" lon="4.382326212878977"><ele>927.0</ele><time>2026-04-03T13:58:18.999Z</time></trkpt><trkpt lat="44.96098145162485" lon="4.382429199406531"><ele>927.0</ele><time>2026-04-03T13:58:19.999Z</time></trkpt><trkpt lat="44.96094500290801" lon="4.382530575335481"><ele>929.4000000000001</ele><time>2026-04-03T13:58:20.999Z</time></trkpt><trkpt lat="44.96091692075498" lon="4.382624285597855"><ele>931.8000000000001</ele><time>2026-04-03T13:58:21.999Z</time></trkpt><trkpt lat="44.96090553612825" lon="4.382775949272603"><ele>934.2</ele><time>2026-04-03T13:58:23.999Z</time></trkpt><trkpt lat="44.960825330092135" lon="4.382780711013078"><ele>936.6</ele><time>2026-04-03T13:58:26Z</time></trkpt><trkpt lat="44.960709144751604" lon="4.382768821004594"><ele>939.0</ele><time>2026-04-03T13:58:28Z</time></trkpt><trkpt lat="44.96061964678105" lon="4.382742719149227"><ele>934.6666666666666</ele><time>2026-04-03T13:58:30Z</time></trkpt><trkpt lat="44.96058484366204" lon="4.382664419954627"><ele>930.3333333333333</ele><time>2026-04-03T13:58:31Z</time></trkpt><trkpt lat="44.960553974838646" lon="4.3825739505265275"><ele>926.0</ele><time>2026-04-03T13:58:32Z</time></trkpt><trkpt lat="44.960497516882455" lon="4.382469708828714"><ele>921.6666666666666</ele><time>2026-04-03T13:58:33Z</time></trkpt><trkpt lat="44.9604453246079" lon="4.382383389392478"><ele>917.3333333333333</ele><time>2026-04-03T13:58:34Z</time></trkpt><trkpt lat="44.96034874245363" lon="4.382314286539048"><ele>913.0</ele><time>2026-04-03T13:58:35Z</time></trkpt><trkpt lat="44.96027096428553" lon="4.382236119098419"><ele>913.0</ele><time>2026-04-03T13:58:36Z</time></trkpt><trkpt lat="44.96019802195265" lon="4.382183676961479"><ele>913.0</ele><time>2026-04-03T13:58:37Z</time></trkpt><trkpt lat="44.96009707033623" lon="4.38214850907473"><ele>913.0</ele><time>2026-04-03T13:58:39Z</time></trkpt><trkpt lat="44.96003377251222" lon="4.3821260944138425"><ele>913.0</ele><time>2026-04-03T13:58:41Z</time></trkpt><trkpt lat="44.959918404237285" lon="4.382106749748052"><ele>913.0</ele><time>2026-04-03T13:58:44Z</time></trkpt><trkpt lat="44.95982467764482" lon="4.382124600427612"><ele>912.8333333333333</ele><time>2026-04-03T13:58:46Z</time></trkpt><trkpt lat="44.95974556724189" lon="4.3821145509187245"><ele>912.6666666666666</ele><time>2026-04-03T13:58:49Z</time></trkpt><trkpt lat="44.95966494335379" lon="4.382114035264296"><ele>912.5</ele><time>2026-04-03T13:58:50Z</time></trkpt><trkpt lat="44.95957283743067" lon="4.382077665138456"><ele>912.3333333333333</ele><time>2026-04-03T13:58:53Z</time></trkpt><trkpt lat="44.95949750302566" lon="4.382046358046802"><ele>912.1666666666666</ele><time>2026-04-03T13:58:54Z</time></trkpt><trkpt lat="44.95941292698417" lon="4.382000276956671"><ele>912.0</ele><time>2026-04-03T13:58:55Z</time></trkpt><trkpt lat="44.9593352208791" lon="4.38195020728766"><ele>912.0</ele><time>2026-04-03T13:58:56Z</time></trkpt><trkpt lat="44.9592530033012" lon="4.38189887514899"><ele>912.0</ele><time>2026-04-03T13:58:57Z</time></trkpt><trkpt lat="44.959190889189514" lon="4.381861808163939"><ele>912.0</ele><time>2026-04-03T13:58:58Z</time></trkpt><trkpt lat="44.959110418555625" lon="4.381800906606818"><ele>912.0</ele><time>2026-04-03T13:59:00Z</time></trkpt><trkpt lat="44.959156044144294" lon="4.381937301207922"><ele>912.0</ele><time>2026-04-03T14:01:37Z</time></trkpt><trkpt lat="44.9591888010588" lon="4.382100933891586"><ele>914.1666666666666</ele><time>2026-04-03T14:01:39Z</time></trkpt><trkpt lat="44.959169610141196" lon="4.382208489848534"><ele>916.3333333333333</ele><time>2026-04-03T14:01:40Z</time></trkpt><trkpt lat="44.95916889199218" lon="4.382323480181998"><ele>918.5</ele><time>2026-04-03T14:01:41Z</time></trkpt><trkpt lat="44.959201752983105" lon="4.382440297449622"><ele>920.6666666666666</ele><time>2026-04-03T14:01:42Z</time></trkpt><trkpt lat="44.95924522041186" lon="4.382528606966869"><ele>922.8333333333333</ele><time>2026-04-03T14:01:43Z</time></trkpt><trkpt lat="44.95930182448017" lon="4.3826576409042"><ele>925.0</ele><time>2026-04-03T14:01:45Z</time></trkpt><trkpt lat="44.959383687386236" lon="4.3827394718791615"><ele>925.2</ele><time>2026-04-03T14:01:47Z</time></trkpt><trkpt lat="44.95948907629148" lon="4.3828048020388435"><ele>925.4</ele><time>2026-04-03T14:01:49Z</time></trkpt><trkpt lat="44.95957069290858" lon="4.382934537619871"><ele>925.5999999999999</ele><time>2026-04-03T14:01:51Z</time></trkpt><trkpt lat="44.9596089837246" lon="4.3830810931198725"><ele>925.8</ele><time>2026-04-03T14:01:53Z</time></trkpt><trkpt lat="44.9595867111357" lon="4.383171674740961"><ele>926.0</ele><time>2026-04-03T14:01:54Z</time></trkpt><trkpt lat="44.95956163017933" lon="4.383287321567317"><ele>928.4285714285713</ele><time>2026-04-03T14:01:55Z</time></trkpt><trkpt lat="44.959542284060134" lon="4.383380212926903"><ele>930.8571428571428</ele><time>2026-04-03T14:01:55.999Z</time></trkpt><trkpt lat="44.95954306192154" lon="4.383489705952662"><ele>933.2857142857142</ele><time>2026-04-03T14:01:56.999Z</time></trkpt><trkpt lat="44.95954978781357" lon="4.3835942407617585"><ele>935.7142857142858</ele><time>2026-04-03T14:01:57.999Z</time></trkpt><trkpt lat="44.959588160953494" lon="4.383683196822265"><ele>938.1428571428572</ele><time>2026-04-03T14:01:58.999Z</time></trkpt><trkpt lat="44.95960567443051" lon="4.3837735815745384"><ele>940.5714285714287</ele><time>2026-04-03T14:01:59.999Z</time></trkpt><trkpt lat="44.959618270949235" lon="4.383874379438592"><ele>943.0</ele><time>2026-04-03T14:02:00.999Z</time></trkpt><trkpt lat="44.959622373839146" lon="4.383980587953567"><ele>944.6666666666666</ele><time>2026-04-03T14:02:01.999Z</time></trkpt><trkpt lat="44.959618610271775" lon="4.3840941916390195"><ele>946.3333333333333</ele><time>2026-04-03T14:02:02.999Z</time></trkpt><trkpt lat="44.95962667727533" lon="4.384196835538408"><ele>948.0</ele><time>2026-04-03T14:02:03.999Z</time></trkpt><trkpt lat="44.95965033491044" lon="4.384314035325316"><ele>949.6666666666667</ele><time>2026-04-03T14:02:04.999Z</time></trkpt><trkpt lat="44.95966306185412" lon="4.384413931683407"><ele>951.3333333333334</ele><time>2026-04-03T14:02:05.999Z</time></trkpt><trkpt lat="44.95963568526328" lon="4.384540482036622"><ele>953.0</ele><time>2026-04-03T14:02:07.999Z</time></trkpt><trkpt lat="44.95959534755242" lon="4.384671467577044"><ele>957.8</ele><time>2026-04-03T14:02:09.999Z</time></trkpt><trkpt lat="44.9596129062243" lon="4.384784660886577"><ele>962.5999999999999</ele><time>2026-04-03T14:02:11.999Z</time></trkpt><trkpt lat="44.95968689998697" lon="4.384957726936008"><ele>967.4000000000001</ele><time>2026-04-03T14:02:13.999Z</time></trkpt><trkpt lat="44.95970588957783" lon="4.385063121608787"><ele>972.2</ele><time>2026-04-03T14:02:14.999Z</time></trkpt><trkpt lat="44.95979084484987" lon="4.385155886065955"><ele>977.0</ele><time>2026-04-03T14:02:16.999Z</time></trkpt><trkpt lat="44.9599355174704" lon="4.385255514076088"><ele>977.0000000000001</ele><time>2026-04-03T14:02:18.999Z</time></trkpt><trkpt lat="44.9600037864181" lon="4.385329644737579"><ele>977.0</ele><time>2026-04-03T14:02:19.999Z</time></trkpt><trkpt lat="44.960071130801964" lon="4.385406138435755"><ele>977.0</ele><time>2026-04-03T14:02:20.999Z</time></trkpt><trkpt lat="44.960124566694915" lon="4.3854789342932845"><ele>977.0</ele><time>2026-04-03T14:02:21.999Z</time></trkpt><trkpt lat="44.9601607645628" lon="4.385558565357029"><ele>977.0000000000001</ele><time>2026-04-03T14:02:22.999Z</time></trkpt><trkpt lat="44.96017811151548" lon="4.385656133437083"><ele>977.0</ele><time>2026-04-03T14:02:23.999Z</time></trkpt><trkpt lat="44.96018941599663" lon="4.385755858755089"><ele>979.5000000000001</ele><time>2026-04-03T14:02:24.999Z</time></trkpt><trkpt lat="44.96020232271668" lon="4.385862615962156"><ele>982.0</ele><time>2026-04-03T14:02:25.999Z</time></trkpt><trkpt lat="44.960286313392366" lon="4.385973762699868"><ele>984.5</ele><time>2026-04-03T14:02:27.999Z</time></trkpt><trkpt lat="44.96035824673455" lon="4.3860042636662255"><ele>987.0</ele><time>2026-04-03T14:02:28.999Z</time></trkpt><trkpt lat="44.96040149091839" lon="4.386086142151596"><ele>989.5000000000001</ele><time>2026-04-03T14:02:29.999Z</time></trkpt><trkpt lat="44.96043909277007" lon="4.3861757626143865"><ele>992.0</ele><time>2026-04-03T14:02:31.999Z</time></trkpt><trkpt lat="44.960401211353826" lon="4.386340144430731"><ele>994.0000000000001</ele><time>2026-04-03T14:02:33.999Z</time></trkpt><trkpt lat="44.960342349427926" lon="4.386404610748325"><ele>996.0</ele><time>2026-04-03T14:02:34.999Z</time></trkpt><trkpt lat="44.96026188745513" lon="4.3864950659747866"><ele>998.0</ele><time>2026-04-03T14:02:35.999Z</time></trkpt><trkpt lat="44.96020966687895" lon="4.386570383484622"><ele>1000.0</ele><time>2026-04-03T14:02:37Z</time></trkpt><trkpt lat="44.96013984036989" lon="4.386659587870454"><ele>1002.0000000000001</ele><time>2026-04-03T14:02:38Z</time></trkpt><trkpt lat="44.960082962012876" lon="4.386709705542787"><ele>1004.0</ele><time>2026-04-03T14:02:39Z</time></trkpt><trkpt lat="44.959998034361746" lon="4.386725343275383"><ele>1004.0</ele><time>2026-04-03T14:02:40Z</time></trkpt><trkpt lat="44.959911833541334" lon="4.386712452945404"><ele>1004.0000000000001</ele><time>2026-04-03T14:02:41Z</time></trkpt><trkpt lat="44.95978704409333" lon="4.386663248958115"><ele>1004.0000000000001</ele><time>2026-04-03T14:02:43Z</time></trkpt><trkpt lat="44.95975743714575" lon="4.386761480928797"><ele>1004.0</ele><time>2026-04-03T14:02:45Z</time></trkpt><trkpt lat="44.95980814039152" lon="4.386939056526383"><ele>1004.0</ele><time>2026-04-03T14:02:47Z</time></trkpt><trkpt lat="44.95981875589192" lon="4.387043304546577"><ele>1004.0000000000001</ele><time>2026-04-03T14:02:48Z</time></trkpt><trkpt lat="44.95982533123332" lon="4.387161739291907"><ele>1004.0</ele><time>2026-04-03T14:02:49Z</time></trkpt><trkpt lat="44.95978253153571" lon="4.387253094427151"><ele>1004.0</ele><time>2026-04-03T14:02:50Z</time></trkpt><trkpt lat="44.9597690333874" lon="4.387344392194494"><ele>1004.0</ele><time>2026-04-03T14:02:51Z</time></trkpt><trkpt lat="44.95976583171391" lon="4.387441250879938"><ele>1004.0000000000001</ele><time>2026-04-03T14:02:52Z</time></trkpt><trkpt lat="44.959802855573436" lon="4.387524822793294"><ele>1004.0</ele><time>2026-04-03T14:02:53Z</time></trkpt><trkpt lat="44.959853165076126" lon="4.387639783777504"><ele>1006.6</ele><time>2026-04-03T14:02:54Z</time></trkpt><trkpt lat="44.95990582079501" lon="4.387758254471699"><ele>1009.2</ele><time>2026-04-03T14:02:55Z</time></trkpt><trkpt lat="44.95994913366124" lon="4.387854844185816"><ele>1011.8000000000001</ele><time>2026-04-03T14:02:56Z</time></trkpt><trkpt lat="44.959994031538464" lon="4.387969834855556"><ele>1014.4000000000001</ele><time>2026-04-03T14:02:57Z</time></trkpt><trkpt lat="44.96004363949845" lon="4.388061350903897"><ele>1017.0</ele><time>2026-04-03T14:02:58Z</time></trkpt><trkpt lat="44.9601545174096" lon="4.388157450481081"><ele>1020.3333333333334</ele><time>2026-04-03T14:03:00Z</time></trkpt><trkpt lat="44.960193014824" lon="4.388295605705111"><ele>1023.6666666666667</ele><time>2026-04-03T14:03:02Z</time></trkpt><trkpt lat="44.96018139207049" lon="4.388410816262476"><ele>1027.0</ele><time>2026-04-03T14:03:03Z</time></trkpt><trkpt lat="44.960184766920314" lon="4.388533271802599"><ele>1030.3333333333335</ele><time>2026-04-03T14:03:04Z</time></trkpt><trkpt lat="44.96023055221682" lon="4.388618024275551"><ele>1033.6666666666667</ele><time>2026-04-03T14:03:05Z</time></trkpt><trkpt lat="44.960273681228195" lon="4.388695632232236"><ele>1037.0</ele><time>2026-04-03T14:03:06Z</time></trkpt><trkpt lat="44.96033910042838" lon="4.388760105414413"><ele>1037.0</ele><time>2026-04-03T14:03:18Z</time></trkpt><trkpt lat="44.96043662028901" lon="4.388691346438196"><ele>1037.0</ele><time>2026-04-03T14:03:20Z</time></trkpt><trkpt lat="44.960479448251384" lon="4.388622096409709"><ele>1037.0</ele><time>2026-04-03T14:03:21Z</time></trkpt><trkpt lat="44.96054065022591" lon="4.388473427995209"><ele>1037.0</ele><time>2026-04-03T14:03:23Z</time></trkpt><trkpt lat="44.96060618646171" lon="4.388389426032387"><ele>1037.0</ele><time>2026-04-03T14:03:24Z</time></trkpt><trkpt lat="44.96067107534457" lon="4.388308298328976"><ele>1037.0</ele><time>2026-04-03T14:03:25Z</time></trkpt><trkpt lat="44.96074476559565" lon="4.388223075052204"><ele>1037.0</ele><time>2026-04-03T14:03:26Z</time></trkpt><trkpt lat="44.960812056496394" lon="4.388155284357181"><ele>1037.0</ele><time>2026-04-03T14:03:27Z</time></trkpt><trkpt lat="44.960909057147305" lon="4.38810998040091"><ele>1037.0</ele><time>2026-04-03T14:03:29Z</time></trkpt><trkpt lat="44.96094313470504" lon="4.388239808633833"><ele>1037.0</ele><time>2026-04-03T14:03:31Z</time></trkpt><trkpt lat="44.96092956799808" lon="4.388337000442453"><ele>1037.0</ele><time>2026-04-03T14:03:32Z</time></trkpt><trkpt lat="44.96093086596517" lon="4.388518616926433"><ele>1040.1666666666667</ele><time>2026-04-03T14:03:34Z</time></trkpt><trkpt lat="44.96093197363968" lon="4.388608421456825"><ele>1043.3333333333335</ele><time>2026-04-03T14:03:35Z</time></trkpt><trkpt lat="44.96092545920864" lon="4.388738527659897"><ele>1046.5</ele><time>2026-04-03T14:03:36Z</time></trkpt><trkpt lat="44.960934129424935" lon="4.388866053212878"><ele>1049.6666666666667</ele><time>2026-04-03T14:03:37Z</time></trkpt><trkpt lat="44.96094278374633" lon="4.388980368281908"><ele>1052.8333333333333</ele><time>2026-04-03T14:03:38Z</time></trkpt><trkpt lat="44.96097294646207" lon="4.389089478812916"><ele>1056.0</ele><time>2026-04-03T14:03:39Z</time></trkpt><trkpt lat="44.96102749783151" lon="4.389191583661315"><ele>1057.0</ele><time>2026-04-03T14:03:40Z</time></trkpt><trkpt lat="44.961067567639176" lon="4.389296053795"><ele>1058.0</ele><time>2026-04-03T14:03:41Z</time></trkpt><trkpt lat="44.961116458015816" lon="4.389376012502085"><ele>1059.0</ele><time>2026-04-03T14:03:42Z</time></trkpt><trkpt lat="44.96116560378182" lon="4.389461764155625"><ele>1060.0</ele><time>2026-04-03T14:03:43Z</time></trkpt><trkpt lat="44.961213185573826" lon="4.389527025824604"><ele>1061.0</ele><time>2026-04-03T14:03:44Z</time></trkpt><trkpt lat="44.96130737326602" lon="4.389556704594412"><ele>1062.0</ele><time>2026-04-03T14:03:46Z</time></trkpt><trkpt lat="44.9614212858429" lon="4.389510185075748"><ele>1062.0</ele><time>2026-04-03T14:03:48Z</time></trkpt><trkpt lat="44.96149710322458" lon="4.389461221471586"><ele>1062.0</ele><time>2026-04-03T14:03:50Z</time></trkpt><trkpt lat="44.961545271228616" lon="4.3893706392024"><ele>1062.0</ele><time>2026-04-03T14:03:55Z</time></trkpt><trkpt lat="44.96156828299603" lon="4.389277901918371"><ele>1062.0</ele><time>2026-04-03T14:03:58Z</time></trkpt><trkpt lat="44.96164134924687" lon="4.389243296689323"><ele>1062.0</ele><time>2026-04-03T14:04:00Z</time></trkpt><trkpt lat="44.961739750851805" lon="4.389280202184999"><ele>1062.0</ele><time>2026-04-03T14:04:02Z</time></trkpt><trkpt lat="44.9618164268926" lon="4.389350507665307"><ele>1063.0</ele><time>2026-04-03T14:04:04Z</time></trkpt><trkpt lat="44.961898047954136" lon="4.389477856897977"><ele>1064.0</ele><time>2026-04-03T14:04:06Z</time></trkpt><trkpt lat="44.96193855963638" lon="4.389600434151483"><ele>1065.0</ele><time>2026-04-03T14:04:07.999Z</time></trkpt><trkpt lat="44.962008913516556" lon="4.389679024023496"><ele>1066.0</ele><time>2026-04-03T14:04:09.999Z</time></trkpt><trkpt lat="44.96208551484756" lon="4.389724604703861"><ele>1067.0</ele><time>2026-04-03T14:04:11.999Z</time></trkpt><trkpt lat="44.96210982136294" lon="4.389819334128142"><ele>1067.0</ele><time>2026-04-03T14:04:40.999Z</time></trkpt><trkpt lat="44.96213292875573" lon="4.389976845856098"><ele>1067.0</ele><time>2026-04-03T14:04:43Z</time></trkpt><trkpt lat="44.96214879975514" lon="4.3901444447531635"><ele>1067.0</ele><time>2026-04-03T14:04:45Z</time></trkpt><trkpt lat="44.96212878742461" lon="4.390305892861616"><ele>1067.0</ele><time>2026-04-03T14:04:47Z</time></trkpt><trkpt lat="44.96209829557692" lon="4.390476185238445"><ele>1066.3333333333335</ele><time>2026-04-03T14:04:49Z</time></trkpt><trkpt lat="44.96208239745692" lon="4.390653432020758"><ele>1065.6666666666667</ele><time>2026-04-03T14:04:51Z</time></trkpt><trkpt lat="44.96208750218977" lon="4.390743183823947"><ele>1065.0</ele><time>2026-04-03T14:04:52Z</time></trkpt><trkpt lat="44.96210399904533" lon="4.390842582669656"><ele>1064.3333333333333</ele><time>2026-04-03T14:04:53Z</time></trkpt><trkpt lat="44.96213598888388" lon="4.390935480267726"><ele>1063.6666666666665</ele><time>2026-04-03T14:04:54Z</time></trkpt><trkpt lat="44.96216901341285" lon="4.391025833099781"><ele>1063.0</ele><time>2026-04-03T14:04:55Z</time></trkpt><trkpt lat="44.96219918072611" lon="4.391117582695109"><ele>1063.0</ele><time>2026-04-03T14:04:56Z</time></trkpt><trkpt lat="44.96223420284888" lon="4.391212772970665"><ele>1063.0</ele><time>2026-04-03T14:04:57Z</time></trkpt><trkpt lat="44.96227530995608" lon="4.391318228401691"><ele>1063.0</ele><time>2026-04-03T14:04:58Z</time></trkpt><trkpt lat="44.9623179201178" lon="4.391429996834384"><ele>1063.0</ele><time>2026-04-03T14:04:59Z</time></trkpt><trkpt lat="44.96236159756428" lon="4.391536175933684"><ele>1063.0</ele><time>2026-04-03T14:05:00Z</time></trkpt><trkpt lat="44.9624011929418" lon="4.3916363444231665"><ele>1063.0</ele><time>2026-04-03T14:05:01Z</time></trkpt><trkpt lat="44.962439095123024" lon="4.391738287583337"><ele>1062.8333333333333</ele><time>2026-04-03T14:05:02Z</time></trkpt><trkpt lat="44.96247344902306" lon="4.391839204986401"><ele>1062.6666666666665</ele><time>2026-04-03T14:05:03Z</time></trkpt><trkpt lat="44.96250592491933" lon="4.391940808588884"><ele>1062.5</ele><time>2026-04-03T14:05:04Z</time></trkpt><trkpt lat="44.962540839517565" lon="4.392036253804895"><ele>1062.3333333333333</ele><time>2026-04-03T14:05:05Z</time></trkpt><trkpt lat="44.96257571246141" lon="4.392130796693926"><ele>1062.1666666666667</ele><time>2026-04-03T14:05:06Z</time></trkpt><trkpt lat="44.96261377630025" lon="4.392217508072937"><ele>1062.0</ele><time>2026-04-03T14:05:07Z</time></trkpt><trkpt lat="44.96265694221688" lon="4.392315737497506"><ele>1062.3333333333333</ele><time>2026-04-03T14:05:08Z</time></trkpt><trkpt lat="44.962700012625255" lon="4.392421926623853"><ele>1062.6666666666667</ele><time>2026-04-03T14:05:09Z</time></trkpt><trkpt lat="44.96274829818137" lon="4.3925273180128865"><ele>1063.0</ele><time>2026-04-03T14:05:10Z</time></trkpt><trkpt lat="44.96280362060756" lon="4.392617434263708"><ele>1063.3333333333335</ele><time>2026-04-03T14:05:11Z</time></trkpt><trkpt lat="44.96286504263107" lon="4.39269624265382"><ele>1063.6666666666667</ele><time>2026-04-03T14:05:12Z</time></trkpt><trkpt lat="44.96293405062275" lon="4.392767578225409"><ele>1064.0</ele><time>2026-04-03T14:05:13Z</time></trkpt><trkpt lat="44.963008518626275" lon="4.392833753663991"><ele>1064.0</ele><time>2026-04-03T14:05:14Z</time></trkpt><trkpt lat="44.963082824473105" lon="4.392898610254136"><ele>1064.0</ele><time>2026-04-03T14:05:15Z</time></trkpt><trkpt lat="44.96315620914363" lon="4.392960448112865"><ele>1064.0</ele><time>2026-04-03T14:05:16Z</time></trkpt><trkpt lat="44.963224105798176" lon="4.393025943158266"><ele>1064.0</ele><time>2026-04-03T14:05:17Z</time></trkpt><trkpt lat="44.96328763163392" lon="4.39309202697501"><ele>1064.0</ele><time>2026-04-03T14:05:18Z</time></trkpt><trkpt lat="44.963350842764164" lon="4.393151504989887"><ele>1064.0</ele><time>2026-04-03T14:05:19Z</time></trkpt><trkpt lat="44.963415024419916" lon="4.393211340846063"><ele>1065.0</ele><time>2026-04-03T14:05:20Z</time></trkpt><trkpt lat="44.96348565989422" lon="4.393277275685897"><ele>1066.0</ele><time>2026-04-03T14:05:21Z</time></trkpt><trkpt lat="44.96355854579025" lon="4.393345992650156"><ele>1067.0</ele><time>2026-04-03T14:05:22Z</time></trkpt><trkpt lat="44.96363086498027" lon="4.393412739624114"><ele>1068.0</ele><time>2026-04-03T14:05:23Z</time></trkpt><trkpt lat="44.96371046764553" lon="4.3934774714464755"><ele>1069.0</ele><time>2026-04-03T14:05:24Z</time></trkpt><trkpt lat="44.96379232561802" lon="4.393528387597968"><ele>1070.0</ele><time>2026-04-03T14:05:25Z</time></trkpt><trkpt lat="44.96387418437701" lon="4.39355633490045"><ele>1070.0</ele><time>2026-04-03T14:05:26Z</time></trkpt><trkpt lat="44.963958574628194" lon="4.393582075965685"><ele>1070.0</ele><time>2026-04-03T14:05:27Z</time></trkpt><trkpt lat="44.96405061033118" lon="4.393609087971235"><ele>1070.0</ele><time>2026-04-03T14:05:28Z</time></trkpt><trkpt lat="44.96414082574008" lon="4.393654165434312"><ele>1070.0</ele><time>2026-04-03T14:05:29Z</time></trkpt><trkpt lat="44.96422115744616" lon="4.393718806183978"><ele>1070.0</ele><time>2026-04-03T14:05:30Z</time></trkpt><trkpt lat="44.964288848264474" lon="4.393783272107477"><ele>1070.0</ele><time>2026-04-03T14:05:31Z</time></trkpt><trkpt lat="44.96438767166695" lon="4.393879792562016"><ele>1070.0</ele><time>2026-04-03T14:05:32Z</time></trkpt><trkpt lat="44.96446196697176" lon="4.39395218818966"><ele>1070.0</ele><time>2026-04-03T14:05:33Z</time></trkpt><trkpt lat="44.96453997703961" lon="4.394026208728714"><ele>1070.0</ele><time>2026-04-03T14:05:34Z</time></trkpt><trkpt lat="44.96461591736936" lon="4.39408634658229"><ele>1070.0</ele><time>2026-04-03T14:05:35Z</time></trkpt><trkpt lat="44.964700021646706" lon="4.394141883050011"><ele>1070.0</ele><time>2026-04-03T14:05:36Z</time></trkpt><trkpt lat="44.964777685669176" lon="4.39419680287093"><ele>1070.0</ele><time>2026-04-03T14:05:37Z</time></trkpt><trkpt lat="44.96484406524338" lon="4.394249800839759"><ele>1070.0</ele><time>2026-04-03T14:05:38Z</time></trkpt><trkpt lat="44.964896027913234" lon="4.3943219403606175"><ele>1070.0</ele><time>2026-04-03T14:05:39Z</time></trkpt><trkpt lat="44.96491508763104" lon="4.394427446564371"><ele>1070.0</ele><time>2026-04-03T14:05:40Z</time></trkpt><trkpt lat="44.96486839781241" lon="4.394531817307986"><ele>1070.0</ele><time>2026-04-03T14:05:41Z</time></trkpt><trkpt lat="44.96481703607267" lon="4.394615209767407"><ele>1070.0</ele><time>2026-04-03T14:05:42Z</time></trkpt><trkpt lat="44.964775957469996" lon="4.394724544430698"><ele>1070.0</ele><time>2026-04-03T14:05:43Z</time></trkpt><trkpt lat="44.96474330790267" lon="4.394845442013299"><ele>1070.0</ele><time>2026-04-03T14:05:44Z</time></trkpt><trkpt lat="44.964703484419125" lon="4.394958785005963"><ele>1070.0</ele><time>2026-04-03T14:05:45Z</time></trkpt><trkpt lat="44.964650500339346" lon="4.395057830286969"><ele>1070.0</ele><time>2026-04-03T14:05:46Z</time></trkpt><trkpt lat="44.96461070800038" lon="4.3951631366073265"><ele>1070.0</ele><time>2026-04-03T14:05:47Z</time></trkpt><trkpt lat="44.964579560295135" lon="4.395289163961481"><ele>1070.0</ele><time>2026-04-03T14:05:48Z</time></trkpt><trkpt lat="44.96453224327694" lon="4.3954056837901465"><ele>1070.0</ele><time>2026-04-03T14:05:49Z</time></trkpt><trkpt lat="44.96448541525056" lon="4.395525598365864"><ele>1070.0</ele><time>2026-04-03T14:05:50Z</time></trkpt><trkpt lat="44.964423093053966" lon="4.39563700684601"><ele>1070.0</ele><time>2026-04-03T14:05:51Z</time></trkpt><trkpt lat="44.964375229988185" lon="4.395756487589553"><ele>1070.0</ele><time>2026-04-03T14:05:52Z</time></trkpt><trkpt lat="44.96433730963503" lon="4.395890184146398"><ele>1069.8</ele><time>2026-04-03T14:05:53Z</time></trkpt><trkpt lat="44.96428697723829" lon="4.396012559167805"><ele>1069.6</ele><time>2026-04-03T14:05:54Z</time></trkpt><trkpt lat="44.96422723331872" lon="4.396116777269036"><ele>1069.4</ele><time>2026-04-03T14:05:55Z</time></trkpt><trkpt lat="44.96418239445345" lon="4.396225507307232"><ele>1069.2</ele><time>2026-04-03T14:05:56Z</time></trkpt><trkpt lat="44.96415313451549" lon="4.396338185505472"><ele>1069.0</ele><time>2026-04-03T14:05:57Z</time></trkpt><trkpt lat="44.96411011320901" lon="4.3964491755897965"><ele>1068.8333333333333</ele><time>2026-04-03T14:05:58Z</time></trkpt><trkpt lat="44.96407627993" lon="4.3965453035943804"><ele>1068.6666666666665</ele><time>2026-04-03T14:05:59Z</time></trkpt><trkpt lat="44.964038676631596" lon="4.396638474078576"><ele>1068.5</ele><time>2026-04-03T14:06:01Z</time></trkpt><trkpt lat="44.96400591356702" lon="4.39675289661956"><ele>1068.3333333333333</ele><time>2026-04-03T14:06:09Z</time></trkpt><trkpt lat="44.96395356019093" lon="4.396867881485439"><ele>1068.1666666666667</ele><time>2026-04-03T14:06:10.999Z</time></trkpt><trkpt lat="44.96391743515478" lon="4.397015188901206"><ele>1068.0</ele><time>2026-04-03T14:06:12.999Z</time></trkpt><trkpt lat="44.96386453602304" lon="4.397163263511103"><ele>1068.4</ele><time>2026-04-03T14:06:14.999Z</time></trkpt><trkpt lat="44.96380148180886" lon="4.397337260474716"><ele>1068.8</ele><time>2026-04-03T14:06:16.999Z</time></trkpt><trkpt lat="44.96376835162982" lon="4.397436244996441"><ele>1069.2</ele><time>2026-04-03T14:06:17.999Z</time></trkpt><trkpt lat="44.96373249398955" lon="4.39754846777415"><ele>1069.6</ele><time>2026-04-03T14:06:18.999Z</time></trkpt><trkpt lat="44.963693948372374" lon="4.397669237422937"><ele>1070.0</ele><time>2026-04-03T14:06:19.999Z</time></trkpt><trkpt lat="44.96364659962653" lon="4.397786067629237"><ele>1070.0</ele><time>2026-04-03T14:06:20.999Z</time></trkpt><trkpt lat="44.96361313851008" lon="4.397893955047687"><ele>1070.0</ele><time>2026-04-03T14:06:21.999Z</time></trkpt><trkpt lat="44.96358670630852" lon="4.397996424920981"><ele>1070.0</ele><time>2026-04-03T14:06:22.999Z</time></trkpt><trkpt lat="44.963551700139384" lon="4.398097838795879"><ele>1070.0</ele><time>2026-04-03T14:06:23.999Z</time></trkpt><trkpt lat="44.9635110918377" lon="4.398192613313657"><ele>1070.0</ele><time>2026-04-03T14:06:24.999Z</time></trkpt><trkpt lat="44.96346664569909" lon="4.398287526424413"><ele>1070.0</ele><time>2026-04-03T14:06:25.999Z</time></trkpt><trkpt lat="44.96342656565165" lon="4.398380385902726"><ele>1069.7142857142858</ele><time>2026-04-03T14:06:26.999Z</time></trkpt><trkpt lat="44.96338708902856" lon="4.39847154431952"><ele>1069.4285714285716</ele><time>2026-04-03T14:06:27.999Z</time></trkpt><trkpt lat="44.96335471068986" lon="4.398569468370007"><ele>1069.1428571428573</ele><time>2026-04-03T14:06:28.999Z</time></trkpt><trkpt lat="44.96332591101653" lon="4.398662974253031"><ele>1068.857142857143</ele><time>2026-04-03T14:06:29.999Z</time></trkpt><trkpt lat="44.963301303481785" lon="4.398753344852396"><ele>1068.5714285714287</ele><time>2026-04-03T14:06:30.999Z</time></trkpt><trkpt lat="44.963282017494805" lon="4.3988511609567835"><ele>1068.2857142857144</ele><time>2026-04-03T14:06:31.999Z</time></trkpt><trkpt lat="44.96326060732748" lon="4.398940723487058"><ele>1068.0</ele><time>2026-04-03T14:06:32.999Z</time></trkpt><trkpt lat="44.96323890169297" lon="4.399028715101113"><ele>1067.7142857142858</ele><time>2026-04-03T14:06:33.999Z</time></trkpt><trkpt lat="44.96320078596017" lon="4.399111206313652"><ele>1067.4285714285716</ele><time>2026-04-03T14:06:34.999Z</time></trkpt><trkpt lat="44.96316419341561" lon="4.399190536196843"><ele>1067.142857142857</ele><time>2026-04-03T14:06:35.999Z</time></trkpt><trkpt lat="44.96313195763813" lon="4.399276876509786"><ele>1066.857142857143</ele><time>2026-04-03T14:06:36.999Z</time></trkpt><trkpt lat="44.96307438402491" lon="4.399329046389147"><ele>1066.5714285714284</ele><time>2026-04-03T14:06:37.999Z</time></trkpt><trkpt lat="44.963009748496674" lon="4.399369545831011"><ele>1066.2857142857142</ele><time>2026-04-03T14:06:38.999Z</time></trkpt><trkpt lat="44.96293397972975" lon="4.399369472538128"><ele>1066.0</ele><time>2026-04-03T14:06:39.999Z</time></trkpt><trkpt lat="44.96285838063055" lon="4.399382531790813"><ele>1066.0</ele><time>2026-04-03T14:06:40.999Z</time></trkpt><trkpt lat="44.96279100381328" lon="4.399419401324854"><ele>1066.0</ele><time>2026-04-03T14:06:41.999Z</time></trkpt><trkpt lat="44.96271961415845" lon="4.399472913848165"><ele>1066.0</ele><time>2026-04-03T14:06:42.999Z</time></trkpt><trkpt lat="44.96266464838283" lon="4.399558310449106"><ele>1066.0</ele><time>2026-04-03T14:06:43.999Z</time></trkpt><trkpt lat="44.9625945980639" lon="4.399603431256415"><ele>1066.0</ele><time>2026-04-03T14:06:44.999Z</time></trkpt><trkpt lat="44.962529972209175" lon="4.399675806576274"><ele>1066.0</ele><time>2026-04-03T14:06:45.999Z</time></trkpt><trkpt lat="44.9624681174669" lon="4.399745450855081"><ele>1065.6666666666665</ele><time>2026-04-03T14:06:46.999Z</time></trkpt><trkpt lat="44.962403792422094" lon="4.399817876508246"><ele>1065.3333333333333</ele><time>2026-04-03T14:06:47.999Z</time></trkpt><trkpt lat="44.962335456897655" lon="4.399896548159241"><ele>1065.0</ele><time>2026-04-03T14:06:49Z</time></trkpt><trkpt lat="44.96226567036745" lon="4.399980437986118"><ele>1064.6666666666667</ele><time>2026-04-03T14:06:50Z</time></trkpt><trkpt lat="44.96220050865263" lon="4.400061446859882"><ele>1064.3333333333335</ele><time>2026-04-03T14:06:51Z</time></trkpt><trkpt lat="44.96213834252155" lon="4.400135290305381"><ele>1064.0</ele><time>2026-04-03T14:06:52Z</time></trkpt><trkpt lat="44.96207528284043" lon="4.400200836366238"><ele>1064.0</ele><time>2026-04-03T14:06:53Z</time></trkpt><trkpt lat="44.962013383512584" lon="4.40026353580496"><ele>1064.0</ele><time>2026-04-03T14:06:54Z</time></trkpt><trkpt lat="44.96196394827608" lon="4.400334495317076"><ele>1064.0</ele><time>2026-04-03T14:06:55Z</time></trkpt><trkpt lat="44.96188304999679" lon="4.400440365985363"><ele>1064.0</ele><time>2026-04-03T14:06:57Z</time></trkpt><trkpt lat="44.96185176540632" lon="4.4005787050892975"><ele>1064.0</ele><time>2026-04-03T14:06:59Z</time></trkpt><trkpt lat="44.961955834852944" lon="4.400639168597995"><ele>1062.6666666666667</ele><time>2026-04-03T14:07:00Z</time></trkpt><trkpt lat="44.96203417053072" lon="4.4006044554385175"><ele>1061.3333333333335</ele><time>2026-04-03T14:07:01Z</time></trkpt><trkpt lat="44.96210047121095" lon="4.400621023144588"><ele>1060.0</ele><time>2026-04-03T14:07:02Z</time></trkpt><trkpt lat="44.96217327279343" lon="4.400637840558962"><ele>1058.6666666666667</ele><time>2026-04-03T14:07:03Z</time></trkpt><trkpt lat="44.96224944664979" lon="4.400674194197473"><ele>1057.3333333333333</ele><time>2026-04-03T14:07:04Z</time></trkpt><trkpt lat="44.9623309061292" lon="4.400668368397526"><ele>1056.0</ele><time>2026-04-03T14:07:05Z</time></trkpt><trkpt lat="44.96241150391923" lon="4.400671195897076"><ele>1056.0</ele><time>2026-04-03T14:07:06Z</time></trkpt><trkpt lat="44.96248873906379" lon="4.400668288421322"><ele>1056.0</ele><time>2026-04-03T14:07:07Z</time></trkpt><trkpt lat="44.96256228540808" lon="4.400679461920197"><ele>1056.0</ele><time>2026-04-03T14:07:08Z</time></trkpt><trkpt lat="44.962626024064065" lon="4.400729953744188"><ele>1056.0</ele><time>2026-04-03T14:07:09Z</time></trkpt><trkpt lat="44.962675304936695" lon="4.40080804134205"><ele>1056.0</ele><time>2026-04-03T14:07:10Z</time></trkpt><trkpt lat="44.96270158837995" lon="4.400937530423908"><ele>1056.0</ele><time>2026-04-03T14:07:11Z</time></trkpt><trkpt lat="44.9627023914215" lon="4.401064824723607"><ele>1055.3333333333333</ele><time>2026-04-03T14:07:12Z</time></trkpt><trkpt lat="44.96269375626714" lon="4.401180104390872"><ele>1054.6666666666667</ele><time>2026-04-03T14:07:13Z</time></trkpt><trkpt lat="44.96269338194371" lon="4.401306254958055"><ele>1054.0</ele><time>2026-04-03T14:07:14Z</time></trkpt><trkpt lat="44.962698147495644" lon="4.401426873009936"><ele>1053.3333333333335</ele><time>2026-04-03T14:07:15Z</time></trkpt><trkpt lat="44.96270302292558" lon="4.401551067544447"><ele>1052.6666666666667</ele><time>2026-04-03T14:07:16Z</time></trkpt><trkpt lat="44.962705637562074" lon="4.401674937237122"><ele>1052.0</ele><time>2026-04-03T14:07:17Z</time></trkpt><trkpt lat="44.96271385341483" lon="4.401815524761168"><ele>1050.0</ele><time>2026-04-03T14:07:18Z</time></trkpt><trkpt lat="44.962721446277854" lon="4.401987878861135"><ele>1048.0</ele><time>2026-04-03T14:07:19Z</time></trkpt><trkpt lat="44.9627322586258" lon="4.402193151838154"><ele>1046.0</ele><time>2026-04-03T14:07:20Z</time></trkpt><trkpt lat="44.96274221937271" lon="4.402397350238746"><ele>1044.0</ele><time>2026-04-03T14:07:21Z</time></trkpt><trkpt lat="44.96275187204548" lon="4.402573705156059"><ele>1042.8</ele><time>2026-04-03T14:07:22Z</time></trkpt><trkpt lat="44.9627548917916" lon="4.402728471121064"><ele>1041.6000000000001</ele><time>2026-04-03T14:07:23Z</time></trkpt><trkpt lat="44.96275580724612" lon="4.4028731504674115"><ele>1040.4</ele><time>2026-04-03T14:07:24Z</time></trkpt><trkpt lat="44.96276093388498" lon="4.403004480087347"><ele>1039.2</ele><time>2026-04-03T14:07:25Z</time></trkpt><trkpt lat="44.962768565311265" lon="4.403126600230656"><ele>1038.0</ele><time>2026-04-03T14:07:26Z</time></trkpt><trkpt lat="44.96277769765104" lon="4.403231752966724"><ele>1038.0</ele><time>2026-04-03T14:07:27Z</time></trkpt><trkpt lat="44.96278439000446" lon="4.403336458380818"><ele>1038.0</ele><time>2026-04-03T14:07:28Z</time></trkpt><trkpt lat="44.96278651270533" lon="4.403450034373688"><ele>1038.0</ele><time>2026-04-03T14:07:29Z</time></trkpt><trkpt lat="44.96279263738171" lon="4.403569731220372"><ele>1038.0</ele><time>2026-04-03T14:07:30Z</time></trkpt><trkpt lat="44.962798028339556" lon="4.403697932436348"><ele>1038.0</ele><time>2026-04-03T14:07:31Z</time></trkpt><trkpt lat="44.96280079443457" lon="4.403824238627131"><ele>1038.0</ele><time>2026-04-03T14:07:32Z</time></trkpt><trkpt lat="44.9628045555342" lon="4.403949073024797"><ele>1038.0</ele><time>2026-04-03T14:07:33Z</time></trkpt><trkpt lat="44.96281565808961" lon="4.404087512495878"><ele>1038.0</ele><time>2026-04-03T14:07:34Z</time></trkpt><trkpt lat="44.96283246229801" lon="4.404252911881142"><ele>1038.0</ele><time>2026-04-03T14:07:35Z</time></trkpt><trkpt lat="44.96285343062713" lon="4.404428422140629"><ele>1038.0</ele><time>2026-04-03T14:07:36Z</time></trkpt><trkpt lat="44.96287893678673" lon="4.404615052106761"><ele>1038.0</ele><time>2026-04-03T14:07:37Z</time></trkpt><trkpt lat="44.96290123216161" lon="4.404790706043102"><ele>1038.0</ele><time>2026-04-03T14:07:38Z</time></trkpt><trkpt lat="44.96292250577628" lon="4.404948391389165"><ele>1038.0</ele><time>2026-04-03T14:07:39Z</time></trkpt><trkpt lat="44.9629132452424" lon="4.405115560351017"><ele>1038.0</ele><time>2026-04-03T14:07:40Z</time></trkpt><trkpt lat="44.962946641311596" lon="4.405254115707361"><ele>1038.0</ele><time>2026-04-03T14:07:41Z</time></trkpt><trkpt lat="44.96295769152171" lon="4.405390287349971"><ele>1038.0</ele><time>2026-04-03T14:07:42Z</time></trkpt><trkpt lat="44.96296773190923" lon="4.405504879983558"><ele>1038.0</ele><time>2026-04-03T14:07:43Z</time></trkpt><trkpt lat="44.96299429099907" lon="4.4056403580511585"><ele>1038.0</ele><time>2026-04-03T14:07:45Z</time></trkpt><trkpt lat="44.9630304398362" lon="4.405745875346197"><ele>1038.0</ele><time>2026-04-03T14:08:03Z</time></trkpt><trkpt lat="44.96303788609159" lon="4.4058524868906055"><ele>1038.0</ele><time>2026-04-03T14:08:04.999Z</time></trkpt><trkpt lat="44.963043942725356" lon="4.405948525765964"><ele>1039.0</ele><time>2026-04-03T14:08:05.999Z</time></trkpt><trkpt lat="44.96305001939684" lon="4.406054912416506"><ele>1040.0</ele><time>2026-04-03T14:08:06.999Z</time></trkpt><trkpt lat="44.96303842527553" lon="4.4061459613787335"><ele>1041.0</ele><time>2026-04-03T14:08:07.999Z</time></trkpt><trkpt lat="44.963056296368904" lon="4.406309863071348"><ele>1042.0</ele><time>2026-04-03T14:08:09.999Z</time></trkpt><trkpt lat="44.96307526624628" lon="4.406473861864837"><ele>1043.0</ele><time>2026-04-03T14:08:11.999Z</time></trkpt><trkpt lat="44.963089616063606" lon="4.406582190830189"><ele>1043.3333333333335</ele><time>2026-04-03T14:08:12.999Z</time></trkpt><trkpt lat="44.963104385248805" lon="4.406693244876699"><ele>1043.6666666666667</ele><time>2026-04-03T14:08:13.999Z</time></trkpt><trkpt lat="44.9631232795673" lon="4.406808082371509"><ele>1044.0</ele><time>2026-04-03T14:08:14.999Z</time></trkpt><trkpt lat="44.9631509631297" lon="4.406930970043088"><ele>1044.3333333333333</ele><time>2026-04-03T14:08:15.999Z</time></trkpt><trkpt lat="44.963196596864066" lon="4.4070455425533765"><ele>1044.6666666666665</ele><time>2026-04-03T14:08:16.999Z</time></trkpt><trkpt lat="44.963229316999865" lon="4.407161346348945"><ele>1045.0</ele><time>2026-04-03T14:08:17.999Z</time></trkpt><trkpt lat="44.9632639285019" lon="4.407268797066393"><ele>1045.1666666666665</ele><time>2026-04-03T14:08:18.999Z</time></trkpt><trkpt lat="44.963303504301585" lon="4.407371946219822"><ele>1045.3333333333333</ele><time>2026-04-03T14:08:19.999Z</time></trkpt><trkpt lat="44.963343432263926" lon="4.407475220628372"><ele>1045.5</ele><time>2026-04-03T14:08:20.999Z</time></trkpt><trkpt lat="44.96337141074387" lon="4.407567068514019"><ele>1045.6666666666667</ele><time>2026-04-03T14:08:21.999Z</time></trkpt><trkpt lat="44.96339661862186" lon="4.407649721174174"><ele>1045.8333333333335</ele><time>2026-04-03T14:08:22.999Z</time></trkpt><trkpt lat="44.963416697714905" lon="4.407786499317864"><ele>1046.0</ele><time>2026-04-03T14:08:24.999Z</time></trkpt><trkpt lat="44.963450036629276" lon="4.4078652574028"><ele>1045.5</ele><time>2026-04-03T14:08:25.999Z</time></trkpt><trkpt lat="44.963476716569296" lon="4.407963003665841"><ele>1045.0</ele><time>2026-04-03T14:08:26.999Z</time></trkpt><trkpt lat="44.96348899168883" lon="4.408070229233785"><ele>1044.5</ele><time>2026-04-03T14:08:27.999Z</time></trkpt><trkpt lat="44.9635104226138" lon="4.408201278081876"><ele>1044.0</ele><time>2026-04-03T14:08:28.999Z</time></trkpt><trkpt lat="44.96353732810539" lon="4.408348810060617"><ele>1043.5</ele><time>2026-04-03T14:08:29.999Z</time></trkpt><trkpt lat="44.96354978065394" lon="4.408474801179509"><ele>1043.0</ele><time>2026-04-03T14:08:30.999Z</time></trkpt><trkpt lat="44.963568663523766" lon="4.408616238396965"><ele>1043.8</ele><time>2026-04-03T14:08:32.999Z</time></trkpt><trkpt lat="44.96353515082239" lon="4.408697376117065"><ele>1044.6</ele><time>2026-04-03T14:08:57Z</time></trkpt><trkpt lat="44.96343142723132" lon="4.408734133959013"><ele>1045.4</ele><time>2026-04-03T14:08:59Z</time></trkpt><trkpt lat="44.963364599848326" lon="4.4087200871402645"><ele>1046.2</ele><time>2026-04-03T14:09:00Z</time></trkpt><trkpt lat="44.96323079084136" lon="4.408658726503362"><ele>1047.0</ele><time>2026-04-03T14:09:02Z</time></trkpt><trkpt lat="44.963137253136885" lon="4.408640225539034"><ele>1047.0</ele><time>2026-04-03T14:09:03Z</time></trkpt><trkpt lat="44.96303805188536" lon="4.408620816575481"><ele>1047.0</ele><time>2026-04-03T14:09:04Z</time></trkpt><trkpt lat="44.96293589928649" lon="4.408600830202953"><ele>1047.0</ele><time>2026-04-03T14:09:05Z</time></trkpt><trkpt lat="44.96283350426013" lon="4.4085809828083935"><ele>1047.0</ele><time>2026-04-03T14:09:06Z</time></trkpt><trkpt lat="44.96273744079399" lon="4.4085636089281905"><ele>1047.0</ele><time>2026-04-03T14:09:07Z</time></trkpt><trkpt lat="44.962643666598886" lon="4.408546649096541"><ele>1047.0</ele><time>2026-04-03T14:09:08Z</time></trkpt><trkpt lat="44.9625534327887" lon="4.408530329563472"><ele>1047.0</ele><time>2026-04-03T14:09:09Z</time></trkpt><trkpt lat="44.96245540518158" lon="4.408512600473128"><ele>1047.0</ele><time>2026-04-03T14:09:10Z</time></trkpt><trkpt lat="44.962357054388626" lon="4.408496574664794"><ele>1047.0</ele><time>2026-04-03T14:09:11Z</time></trkpt><trkpt lat="44.962250784051356" lon="4.408481645745236"><ele>1047.0</ele><time>2026-04-03T14:09:12Z</time></trkpt><trkpt lat="44.96214398831182" lon="4.408470542118874"><ele>1046.8</ele><time>2026-04-03T14:09:13Z</time></trkpt><trkpt lat="44.96203917411096" lon="4.408460169070992"><ele>1046.6</ele><time>2026-04-03T14:09:14Z</time></trkpt><trkpt lat="44.96194048206641" lon="4.408447144396756"><ele>1046.3999999999999</ele><time>2026-04-03T14:09:15Z</time></trkpt><trkpt lat="44.96183707655593" lon="4.408440532675385"><ele>1046.2</ele><time>2026-04-03T14:09:16Z</time></trkpt><trkpt lat="44.96172885584743" lon="4.4084405342978865"><ele>1046.0</ele><time>2026-04-03T14:09:17Z</time></trkpt><trkpt lat="44.961631658941364" lon="4.408445171590117"><ele>1046.0</ele><time>2026-04-03T14:09:18Z</time></trkpt><trkpt lat="44.9615410952057" lon="4.40848808707064"><ele>1046.0</ele><time>2026-04-03T14:09:19Z</time></trkpt><trkpt lat="44.9614538228686" lon="4.408493017436998"><ele>1046.0</ele><time>2026-04-03T14:09:20Z</time></trkpt><trkpt lat="44.96136497097887" lon="4.408455807461303"><ele>1046.0</ele><time>2026-04-03T14:09:21Z</time></trkpt><trkpt lat="44.96127972288379" lon="4.408456919927421"><ele>1046.0</ele><time>2026-04-03T14:09:22Z</time></trkpt><trkpt lat="44.961189855749595" lon="4.408458092670676"><ele>1046.0</ele><time>2026-04-03T14:09:23Z</time></trkpt><trkpt lat="44.96109736821088" lon="4.40845835539669"><ele>1046.0</ele><time>2026-04-03T14:09:24Z</time></trkpt><trkpt lat="44.961002681393886" lon="4.408458355394905"><ele>1046.0</ele><time>2026-04-03T14:09:25Z</time></trkpt><trkpt lat="44.96090653880572" lon="4.4084597104685255"><ele>1046.0</ele><time>2026-04-03T14:09:26Z</time></trkpt><trkpt lat="44.9608106941563" lon="4.408462048673752"><ele>1046.0</ele><time>2026-04-03T14:09:27Z</time></trkpt><trkpt lat="44.96071249054851" lon="4.408464889622703"><ele>1044.6</ele><time>2026-04-03T14:09:28Z</time></trkpt><trkpt lat="44.96061228617231" lon="4.408467740325607"><ele>1043.1999999999998</ele><time>2026-04-03T14:09:29Z</time></trkpt><trkpt lat="44.96051414231673" lon="4.408466667713875"><ele>1041.8000000000002</ele><time>2026-04-03T14:09:30Z</time></trkpt><trkpt lat="44.960416602727065" lon="4.408462866998178"><ele>1040.4</ele><time>2026-04-03T14:09:31Z</time></trkpt><trkpt lat="44.960324909559006" lon="4.408456883915147"><ele>1039.0</ele><time>2026-04-03T14:09:32Z</time></trkpt><trkpt lat="44.96023879046382" lon="4.408448440869887"><ele>1039.0</ele><time>2026-04-03T14:09:33Z</time></trkpt><trkpt lat="44.96015610902272" lon="4.408436538871113"><ele>1039.0</ele><time>2026-04-03T14:09:34Z</time></trkpt><trkpt lat="44.96007384558987" lon="4.4084204668370175"><ele>1039.0</ele><time>2026-04-03T14:09:35Z</time></trkpt><trkpt lat="44.95999324284331" lon="4.408406726147226"><ele>1039.0</ele><time>2026-04-03T14:09:36Z</time></trkpt><trkpt lat="44.95991462918206" lon="4.408395457155313"><ele>1039.0</ele><time>2026-04-03T14:09:37Z</time></trkpt><trkpt lat="44.959837874311276" lon="4.408384726689817"><ele>1039.0</ele><time>2026-04-03T14:09:38Z</time></trkpt><trkpt lat="44.95976262462632" lon="4.408375876187603"><ele>1038.8333333333333</ele><time>2026-04-03T14:09:39Z</time></trkpt><trkpt lat="44.95969322202299" lon="4.408371599167483"><ele>1038.6666666666665</ele><time>2026-04-03T14:09:40Z</time></trkpt><trkpt lat="44.95962113522792" lon="4.408378694929112"><ele>1038.5</ele><time>2026-04-03T14:09:41Z</time></trkpt><trkpt lat="44.95952322340609" lon="4.408415821787538"><ele>1038.3333333333333</ele><time>2026-04-03T14:09:43Z</time></trkpt><trkpt lat="44.95949464434139" lon="4.408308340566964"><ele>1038.1666666666667</ele><time>2026-04-03T14:09:44Z</time></trkpt><trkpt lat="44.959450910659704" lon="4.408236766837212"><ele>1038.0</ele><time>2026-04-03T14:09:46Z</time></trkpt><trkpt lat="44.95938578111047" lon="4.408133742040293"><ele>1038.0</ele><time>2026-04-03T14:09:48Z</time></trkpt><trkpt lat="44.959313098584474" lon="4.408018769797423"><ele>1038.0</ele><time>2026-04-03T14:09:50Z</time></trkpt><trkpt lat="44.95924443864921" lon="4.407913189228521"><ele>1038.0</ele><time>2026-04-03T14:09:52Z</time></trkpt><trkpt lat="44.95917225310461" lon="4.407803067312805"><ele>1038.0</ele><time>2026-04-03T14:09:54Z</time></trkpt><trkpt lat="44.95909990287165" lon="4.407692018180805"><ele>1038.0</ele><time>2026-04-03T14:09:56Z</time></trkpt><trkpt lat="44.95902814791677" lon="4.407571429972423"><ele>1037.5</ele><time>2026-04-03T14:09:58Z</time></trkpt><trkpt lat="44.958957421588615" lon="4.407432949202435"><ele>1037.0</ele><time>2026-04-03T14:10:00Z</time></trkpt><trkpt lat="44.95892984568538" lon="4.407345119469012"><ele>1036.5</ele><time>2026-04-03T14:10:01Z</time></trkpt><trkpt lat="44.95890493321989" lon="4.407244833655773"><ele>1036.0</ele><time>2026-04-03T14:10:02Z</time></trkpt><trkpt lat="44.95889292354044" lon="4.407154104942676"><ele>1035.5</ele><time>2026-04-03T14:10:03Z</time></trkpt><trkpt lat="44.95888460480386" lon="4.407053563637329"><ele>1035.0</ele><time>2026-04-03T14:10:04Z</time></trkpt><trkpt lat="44.95890378460989" lon="4.406880877304094"><ele>1034.8333333333333</ele><time>2026-04-03T14:10:06Z</time></trkpt><trkpt lat="44.958915971703824" lon="4.406788405221186"><ele>1034.6666666666667</ele><time>2026-04-03T14:10:07Z</time></trkpt><trkpt lat="44.95892856777792" lon="4.40668599813247"><ele>1034.5</ele><time>2026-04-03T14:10:08Z</time></trkpt><trkpt lat="44.95893071184108" lon="4.406595684345147"><ele>1034.3333333333335</ele><time>2026-04-03T14:10:09Z</time></trkpt><trkpt lat="44.958942855700144" lon="4.406418129611379"><ele>1034.1666666666667</ele><time>2026-04-03T14:10:11Z</time></trkpt><trkpt lat="44.958941488435485" lon="4.406297580797541"><ele>1034.0</ele><time>2026-04-03T14:10:12Z</time></trkpt><trkpt lat="44.958925519795685" lon="4.406190247176408"><ele>1033.6666666666667</ele><time>2026-04-03T14:10:12.999Z</time></trkpt><trkpt lat="44.958897671197555" lon="4.406073634485789"><ele>1033.3333333333335</ele><time>2026-04-03T14:10:13.999Z</time></trkpt><trkpt lat="44.958873397568816" lon="4.4059355506491675"><ele>1033.0</ele><time>2026-04-03T14:10:14.999Z</time></trkpt><trkpt lat="44.958865926528865" lon="4.405834889987225"><ele>1032.6666666666667</ele><time>2026-04-03T14:10:15.999Z</time></trkpt><trkpt lat="44.958843345241945" lon="4.405726521703384"><ele>1032.3333333333333</ele><time>2026-04-03T14:10:16.999Z</time></trkpt><trkpt lat="44.95882094588606" lon="4.405621700082453"><ele>1032.0</ele><time>2026-04-03T14:10:17.999Z</time></trkpt><trkpt lat="44.95879324764745" lon="4.40551145269805"><ele>1031.8333333333333</ele><time>2026-04-03T14:10:18.999Z</time></trkpt><trkpt lat="44.95874792642437" lon="4.4054156353603915"><ele>1031.6666666666667</ele><time>2026-04-03T14:10:19.999Z</time></trkpt><trkpt lat="44.95873071002717" lon="4.405304114089369"><ele>1031.5</ele><time>2026-04-03T14:10:20.999Z</time></trkpt><trkpt lat="44.95869134290862" lon="4.405199487072083"><ele>1031.3333333333335</ele><time>2026-04-03T14:10:21.999Z</time></trkpt><trkpt lat="44.95864894057081" lon="4.4050960834028245"><ele>1031.1666666666667</ele><time>2026-04-03T14:10:22.999Z</time></trkpt><trkpt lat="44.9586047095261" lon="4.40499443306882"><ele>1031.0</ele><time>2026-04-03T14:10:23.999Z</time></trkpt><trkpt lat="44.95855845588112" lon="4.404897897019824"><ele>1031.0</ele><time>2026-04-03T14:10:24.999Z</time></trkpt><trkpt lat="44.95850789346238" lon="4.404807553045823"><ele>1031.0</ele><time>2026-04-03T14:10:25.999Z</time></trkpt><trkpt lat="44.95845289208333" lon="4.404714388492005"><ele>1031.0</ele><time>2026-04-03T14:10:26.999Z</time></trkpt><trkpt lat="44.95839827398919" lon="4.404625696904165"><ele>1031.0</ele><time>2026-04-03T14:10:27.999Z</time></trkpt><trkpt lat="44.95834811844233" lon="4.404545082981023"><ele>1031.0</ele><time>2026-04-03T14:10:28.999Z</time></trkpt><trkpt lat="44.958293638555475" lon="4.404460253760163"><ele>1031.0</ele><time>2026-04-03T14:10:29.999Z</time></trkpt><trkpt lat="44.95824817326954" lon="4.404388843710831"><ele>1031.0</ele><time>2026-04-03T14:10:30.999Z</time></trkpt><trkpt lat="44.95818164780178" lon="4.4042643016161565"><ele>1031.0</ele><time>2026-04-03T14:10:32.999Z</time></trkpt><trkpt lat="44.958158776430146" lon="4.404180772037374"><ele>1031.0</ele><time>2026-04-03T14:10:34.999Z</time></trkpt><trkpt lat="44.95811617419103" lon="4.404065858361304"><ele>1031.0</ele><time>2026-04-03T14:10:48.999Z</time></trkpt><trkpt lat="44.95807575017006" lon="4.40397463407311"><ele>1031.0</ele><time>2026-04-03T14:10:50.999Z</time></trkpt><trkpt lat="44.958105532480204" lon="4.404061915193075"><ele>1031.0</ele><time>2026-04-03T14:11:06Z</time></trkpt><trkpt lat="44.95813456714854" lon="4.404167026945325"><ele>1031.0</ele><time>2026-04-03T14:11:09Z</time></trkpt><trkpt lat="44.95807214810614" lon="4.404180264885098"><ele>1031.0</ele><time>2026-04-03T14:11:44Z</time></trkpt><trkpt lat="44.95798105508352" lon="4.404108688386566"><ele>1031.0</ele><time>2026-04-03T14:11:46Z</time></trkpt><trkpt lat="44.95792319841671" lon="4.404060732715462"><ele>1031.0</ele><time>2026-04-03T14:11:47Z</time></trkpt><trkpt lat="44.95783480691621" lon="4.403999839946183"><ele>1031.0</ele><time>2026-04-03T14:11:48Z</time></trkpt><trkpt lat="44.95774988975022" lon="4.4039114345393315"><ele>1031.0</ele><time>2026-04-03T14:11:49Z</time></trkpt><trkpt lat="44.957620554212646" lon="4.4038508822705085"><ele>1030.2</ele><time>2026-04-03T14:11:50Z</time></trkpt><trkpt lat="44.95748382374779" lon="4.4037961299942445"><ele>1029.3999999999999</ele><time>2026-04-03T14:11:51Z</time></trkpt><trkpt lat="44.95736680000546" lon="4.403764197268698"><ele>1028.6</ele><time>2026-04-03T14:11:52Z</time></trkpt><trkpt lat="44.95727171671208" lon="4.403759655597346"><ele>1027.8</ele><time>2026-04-03T14:11:53Z</time></trkpt><trkpt lat="44.95718349439475" lon="4.403775873173871"><ele>1027.0</ele><time>2026-04-03T14:11:54Z</time></trkpt><trkpt lat="44.95709266189391" lon="4.4038097006217924"><ele>1026.5</ele><time>2026-04-03T14:11:55Z</time></trkpt><trkpt lat="44.95701286172426" lon="4.403835507998647"><ele>1026.0</ele><time>2026-04-03T14:11:56Z</time></trkpt><trkpt lat="44.95694231357284" lon="4.403860496399864"><ele>1025.5</ele><time>2026-04-03T14:11:57Z</time></trkpt><trkpt lat="44.95682247936564" lon="4.403877481293485"><ele>1025.0</ele><time>2026-04-03T14:11:59Z</time></trkpt><trkpt lat="44.956738597625815" lon="4.403888259479338"><ele>1024.5</ele><time>2026-04-03T14:12:00Z</time></trkpt><trkpt lat="44.95665400552975" lon="4.403899051799013"><ele>1024.0</ele><time>2026-04-03T14:12:01Z</time></trkpt><trkpt lat="44.95654869254986" lon="4.40391636013812"><ele>1024.0</ele><time>2026-04-03T14:12:02Z</time></trkpt><trkpt lat="44.95644583376276" lon="4.403941472688352"><ele>1024.0</ele><time>2026-04-03T14:12:03Z</time></trkpt><trkpt lat="44.95635345639234" lon="4.4039827773834705"><ele>1024.0</ele><time>2026-04-03T14:12:04Z</time></trkpt><trkpt lat="44.95627090228175" lon="4.404029897347653"><ele>1024.0</ele><time>2026-04-03T14:12:05Z</time></trkpt><trkpt lat="44.95619180076656" lon="4.404107066687786"><ele>1024.0</ele><time>2026-04-03T14:12:06Z</time></trkpt><trkpt lat="44.95614213836442" lon="4.404214363559504"><ele>1024.0</ele><time>2026-04-03T14:12:07Z</time></trkpt><trkpt lat="44.95608549205334" lon="4.404309071567203"><ele>1024.0</ele><time>2026-04-03T14:12:08Z</time></trkpt><trkpt lat="44.956034665659814" lon="4.404434117435149"><ele>1024.0</ele><time>2026-04-03T14:12:10Z</time></trkpt><trkpt lat="44.95595728812606" lon="4.404435466915576"><ele>1024.0</ele><time>2026-04-03T14:12:11.999Z</time></trkpt><trkpt lat="44.955937535906585" lon="4.404296630866287"><ele>1024.0</ele><time>2026-04-03T14:12:13.999Z</time></trkpt><trkpt lat="44.95596886421124" lon="4.404133037366663"><ele>1023.9999999999999</ele><time>2026-04-03T14:12:15.999Z</time></trkpt><trkpt lat="44.955974970419035" lon="4.404027450582131"><ele>1024.0</ele><time>2026-04-03T14:12:16.999Z</time></trkpt><trkpt lat="44.955964871962884" lon="4.403918463336539"><ele>1024.0</ele><time>2026-04-03T14:12:17.999Z</time></trkpt><trkpt lat="44.95593099255946" lon="4.40383320630337"><ele>1024.0</ele><time>2026-04-03T14:12:18.999Z</time></trkpt><trkpt lat="44.95586058360065" lon="4.4037496834273675"><ele>1023.9999999999999</ele><time>2026-04-03T14:12:19.999Z</time></trkpt><trkpt lat="44.955764411576475" lon="4.4037082321712635"><ele>1024.0</ele><time>2026-04-03T14:12:20.999Z</time></trkpt><trkpt lat="44.955698205049465" lon="4.40370407638614"><ele>1022.0</ele><time>2026-04-03T14:12:21.999Z</time></trkpt><trkpt lat="44.95557134400671" lon="4.403638008956657"><ele>1020.0000000000001</ele><time>2026-04-03T14:12:23.999Z</time></trkpt><trkpt lat="44.95549191220914" lon="4.403590794861987"><ele>1018.0000000000001</ele><time>2026-04-03T14:12:24.999Z</time></trkpt><trkpt lat="44.95541679639756" lon="4.403560523113312"><ele>1016.0</ele><time>2026-04-03T14:12:25.999Z</time></trkpt><trkpt lat="44.95534447543919" lon="4.403534176505016"><ele>1014.0</ele><time>2026-04-03T14:12:26.999Z</time></trkpt><trkpt lat="44.95526382108627" lon="4.403500839874248"><ele>1014.0</ele><time>2026-04-03T14:12:27.999Z</time></trkpt><trkpt lat="44.95519753373901" lon="4.403481245369022"><ele>1014.0</ele><time>2026-04-03T14:12:28.999Z</time></trkpt><trkpt lat="44.95514283365882" lon="4.403424052235528"><ele>1014.0</ele><time>2026-04-03T14:12:29.999Z</time></trkpt><trkpt lat="44.955086073719336" lon="4.403371126581519"><ele>1014.0</ele><time>2026-04-03T14:12:30.999Z</time></trkpt><trkpt lat="44.95503718194186" lon="4.403303729833016"><ele>1014.0</ele><time>2026-04-03T14:12:31.999Z</time></trkpt><trkpt lat="44.954988802195246" lon="4.40320976020505"><ele>1014.0</ele><time>2026-04-03T14:12:32.999Z</time></trkpt><trkpt lat="44.95495374513269" lon="4.40310772379174"><ele>1014.0</ele><time>2026-04-03T14:12:33.999Z</time></trkpt><trkpt lat="44.9548950061821" lon="4.403022897649109"><ele>1013.8333333333334</ele><time>2026-04-03T14:12:34.999Z</time></trkpt><trkpt lat="44.95484266787771" lon="4.4029420580086684"><ele>1013.6666666666667</ele><time>2026-04-03T14:12:35.999Z</time></trkpt><trkpt lat="44.954782829501326" lon="4.402871999643221"><ele>1013.5</ele><time>2026-04-03T14:12:36.999Z</time></trkpt><trkpt lat="44.95473091808326" lon="4.402788349343185"><ele>1013.3333333333334</ele><time>2026-04-03T14:12:37.999Z</time></trkpt><trkpt lat="44.95465372916173" lon="4.402718479171076"><ele>1013.1666666666667</ele><time>2026-04-03T14:12:38.999Z</time></trkpt><trkpt lat="44.954557458491706" lon="4.402673082217773"><ele>1013.0</ele><time>2026-04-03T14:12:39.999Z</time></trkpt><trkpt lat="44.95447165342733" lon="4.402626508354727"><ele>1013.0000000000001</ele><time>2026-04-03T14:12:40.999Z</time></trkpt><trkpt lat="44.95440117797319" lon="4.402591560945475"><ele>1013.0</ele><time>2026-04-03T14:12:41.999Z</time></trkpt><trkpt lat="44.95433732285338" lon="4.402575806430081"><ele>1013.0</ele><time>2026-04-03T14:12:42.999Z</time></trkpt><trkpt lat="44.95427240179682" lon="4.402554057233267"><ele>1013.0</ele><time>2026-04-03T14:12:43.999Z</time></trkpt><trkpt lat="44.95417101711564" lon="4.402607215320064"><ele>1013.0000000000001</ele><time>2026-04-03T14:12:45.999Z</time></trkpt><trkpt lat="44.95415514171594" lon="4.402698669950642"><ele>1013.0</ele><time>2026-04-03T14:13:56Z</time></trkpt><trkpt lat="44.954235256612314" lon="4.402639199790034"><ele>1013.0</ele><time>2026-04-03T14:13:59Z</time></trkpt><trkpt lat="44.95423105958031" lon="4.402521359917687"><ele>1013.0</ele><time>2026-04-03T14:14:02Z</time></trkpt><trkpt lat="44.954213847593515" lon="4.402641029700013"><ele>1013.0</ele><time>2026-04-03T14:14:20Z</time></trkpt><trkpt lat="44.954113499610116" lon="4.402701769883043"><ele>1013.0</ele><time>2026-04-03T14:14:22.999Z</time></trkpt><trkpt lat="44.954021308952655" lon="4.402745204998389"><ele>1013.0</ele><time>2026-04-03T14:14:24.999Z</time></trkpt><trkpt lat="44.95390972473861" lon="4.402745856507226"><ele>1009.5</ele><time>2026-04-03T14:14:26.999Z</time></trkpt><trkpt lat="44.95392079657114" lon="4.40252045821992"><ele>1006.0</ele><time>2026-04-03T14:14:27.999Z</time></trkpt><trkpt lat="44.95385440402247" lon="4.402422160663216"><ele>1002.5</ele><time>2026-04-03T14:14:29.999Z</time></trkpt><trkpt lat="44.9537969198896" lon="4.4022450367611965"><ele>999.0</ele><time>2026-04-03T14:14:31.999Z</time></trkpt><trkpt lat="44.95377278670014" lon="4.402154020761112"><ele>999.0</ele><time>2026-04-03T14:14:32.999Z</time></trkpt><trkpt lat="44.95375583295893" lon="4.402063807258992"><ele>999.0000000000001</ele><time>2026-04-03T14:14:33.999Z</time></trkpt><trkpt lat="44.95373383279195" lon="4.401865904046097"><ele>999.0000000000001</ele><time>2026-04-03T14:14:35.999Z</time></trkpt><trkpt lat="44.95371649224536" lon="4.401760589475959"><ele>999.0</ele><time>2026-04-03T14:14:36.999Z</time></trkpt><trkpt lat="44.95369988888939" lon="4.401659752148331"><ele>999.0</ele><time>2026-04-03T14:14:37.999Z</time></trkpt><trkpt lat="44.95329694864829" lon="4.4015890170189165"><ele>999.0</ele><time>2026-04-03T14:14:39.999Z</time></trkpt><trkpt lat="44.953248609620545" lon="4.40148998694264"><ele>999.0</ele><time>2026-04-03T14:14:40.999Z</time></trkpt><trkpt lat="44.95319868719414" lon="4.401401976482029"><ele>999.0</ele><time>2026-04-03T14:14:41.999Z</time></trkpt><trkpt lat="44.953139461345465" lon="4.401307808046929"><ele>999.0</ele><time>2026-04-03T14:14:42.999Z</time></trkpt><trkpt lat="44.953077971310414" lon="4.401233997175779"><ele>999.0</ele><time>2026-04-03T14:14:43.999Z</time></trkpt><trkpt lat="44.95301249832227" lon="4.401161854300915"><ele>999.0</ele><time>2026-04-03T14:14:44.999Z</time></trkpt><trkpt lat="44.95295224487229" lon="4.401085665846981"><ele>996.0</ele><time>2026-04-03T14:14:45.999Z</time></trkpt><trkpt lat="44.952906529935674" lon="4.401005845949645"><ele>993.0000000000001</ele><time>2026-04-03T14:14:46.999Z</time></trkpt><trkpt lat="44.95286457184218" lon="4.400928590842397"><ele>990.0</ele><time>2026-04-03T14:14:47.999Z</time></trkpt><trkpt lat="44.95282120076965" lon="4.400850520734531"><ele>987.0</ele><time>2026-04-03T14:14:48.999Z</time></trkpt><trkpt lat="44.952774040302515" lon="4.400778845266122"><ele>984.0000000000001</ele><time>2026-04-03T14:14:49.999Z</time></trkpt><trkpt lat="44.95271034258545" lon="4.400726905936896"><ele>981.0</ele><time>2026-04-03T14:14:50.999Z</time></trkpt><trkpt lat="44.952649567391234" lon="4.400669451958295"><ele>978.0</ele><time>2026-04-03T14:14:51.999Z</time></trkpt><trkpt lat="44.95258402732018" lon="4.400578281933262"><ele>976.0</ele><time>2026-04-03T14:14:52.999Z</time></trkpt><trkpt lat="44.952519082990136" lon="4.400480873751481"><ele>974.0</ele><time>2026-04-03T14:14:53.999Z</time></trkpt><trkpt lat="44.95247531562797" lon="4.400355561315184"><ele>972.0</ele><time>2026-04-03T14:14:54.999Z</time></trkpt><trkpt lat="44.952447656887124" lon="4.400220053405169"><ele>970.0</ele><time>2026-04-03T14:14:55.999Z</time></trkpt><trkpt lat="44.95241863135156" lon="4.400096962833074"><ele>968.0</ele><time>2026-04-03T14:14:56.999Z</time></trkpt><trkpt lat="44.95238274178895" lon="4.399977962968803"><ele>968.0</ele><time>2026-04-03T14:14:57.999Z</time></trkpt><trkpt lat="44.95230637152907" lon="4.399872509601564"><ele>968.0</ele><time>2026-04-03T14:14:58.999Z</time></trkpt><trkpt lat="44.95224679646794" lon="4.39976540538817"><ele>968.0</ele><time>2026-04-03T14:14:59.999Z</time></trkpt><trkpt lat="44.952187910594674" lon="4.399642372860931"><ele>968.0</ele><time>2026-04-03T14:15:00.999Z</time></trkpt><trkpt lat="44.952169328077076" lon="4.399536809838039"><ele>968.0</ele><time>2026-04-03T14:15:01.999Z</time></trkpt><trkpt lat="44.952100297718175" lon="4.399422370122307"><ele>965.3333333333334</ele><time>2026-04-03T14:15:02.999Z</time></trkpt><trkpt lat="44.952049552162535" lon="4.399316401990721"><ele>962.6666666666667</ele><time>2026-04-03T14:15:03.999Z</time></trkpt><trkpt lat="44.95200390324075" lon="4.399217599825127"><ele>960.0</ele><time>2026-04-03T14:15:04.999Z</time></trkpt><trkpt lat="44.951954374909" lon="4.399115750569381"><ele>957.3333333333333</ele><time>2026-04-03T14:15:05.999Z</time></trkpt><trkpt lat="44.951919638731695" lon="4.399009183919141"><ele>954.6666666666666</ele><time>2026-04-03T14:15:06.999Z</time></trkpt><trkpt lat="44.95188086571437" lon="4.398917735465687"><ele>952.0</ele><time>2026-04-03T14:15:07.999Z</time></trkpt><trkpt lat="44.9518337584901" lon="4.398781151773193"><ele>953.6</ele><time>2026-04-03T14:15:09.999Z</time></trkpt><trkpt lat="44.951776050560234" lon="4.398665479337822"><ele>955.2</ele><time>2026-04-03T14:15:11.999Z</time></trkpt><trkpt lat="44.951740130283646" lon="4.398537215092071"><ele>956.8</ele><time>2026-04-03T14:15:14Z</time></trkpt><trkpt lat="44.95170098917562" lon="4.398401146477982"><ele>958.4</ele><time>2026-04-03T14:15:16Z</time></trkpt><trkpt lat="44.951663755959466" lon="4.398317985484175"><ele>960.0</ele><time>2026-04-03T14:15:17Z</time></trkpt><trkpt lat="44.9516542051609" lon="4.398189616940352"><ele>960.0</ele><time>2026-04-03T14:15:18Z</time></trkpt><trkpt lat="44.951655537212105" lon="4.398067439536203"><ele>960.0</ele><time>2026-04-03T14:15:19Z</time></trkpt><trkpt lat="44.95164588306738" lon="4.397959653301288"><ele>960.0</ele><time>2026-04-03T14:15:20Z</time></trkpt><trkpt lat="44.95162651366447" lon="4.397859269776066"><ele>960.0</ele><time>2026-04-03T14:15:21Z</time></trkpt><trkpt lat="44.95159410882477" lon="4.397742886385196"><ele>960.0</ele><time>2026-04-03T14:15:22Z</time></trkpt><trkpt lat="44.95154383423803" lon="4.397634458405287"><ele>960.0</ele><time>2026-04-03T14:15:23Z</time></trkpt><trkpt lat="44.95150252890163" lon="4.397547004500616"><ele>957.6</ele><time>2026-04-03T14:15:24Z</time></trkpt><trkpt lat="44.95146773392363" lon="4.39744307215972"><ele>955.2</ele><time>2026-04-03T14:15:25Z</time></trkpt><trkpt lat="44.95144679462498" lon="4.397346358987629"><ele>952.8</ele><time>2026-04-03T14:15:26Z</time></trkpt><trkpt lat="44.951383857891635" lon="4.397204023065503"><ele>950.4</ele><time>2026-04-03T14:15:28Z</time></trkpt><trkpt lat="44.95128771099481" lon="4.3971384492611945"><ele>948.0</ele><time>2026-04-03T14:15:30Z</time></trkpt><trkpt lat="44.95116495831711" lon="4.397086977249619"><ele>945.8333333333334</ele><time>2026-04-03T14:15:32Z</time></trkpt><trkpt lat="44.951096281012774" lon="4.397051940891085"><ele>943.6666666666667</ele><time>2026-04-03T14:15:33Z</time></trkpt><trkpt lat="44.95103241538938" lon="4.397001046252694"><ele>941.5</ele><time>2026-04-03T14:15:34Z</time></trkpt><trkpt lat="44.95096803392744" lon="4.396969518867954"><ele>939.3333333333334</ele><time>2026-04-03T14:15:35Z</time></trkpt><trkpt lat="44.95084207342652" lon="4.396926670099094"><ele>937.1666666666667</ele><time>2026-04-03T14:15:37Z</time></trkpt><trkpt lat="44.950773992010255" lon="4.396903077776053"><ele>935.0</ele><time>2026-04-03T14:15:38Z</time></trkpt><trkpt lat="44.950648537147394" lon="4.396878845412175"><ele>933.8333333333334</ele><time>2026-04-03T14:15:40Z</time></trkpt><trkpt lat="44.95058436994689" lon="4.39690428217792"><ele>932.6666666666667</ele><time>2026-04-03T14:15:41Z</time></trkpt><trkpt lat="44.95052081040495" lon="4.3969210917070685"><ele>931.5</ele><time>2026-04-03T14:15:42Z</time></trkpt><trkpt lat="44.95039585359015" lon="4.396959146376909"><ele>930.3333333333333</ele><time>2026-04-03T14:15:44Z</time></trkpt><trkpt lat="44.950322142549034" lon="4.396972636840439"><ele>929.1666666666666</ele><time>2026-04-03T14:15:45Z</time></trkpt><trkpt lat="44.95024280619878" lon="4.396980443319129"><ele>928.0</ele><time>2026-04-03T14:15:46Z</time></trkpt><trkpt lat="44.95016705011233" lon="4.396995076784907"><ele>927.9999999999999</ele><time>2026-04-03T14:15:47Z</time></trkpt><trkpt lat="44.950091592709796" lon="4.397009812440152"><ele>928.0</ele><time>2026-04-03T14:15:48Z</time></trkpt><trkpt lat="44.95002840487031" lon="4.397029844621208"><ele>928.0</ele><time>2026-04-03T14:15:49Z</time></trkpt><trkpt lat="44.949920773078446" lon="4.397034721913691"><ele>928.0</ele><time>2026-04-03T14:15:51Z</time></trkpt><trkpt lat="44.94980987003267" lon="4.397072310208194"><ele>927.9999999999999</ele><time>2026-04-03T14:15:53Z</time></trkpt><trkpt lat="44.94974345515512" lon="4.397101903485544"><ele>928.0</ele><time>2026-04-03T14:15:54Z</time></trkpt><trkpt lat="44.94967769007433" lon="4.397126818380318"><ele>929.4999999999999</ele><time>2026-04-03T14:15:55Z</time></trkpt><trkpt lat="44.949617325762944" lon="4.39716634640183"><ele>931.0</ele><time>2026-04-03T14:15:56Z</time></trkpt><trkpt lat="44.94951331760382" lon="4.397266527053785"><ele>932.5</ele><time>2026-04-03T14:15:58Z</time></trkpt><trkpt lat="44.9494651662435" lon="4.397332005309892"><ele>934.0</ele><time>2026-04-03T14:15:59Z</time></trkpt><trkpt lat="44.949424617973555" lon="4.39740203845288"><ele>935.4999999999999</ele><time>2026-04-03T14:16:00Z</time></trkpt><trkpt lat="44.94938152447615" lon="4.397557292588686"><ele>937.0</ele><time>2026-04-03T14:16:02Z</time></trkpt><trkpt lat="44.949362466911" lon="4.397688534760374"><ele>937.0</ele><time>2026-04-03T14:16:04Z</time></trkpt><trkpt lat="44.94935670274147" lon="4.397783311780507"><ele>937.0</ele><time>2026-04-03T14:16:06Z</time></trkpt><trkpt lat="44.94928892744334" lon="4.397759281083936"><ele>937.0</ele><time>2026-04-03T14:16:09Z</time></trkpt><trkpt lat="44.94931842329726" lon="4.397606589335205"><ele>937.0</ele><time>2026-04-03T14:16:11Z</time></trkpt><trkpt lat="44.94933987616401" lon="4.397448976026744"><ele>937.0</ele><time>2026-04-03T14:16:13Z</time></trkpt><trkpt lat="44.94936654617899" lon="4.397310859141803"><ele>936.9999999999999</ele><time>2026-04-03T14:16:15Z</time></trkpt><trkpt lat="44.949425646065826" lon="4.397183334203147"><ele>937.0</ele><time>2026-04-03T14:16:17Z</time></trkpt><trkpt lat="44.94947921998675" lon="4.397097315860577"><ele>937.0</ele><time>2026-04-03T14:16:18Z</time></trkpt><trkpt lat="44.94952923210873" lon="4.397009877216936"><ele>937.0</ele><time>2026-04-03T14:16:19Z</time></trkpt><trkpt lat="44.94958036402866" lon="4.396932824280909"><ele>936.9999999999999</ele><time>2026-04-03T14:16:20Z</time></trkpt><trkpt lat="44.949645178761365" lon="4.396865143551371"><ele>937.0</ele><time>2026-04-03T14:16:21Z</time></trkpt><trkpt lat="44.94970714274542" lon="4.396811914801386"><ele>935.2</ele><time>2026-04-03T14:16:22Z</time></trkpt><trkpt lat="44.94976987360957" lon="4.396768565229274"><ele>933.4000000000001</ele><time>2026-04-03T14:16:23Z</time></trkpt><trkpt lat="44.949858975829" lon="4.396708476107612"><ele>931.5999999999999</ele><time>2026-04-03T14:16:24Z</time></trkpt><trkpt lat="44.94995089697493" lon="4.396639216883387"><ele>929.8</ele><time>2026-04-03T14:16:25Z</time></trkpt><trkpt lat="44.950046393567476" lon="4.3965711603159665"><ele>928.0</ele><time>2026-04-03T14:16:26Z</time></trkpt><trkpt lat="44.95014688427585" lon="4.396514270419551"><ele>928.0</ele><time>2026-04-03T14:16:27Z</time></trkpt><trkpt lat="44.950246289089264" lon="4.39644638500352"><ele>928.0</ele><time>2026-04-03T14:16:27.999Z</time></trkpt><trkpt lat="44.95033576455966" lon="4.396394467318576"><ele>928.0</ele><time>2026-04-03T14:16:28.999Z</time></trkpt><trkpt lat="44.95040985337479" lon="4.39633494560189"><ele>928.0</ele><time>2026-04-03T14:16:29.999Z</time></trkpt><trkpt lat="44.950485163771276" lon="4.396281732362169"><ele>928.0</ele><time>2026-04-03T14:16:30.999Z</time></trkpt><trkpt lat="44.95056165343936" lon="4.396225881673543"><ele>924.9999999999999</ele><time>2026-04-03T14:16:31.999Z</time></trkpt><trkpt lat="44.95063749674785" lon="4.396176414935278"><ele>922.0</ele><time>2026-04-03T14:16:32.999Z</time></trkpt><trkpt lat="44.95071844963803" lon="4.396129700935464"><ele>919.0</ele><time>2026-04-03T14:16:33.999Z</time></trkpt><trkpt lat="44.95080310197234" lon="4.396095812003652"><ele>916.0</ele><time>2026-04-03T14:16:34.999Z</time></trkpt><trkpt lat="44.95088147570174" lon="4.396053407720506"><ele>912.9999999999999</ele><time>2026-04-03T14:16:35.999Z</time></trkpt><trkpt lat="44.950958144430615" lon="4.396004450278921"><ele>910.0</ele><time>2026-04-03T14:16:36.999Z</time></trkpt><trkpt lat="44.951026065753936" lon="4.395965205256059"><ele>909.9999999999999</ele><time>2026-04-03T14:16:37.999Z</time></trkpt><trkpt lat="44.9510908090008" lon="4.395933886152771"><ele>910.0</ele><time>2026-04-03T14:16:38.999Z</time></trkpt><trkpt lat="44.95115197536902" lon="4.395890288705932"><ele>910.0</ele><time>2026-04-03T14:16:39.999Z</time></trkpt><trkpt lat="44.951259822271645" lon="4.395800400042297"><ele>910.0</ele><time>2026-04-03T14:16:41.999Z</time></trkpt><trkpt lat="44.95132861196598" lon="4.395761034263864"><ele>909.9999999999999</ele><time>2026-04-03T14:16:42.999Z</time></trkpt><trkpt lat="44.9514279137866" lon="4.395728882000866"><ele>910.0</ele><time>2026-04-03T14:16:44.999Z</time></trkpt><trkpt lat="44.9515049925827" lon="4.395714111712314"><ele>909.9999999999999</ele><time>2026-04-03T14:16:46.999Z</time></trkpt><trkpt lat="44.951469164240244" lon="4.3956286269219325"><ele>910.0</ele><time>2026-04-03T14:16:48.999Z</time></trkpt><trkpt lat="44.95135013508125" lon="4.395642254377336"><ele>910.0</ele><time>2026-04-03T14:16:50.999Z</time></trkpt><trkpt lat="44.951277780893676" lon="4.395666408202693"><ele>910.0</ele><time>2026-04-03T14:16:51.999Z</time></trkpt><trkpt lat="44.95119089322237" lon="4.3956866893414945"><ele>909.9999999999999</ele><time>2026-04-03T14:16:52.999Z</time></trkpt><trkpt lat="44.95111356069611" lon="4.395707330332542"><ele>910.0</ele><time>2026-04-03T14:16:53.999Z</time></trkpt><trkpt lat="44.951041440158086" lon="4.395747019179512"><ele>910.0</ele><time>2026-04-03T14:16:54.999Z</time></trkpt><trkpt lat="44.95094538980454" lon="4.395773727476038"><ele>910.0</ele><time>2026-04-03T14:16:55.999Z</time></trkpt><trkpt lat="44.950844699372325" lon="4.3957991863898656"><ele>910.0</ele><time>2026-04-03T14:16:56.999Z</time></trkpt><trkpt lat="44.95074824053067" lon="4.3958268641677245"><ele>910.0</ele><time>2026-04-03T14:16:57.999Z</time></trkpt><trkpt lat="44.950650116633255" lon="4.3958495195839475"><ele>910.0</ele><time>2026-04-03T14:16:58.999Z</time></trkpt><trkpt lat="44.95056588973542" lon="4.395864045447061"><ele>908.4999999999999</ele><time>2026-04-03T14:16:59.999Z</time></trkpt><trkpt lat="44.95049011236042" lon="4.395883156983832"><ele>907.0</ele><time>2026-04-03T14:17:00.999Z</time></trkpt><trkpt lat="44.95038716548904" lon="4.395928464375544"><ele>905.5</ele><time>2026-04-03T14:17:02.999Z</time></trkpt><trkpt lat="44.950341387823684" lon="4.395858451170187"><ele>904.0</ele><time>2026-04-03T14:17:05.999Z</time></trkpt><trkpt lat="44.95044701070118" lon="4.395790661170029"><ele>902.4999999999999</ele><time>2026-04-03T14:17:07.999Z</time></trkpt><trkpt lat="44.95052449279321" lon="4.395757567287798"><ele>901.0</ele><time>2026-04-03T14:17:08.999Z</time></trkpt><trkpt lat="44.950593056420146" lon="4.3957256976537575"><ele>900.9999999999999</ele><time>2026-04-03T14:17:09.999Z</time></trkpt><trkpt lat="44.9506670800878" lon="4.395689329929888"><ele>901.0</ele><time>2026-04-03T14:17:10.999Z</time></trkpt><trkpt lat="44.95074331700811" lon="4.395662063354378"><ele>901.0</ele><time>2026-04-03T14:17:11.999Z</time></trkpt><trkpt lat="44.950814911682585" lon="4.395632564561473"><ele>901.0</ele><time>2026-04-03T14:17:12.999Z</time></trkpt><trkpt lat="44.95088987176728" lon="4.395589386287849"><ele>900.9999999999999</ele><time>2026-04-03T14:17:13.999Z</time></trkpt><trkpt lat="44.95096156375321" lon="4.395528461316154"><ele>901.0</ele><time>2026-04-03T14:17:14.999Z</time></trkpt><trkpt lat="44.951033642593664" lon="4.39545199682231"><ele>898.3333333333333</ele><time>2026-04-03T14:17:15.999Z</time></trkpt><trkpt lat="44.951094439120524" lon="4.395373753285944"><ele>895.6666666666666</ele><time>2026-04-03T14:17:16.999Z</time></trkpt><trkpt lat="44.95116056308308" lon="4.395303439932915"><ele>893.0</ele><time>2026-04-03T14:17:17.999Z</time></trkpt><trkpt lat="44.95123042815992" lon="4.395233225155842"><ele>890.3333333333333</ele><time>2026-04-03T14:17:19Z</time></trkpt><trkpt lat="44.951314951135906" lon="4.395156800639902"><ele>887.6666666666666</ele><time>2026-04-03T14:17:20Z</time></trkpt><trkpt lat="44.95137185002667" lon="4.395112251770788"><ele>885.0</ele><time>2026-04-03T14:17:21Z</time></trkpt><trkpt lat="44.951472379411584" lon="4.395056995093535"><ele>885.0</ele><time>2026-04-03T14:17:23Z</time></trkpt><trkpt lat="44.9515725972123" lon="4.395073614874426"><ele>885.0</ele><time>2026-04-03T14:17:25Z</time></trkpt><trkpt lat="44.951586464048624" lon="4.394969005080179"><ele>885.0</ele><time>2026-04-03T14:17:27Z</time></trkpt><trkpt lat="44.95148189185749" lon="4.394938226229087"><ele>885.0</ele><time>2026-04-03T14:17:29Z</time></trkpt><trkpt lat="44.95141501333607" lon="4.39495804989268"><ele>885.0</ele><time>2026-04-03T14:17:30Z</time></trkpt><trkpt lat="44.95134580581283" lon="4.394991074026778"><ele>885.0</ele><time>2026-04-03T14:17:31Z</time></trkpt><trkpt lat="44.95128228482595" lon="4.395030213544035"><ele>885.0</ele><time>2026-04-03T14:17:32Z</time></trkpt><trkpt lat="44.95121500488797" lon="4.395083165821858"><ele>885.0</ele><time>2026-04-03T14:17:33Z</time></trkpt><trkpt lat="44.95114207802221" lon="4.3951325160194035"><ele>885.0</ele><time>2026-04-03T14:17:34Z</time></trkpt><trkpt lat="44.95106800074787" lon="4.395163395808552"><ele>885.0</ele><time>2026-04-03T14:17:35Z</time></trkpt><trkpt lat="44.9509927820741" lon="4.395212883686875"><ele>885.0</ele><time>2026-04-03T14:17:36Z</time></trkpt><trkpt lat="44.950916229921724" lon="4.395249105724072"><ele>885.0</ele><time>2026-04-03T14:17:37Z</time></trkpt><trkpt lat="44.95084604773268" lon="4.395286941694029"><ele>882.5</ele><time>2026-04-03T14:17:38Z</time></trkpt><trkpt lat="44.9507761992145" lon="4.39532619584906"><ele>880.0</ele><time>2026-04-03T14:17:39Z</time></trkpt><trkpt lat="44.95068858449916" lon="4.395344286150913"><ele>877.5</ele><time>2026-04-03T14:17:40Z</time></trkpt><trkpt lat="44.95061039841573" lon="4.395341915961121"><ele>875.0</ele><time>2026-04-03T14:17:41Z</time></trkpt><trkpt lat="44.95052744647067" lon="4.395351616189988"><ele>872.5</ele><time>2026-04-03T14:17:42Z</time></trkpt><trkpt lat="44.950448194827615" lon="4.395349091336209"><ele>870.0</ele><time>2026-04-03T14:17:43Z</time></trkpt><trkpt lat="44.950367932749515" lon="4.3953798889302504"><ele>870.0</ele><time>2026-04-03T14:17:44Z</time></trkpt><trkpt lat="44.95028860933689" lon="4.3954005539274235"><ele>870.0</ele><time>2026-04-03T14:17:45Z</time></trkpt><trkpt lat="44.9502185258578" lon="4.395426631123361"><ele>870.0</ele><time>2026-04-03T14:17:46Z</time></trkpt><trkpt lat="44.95015250760171" lon="4.395457151364565"><ele>870.0</ele><time>2026-04-03T14:17:47Z</time></trkpt><trkpt lat="44.95005385724159" lon="4.395523121876472"><ele>870.0</ele><time>2026-04-03T14:17:49Z</time></trkpt><trkpt lat="44.94997818241666" lon="4.3955524675496935"><ele>870.0</ele><time>2026-04-03T14:17:51Z</time></trkpt><trkpt lat="44.950005938305466" lon="4.395421341195454"><ele>870.0</ele><time>2026-04-03T14:17:53Z</time></trkpt><trkpt lat="44.95012277377262" lon="4.395347602405865"><ele>870.0</ele><time>2026-04-03T14:17:55Z</time></trkpt><trkpt lat="44.95018382974213" lon="4.395287278123141"><ele>870.0</ele><time>2026-04-03T14:17:56Z</time></trkpt><trkpt lat="44.950242369853534" lon="4.395232712010525"><ele>870.0</ele><time>2026-04-03T14:17:57Z</time></trkpt><trkpt lat="44.950298102332994" lon="4.395188410278981"><ele>870.0</ele><time>2026-04-03T14:17:58Z</time></trkpt><trkpt lat="44.950355456183615" lon="4.395144711641541"><ele>870.0</ele><time>2026-04-03T14:17:59Z</time></trkpt><trkpt lat="44.950411584040005" lon="4.395096554858415"><ele>870.0</ele><time>2026-04-03T14:18:00Z</time></trkpt><trkpt lat="44.95047071469439" lon="4.3950515951801545"><ele>870.0</ele><time>2026-04-03T14:18:01Z</time></trkpt><trkpt lat="44.950528617209976" lon="4.3950127464555875"><ele>870.0</ele><time>2026-04-03T14:18:02Z</time></trkpt><trkpt lat="44.9506362186964" lon="4.394976886560534"><ele>870.0</ele><time>2026-04-03T14:18:04Z</time></trkpt><trkpt lat="44.95073939851788" lon="4.394913421713926"><ele>870.0</ele><time>2026-04-03T14:18:06Z</time></trkpt><trkpt lat="44.9507979945894" lon="4.394853961303043"><ele>870.0</ele><time>2026-04-03T14:18:07Z</time></trkpt><trkpt lat="44.950831512831776" lon="4.394767957389041"><ele>870.0000000000001</ele><time>2026-04-03T14:18:08Z</time></trkpt><trkpt lat="44.950862571054856" lon="4.394683051315916"><ele>870.0</ele><time>2026-04-03T14:18:09Z</time></trkpt><trkpt lat="44.95089536037116" lon="4.394595444329016"><ele>870.0</ele><time>2026-04-03T14:18:10Z</time></trkpt><trkpt lat="44.95093389146707" lon="4.3945043533911825"><ele>870.0</ele><time>2026-04-03T14:18:11Z</time></trkpt><trkpt lat="44.950982289040354" lon="4.394420489704336"><ele>870.0</ele><time>2026-04-03T14:18:12Z</time></trkpt><trkpt lat="44.95102391513227" lon="4.394336625779569"><ele>870.0000000000001</ele><time>2026-04-03T14:18:13Z</time></trkpt><trkpt lat="44.951064645668" lon="4.3942420767570525"><ele>870.0</ele><time>2026-04-03T14:18:14Z</time></trkpt><trkpt lat="44.95110373285615" lon="4.394150753035472"><ele>867.4</ele><time>2026-04-03T14:18:15Z</time></trkpt><trkpt lat="44.95114064001749" lon="4.394049489071981"><ele>864.8</ele><time>2026-04-03T14:18:16Z</time></trkpt><trkpt lat="44.951170465333384" lon="4.393961695111025"><ele>862.2</ele><time>2026-04-03T14:18:17Z</time></trkpt><trkpt lat="44.95120357338263" lon="4.393808960916254"><ele>859.6</ele><time>2026-04-03T14:18:19Z</time></trkpt><trkpt lat="44.95110851877718" lon="4.39363672807282"><ele>857.0</ele><time>2026-04-03T14:18:20Z</time></trkpt><trkpt lat="44.951137869035186" lon="4.393551601032949"><ele>853.4000000000001</ele><time>2026-04-03T14:18:21Z</time></trkpt><trkpt lat="44.95118428643044" lon="4.393405561675624"><ele>849.8000000000001</ele><time>2026-04-03T14:18:23Z</time></trkpt><trkpt lat="44.95122828368648" lon="4.393244701361644"><ele>846.2</ele><time>2026-04-03T14:18:25Z</time></trkpt><trkpt lat="44.95126119912783" lon="4.393099789276915"><ele>842.6</ele><time>2026-04-03T14:18:27Z</time></trkpt><trkpt lat="44.95127891306657" lon="4.3929750323864"><ele>839.0</ele><time>2026-04-03T14:18:29Z</time></trkpt><trkpt lat="44.95132889437133" lon="4.3928606501412695"><ele>836.1666666666667</ele><time>2026-04-03T14:18:31Z</time></trkpt><trkpt lat="44.951301850772424" lon="4.392760560902576"><ele>833.3333333333334</ele><time>2026-04-03T14:18:33Z</time></trkpt><trkpt lat="44.95128000947964" lon="4.392659228666727"><ele>830.5</ele><time>2026-04-03T14:20:20Z</time></trkpt><trkpt lat="44.95123622893489" lon="4.39256055231638"><ele>827.6666666666667</ele><time>2026-04-03T14:20:22Z</time></trkpt><trkpt lat="44.95120485550529" lon="4.392471689998529"><ele>824.8333333333334</ele><time>2026-04-03T14:20:23Z</time></trkpt><trkpt lat="44.951147271992085" lon="4.392364313167804"><ele>822.0</ele><time>2026-04-03T14:20:24Z</time></trkpt><trkpt lat="44.95108493423283" lon="4.392262896657247"><ele>820.8333333333334</ele><time>2026-04-03T14:20:25Z</time></trkpt><trkpt lat="44.95105268305466" lon="4.392155739719709"><ele>819.6666666666667</ele><time>2026-04-03T14:20:26Z</time></trkpt><trkpt lat="44.95100669230953" lon="4.392081933469949"><ele>818.5</ele><time>2026-04-03T14:20:27Z</time></trkpt><trkpt lat="44.950980968291404" lon="4.391979363982105"><ele>817.3333333333334</ele><time>2026-04-03T14:20:28Z</time></trkpt><trkpt lat="44.950963087980185" lon="4.391863663352653"><ele>816.1666666666667</ele><time>2026-04-03T14:20:29Z</time></trkpt><trkpt lat="44.95094877247924" lon="4.391745870183977"><ele>815.0</ele><time>2026-04-03T14:20:30Z</time></trkpt><trkpt lat="44.950920557322846" lon="4.39161466859119"><ele>815.0</ele><time>2026-04-03T14:20:31Z</time></trkpt><trkpt lat="44.950887316335475" lon="4.391484698097246"><ele>815.0</ele><time>2026-04-03T14:20:32Z</time></trkpt><trkpt lat="44.950860655038824" lon="4.391368834692825"><ele>815.0</ele><time>2026-04-03T14:20:33Z</time></trkpt><trkpt lat="44.9508279072848" lon="4.391246164476457"><ele>815.0</ele><time>2026-04-03T14:20:34Z</time></trkpt><trkpt lat="44.950804116706635" lon="4.391119149563053"><ele>815.0</ele><time>2026-04-03T14:20:35Z</time></trkpt><trkpt lat="44.95078296289093" lon="4.390996150556602"><ele>815.3333333333334</ele><time>2026-04-03T14:20:36Z</time></trkpt><trkpt lat="44.950761106641096" lon="4.390877696455041"><ele>815.6666666666667</ele><time>2026-04-03T14:20:37Z</time></trkpt><trkpt lat="44.950728532215685" lon="4.3907664346075626"><ele>816.0</ele><time>2026-04-03T14:20:38Z</time></trkpt><trkpt lat="44.95067259545956" lon="4.390671212115135"><ele>816.3333333333333</ele><time>2026-04-03T14:20:39Z</time></trkpt><trkpt lat="44.95060263050655" lon="4.390583661988473"><ele>816.6666666666666</ele><time>2026-04-03T14:20:40Z</time></trkpt><trkpt lat="44.950554194607804" lon="4.39047298150083"><ele>817.0</ele><time>2026-04-03T14:20:40.999Z</time></trkpt><trkpt lat="44.95049513614124" lon="4.390382637296458"><ele>817.0</ele><time>2026-04-03T14:20:41.999Z</time></trkpt><trkpt lat="44.950455154759304" lon="4.39025996972674"><ele>817.0</ele><time>2026-04-03T14:20:42.999Z</time></trkpt><trkpt lat="44.95039761685501" lon="4.390151692210735"><ele>817.0</ele><time>2026-04-03T14:20:43.999Z</time></trkpt><trkpt lat="44.950339930463294" lon="4.390042885695814"><ele>817.0</ele><time>2026-04-03T14:20:44.999Z</time></trkpt><trkpt lat="44.95027440202668" lon="4.389938166017576"><ele>817.0</ele><time>2026-04-03T14:20:45.999Z</time></trkpt><trkpt lat="44.95020388208361" lon="4.389827480784893"><ele>817.0</ele><time>2026-04-03T14:20:46.999Z</time></trkpt><trkpt lat="44.95014926585494" lon="4.389725578163992"><ele>817.0</ele><time>2026-04-03T14:20:47.999Z</time></trkpt><trkpt lat="44.95009005348089" lon="4.389619315129192"><ele>817.0</ele><time>2026-04-03T14:20:48.999Z</time></trkpt><trkpt lat="44.95002076396148" lon="4.389520213090519"><ele>817.0</ele><time>2026-04-03T14:20:49.999Z</time></trkpt><trkpt lat="44.94995000481344" lon="4.389431161591132"><ele>817.0</ele><time>2026-04-03T14:20:50.999Z</time></trkpt><trkpt lat="44.949876913847994" lon="4.38934469051564"><ele>817.2</ele><time>2026-04-03T14:20:51.999Z</time></trkpt><trkpt lat="44.94980451989426" lon="4.389253091877759"><ele>817.4000000000001</ele><time>2026-04-03T14:20:52.999Z</time></trkpt><trkpt lat="44.949732799885815" lon="4.389164823135966"><ele>817.5999999999999</ele><time>2026-04-03T14:20:53.999Z</time></trkpt><trkpt lat="44.949660749266485" lon="4.3890882639927895"><ele>817.8</ele><time>2026-04-03T14:20:54.999Z</time></trkpt><trkpt lat="44.94958391042745" lon="4.389019855094941"><ele>818.0</ele><time>2026-04-03T14:20:55.999Z</time></trkpt><trkpt lat="44.94950680033004" lon="4.388943107969834"><ele>818.0</ele><time>2026-04-03T14:20:56.999Z</time></trkpt><trkpt lat="44.94942313188522" lon="4.388870651419631"><ele>818.0</ele><time>2026-04-03T14:20:57.999Z</time></trkpt><trkpt lat="44.94935246713657" lon="4.388796358445908"><ele>818.0</ele><time>2026-04-03T14:20:58.999Z</time></trkpt><trkpt lat="44.94928085776966" lon="4.388722822713301"><ele>818.0</ele><time>2026-04-03T14:20:59.999Z</time></trkpt><trkpt lat="44.94920455467312" lon="4.3886561981451315"><ele>818.0</ele><time>2026-04-03T14:21:00.999Z</time></trkpt><trkpt lat="44.94912489526876" lon="4.388587422425953"><ele>818.5000000000001</ele><time>2026-04-03T14:21:01.999Z</time></trkpt><trkpt lat="44.94906240163048" lon="4.388490361978379"><ele>819.0</ele><time>2026-04-03T14:21:02.999Z</time></trkpt><trkpt lat="44.948989769513645" lon="4.3884094566065475"><ele>819.5</ele><time>2026-04-03T14:21:03.999Z</time></trkpt><trkpt lat="44.94891044018327" lon="4.388348976715174"><ele>820.0</ele><time>2026-04-03T14:21:04.999Z</time></trkpt><trkpt lat="44.94885517624475" lon="4.388247221175444"><ele>820.5000000000001</ele><time>2026-04-03T14:21:05.999Z</time></trkpt><trkpt lat="44.94878533086787" lon="4.388183394006326"><ele>821.0</ele><time>2026-04-03T14:21:06.999Z</time></trkpt><trkpt lat="44.94871193817367" lon="4.3881163623353805"><ele>821.0</ele><time>2026-04-03T14:21:07.999Z</time></trkpt><trkpt lat="44.94863118509366" lon="4.388072445809213"><ele>821.0</ele><time>2026-04-03T14:21:08.999Z</time></trkpt><trkpt lat="44.94854431456366" lon="4.388028489321455"><ele>821.0</ele><time>2026-04-03T14:21:09.999Z</time></trkpt><trkpt lat="44.948464317640095" lon="4.387992495798331"><ele>821.0</ele><time>2026-04-03T14:21:10.999Z</time></trkpt><trkpt lat="44.94837492868716" lon="4.387946576879149"><ele>821.0</ele><time>2026-04-03T14:21:11.999Z</time></trkpt><trkpt lat="44.94828684234501" lon="4.387900461045343"><ele>821.0</ele><time>2026-04-03T14:21:12.999Z</time></trkpt><trkpt lat="44.94820051279216" lon="4.387851452729426"><ele>821.0</ele><time>2026-04-03T14:21:13.999Z</time></trkpt><trkpt lat="44.94812502500143" lon="4.387778233524432"><ele>821.0</ele><time>2026-04-03T14:21:14.999Z</time></trkpt><trkpt lat="44.94803508319803" lon="4.387747309860522"><ele>821.0</ele><time>2026-04-03T14:21:15.999Z</time></trkpt><trkpt lat="44.94794284666766" lon="4.387734002035059"><ele>821.0</ele><time>2026-04-03T14:21:16.999Z</time></trkpt><trkpt lat="44.947855706754595" lon="4.3877250482323085"><ele>821.0000000000001</ele><time>2026-04-03T14:21:17.999Z</time></trkpt><trkpt lat="44.9477703354392" lon="4.387710001439571"><ele>821.0</ele><time>2026-04-03T14:21:18.999Z</time></trkpt><trkpt lat="44.947685707263375" lon="4.387686519308345"><ele>821.0</ele><time>2026-04-03T14:21:19.999Z</time></trkpt><trkpt lat="44.947601412660795" lon="4.38765467695151"><ele>821.0</ele><time>2026-04-03T14:21:20.999Z</time></trkpt><trkpt lat="44.94751491615334" lon="4.38761936626173"><ele>821.0000000000001</ele><time>2026-04-03T14:21:21.999Z</time></trkpt><trkpt lat="44.94743135301877" lon="4.387577267141288"><ele>821.0</ele><time>2026-04-03T14:21:22.999Z</time></trkpt><trkpt lat="44.94734509976907" lon="4.387534529961112"><ele>820.1999999999999</ele><time>2026-04-03T14:21:23.999Z</time></trkpt><trkpt lat="44.947254487230744" lon="4.3874966873712395"><ele>819.4</ele><time>2026-04-03T14:21:24.999Z</time></trkpt><trkpt lat="44.94715874652316" lon="4.387469297686922"><ele>818.6</ele><time>2026-04-03T14:21:25.999Z</time></trkpt><trkpt lat="44.94706654116254" lon="4.387462379960699"><ele>817.8</ele><time>2026-04-03T14:21:26.999Z</time></trkpt><trkpt lat="44.94697616597894" lon="4.387454617950307"><ele>817.0</ele><time>2026-04-03T14:21:27.999Z</time></trkpt><trkpt lat="44.94689381466939" lon="4.387452759990866"><ele>816.9999999999999</ele><time>2026-04-03T14:21:28.999Z</time></trkpt><trkpt lat="44.94682297912384" lon="4.3874630779819075"><ele>817.0</ele><time>2026-04-03T14:21:29.999Z</time></trkpt><trkpt lat="44.94672999348217" lon="4.387516037298406"><ele>817.0</ele><time>2026-04-03T14:21:31Z</time></trkpt><trkpt lat="44.946650210565814" lon="4.387523330098806"><ele>817.0</ele><time>2026-04-03T14:21:32Z</time></trkpt><trkpt lat="44.94657675835217" lon="4.387503162463709"><ele>816.9999999999999</ele><time>2026-04-03T14:21:33Z</time></trkpt><trkpt lat="44.94650164756449" lon="4.387485885694638"><ele>817.0</ele><time>2026-04-03T14:21:34Z</time></trkpt><trkpt lat="44.94643999564369" lon="4.387420835032285"><ele>816.1428571428571</ele><time>2026-04-03T14:21:35Z</time></trkpt><trkpt lat="44.94640897114428" lon="4.387340234246393"><ele>815.2857142857142</ele><time>2026-04-03T14:21:36Z</time></trkpt><trkpt lat="44.9463897813746" lon="4.387249489465924"><ele>814.4285714285713</ele><time>2026-04-03T14:21:37Z</time></trkpt><trkpt lat="44.94639632328085" lon="4.387129620164752"><ele>813.5714285714286</ele><time>2026-04-03T14:21:38Z</time></trkpt><trkpt lat="44.94638148397655" lon="4.387035938735271"><ele>812.7142857142858</ele><time>2026-04-03T14:21:39Z</time></trkpt><trkpt lat="44.94637215114015" lon="4.386922852387696"><ele>811.8571428571428</ele><time>2026-04-03T14:21:40Z</time></trkpt><trkpt lat="44.94636204127462" lon="4.386814497636071"><ele>811.0</ele><time>2026-04-03T14:21:41Z</time></trkpt><trkpt lat="44.94636650148247" lon="4.386696674216574"><ele>810.9999999999999</ele><time>2026-04-03T14:21:42Z</time></trkpt><trkpt lat="44.946358019843366" lon="4.386581847732858"><ele>811.0</ele><time>2026-04-03T14:21:43Z</time></trkpt><trkpt lat="44.9463410720692" lon="4.386469988001491"><ele>811.0</ele><time>2026-04-03T14:21:44Z</time></trkpt><trkpt lat="44.946337396591794" lon="4.386339094149714"><ele>811.0</ele><time>2026-04-03T14:21:45Z</time></trkpt><trkpt lat="44.946335891167685" lon="4.3862062605067225"><ele>810.9999999999999</ele><time>2026-04-03T14:21:46Z</time></trkpt><trkpt lat="44.94634650834734" lon="4.386072545642945"><ele>811.0</ele><time>2026-04-03T14:21:47Z</time></trkpt><trkpt lat="44.94633846586616" lon="4.385946826197431"><ele>812.1999999999999</ele><time>2026-04-03T14:21:48Z</time></trkpt><trkpt lat="44.94633821540762" lon="4.385819330329284"><ele>813.4</ele><time>2026-04-03T14:21:49Z</time></trkpt><trkpt lat="44.9463229699608" lon="4.385685697243773"><ele>814.6</ele><time>2026-04-03T14:21:50Z</time></trkpt><trkpt lat="44.946316732424876" lon="4.385554768934323"><ele>815.8</ele><time>2026-04-03T14:21:51Z</time></trkpt><trkpt lat="44.94630907007722" lon="4.3854253788285105"><ele>817.0</ele><time>2026-04-03T14:21:52Z</time></trkpt><trkpt lat="44.946283979656705" lon="4.3853004268371425"><ele>816.9999999999999</ele><time>2026-04-03T14:21:53Z</time></trkpt><trkpt lat="44.94624399371838" lon="4.385189395497395"><ele>817.0</ele><time>2026-04-03T14:21:54Z</time></trkpt><trkpt lat="44.946200767838505" lon="4.385078265118202"><ele>817.0</ele><time>2026-04-03T14:21:55Z</time></trkpt><trkpt lat="44.94615425913781" lon="4.384951634523049"><ele>817.0</ele><time>2026-04-03T14:21:56Z</time></trkpt><trkpt lat="44.94611945709516" lon="4.384858470678836"><ele>816.9999999999999</ele><time>2026-04-03T14:21:57Z</time></trkpt><trkpt lat="44.94608728842834" lon="4.384764928534416"><ele>817.0</ele><time>2026-04-03T14:21:58Z</time></trkpt><trkpt lat="44.94603721711319" lon="4.384635990481325"><ele>815.9999999999999</ele><time>2026-04-03T14:21:59Z</time></trkpt><trkpt lat="44.945998767403665" lon="4.384527214604671"><ele>815.0</ele><time>2026-04-03T14:22:00Z</time></trkpt><trkpt lat="44.94599761626029" lon="4.384403489288405"><ele>814.0</ele><time>2026-04-03T14:22:01Z</time></trkpt><trkpt lat="44.945972646578454" lon="4.384284191619901"><ele>813.0</ele><time>2026-04-03T14:22:02Z</time></trkpt><trkpt lat="44.94592776148468" lon="4.3841826295701924"><ele>811.9999999999999</ele><time>2026-04-03T14:22:03Z</time></trkpt><trkpt lat="44.94589920444312" lon="4.3840740745026325"><ele>811.0</ele><time>2026-04-03T14:22:04Z</time></trkpt><trkpt lat="44.945812095388" lon="4.3840628156640555"><ele>806.5999999999999</ele><time>2026-04-03T14:22:05Z</time></trkpt><trkpt lat="44.9457453400472" lon="4.383980746514645"><ele>802.2</ele><time>2026-04-03T14:22:06Z</time></trkpt><trkpt lat="44.94568724130358" lon="4.3839000987237595"><ele>797.8</ele><time>2026-04-03T14:22:07Z</time></trkpt><trkpt lat="44.94563828153754" lon="4.383826503466314"><ele>793.4000000000001</ele><time>2026-04-03T14:22:08Z</time></trkpt><trkpt lat="44.94559388143489" lon="4.383755004488858"><ele>789.0</ele><time>2026-04-03T14:22:09Z</time></trkpt><trkpt lat="44.94573788217602" lon="4.383368727531975"><ele>789.0</ele><time>2026-04-03T14:22:10Z</time></trkpt><trkpt lat="44.94571539614865" lon="4.38326444128407"><ele>789.0</ele><time>2026-04-03T14:22:11Z</time></trkpt><trkpt lat="44.94568280901912" lon="4.383157997257787"><ele>789.0</ele><time>2026-04-03T14:22:12Z</time></trkpt><trkpt lat="44.94566008962124" lon="4.383043811407454"><ele>789.0</ele><time>2026-04-03T14:22:13Z</time></trkpt><trkpt lat="44.945631274452616" lon="4.382928748859047"><ele>789.0</ele><time>2026-04-03T14:22:14Z</time></trkpt><trkpt lat="44.945610909657105" lon="4.382829287942532"><ele>789.0</ele><time>2026-04-03T14:22:15Z</time></trkpt><trkpt lat="44.94558814885905" lon="4.38274561180238"><ele>790.6</ele><time>2026-04-03T14:22:16Z</time></trkpt><trkpt lat="44.94549104645802" lon="4.382606696811732"><ele>792.2</ele><time>2026-04-03T14:22:18Z</time></trkpt><trkpt lat="44.94544231609656" lon="4.3825408846373435"><ele>793.8000000000001</ele><time>2026-04-03T14:22:19Z</time></trkpt><trkpt lat="44.945391821209334" lon="4.382446211083316"><ele>795.4000000000001</ele><time>2026-04-03T14:22:20Z</time></trkpt><trkpt lat="44.945336192353786" lon="4.38233692744807"><ele>797.0</ele><time>2026-04-03T14:22:21Z</time></trkpt><trkpt lat="44.94526896177321" lon="4.382185171865084"><ele>798.2</ele><time>2026-04-03T14:22:22Z</time></trkpt><trkpt lat="44.9452066078804" lon="4.382021255834982"><ele>799.4000000000001</ele><time>2026-04-03T14:22:23Z</time></trkpt><trkpt lat="44.94515858869618" lon="4.381877095559207"><ele>800.5999999999999</ele><time>2026-04-03T14:22:24Z</time></trkpt><trkpt lat="44.9451015715752" lon="4.38175028884206"><ele>801.8</ele><time>2026-04-03T14:22:25Z</time></trkpt><trkpt lat="44.945056960662825" lon="4.381649069832801"><ele>803.0</ele><time>2026-04-03T14:22:26Z</time></trkpt><trkpt lat="44.94501492029922" lon="4.3815653972686155"><ele>800.1666666666667</ele><time>2026-04-03T14:22:27Z</time></trkpt><trkpt lat="44.944977080182106" lon="4.381474656051707"><ele>797.3333333333334</ele><time>2026-04-03T14:22:28Z</time></trkpt><trkpt lat="44.944937448593585" lon="4.381387000212072"><ele>794.5</ele><time>2026-04-03T14:22:29Z</time></trkpt><trkpt lat="44.94489059953822" lon="4.3813073250714565"><ele>791.6666666666667</ele><time>2026-04-03T14:22:30Z</time></trkpt><trkpt lat="44.944838344029606" lon="4.381226456311193"><ele>788.8333333333334</ele><time>2026-04-03T14:22:31Z</time></trkpt><trkpt lat="44.94478112170597" lon="4.3811419407107195"><ele>786.0</ele><time>2026-04-03T14:22:32Z</time></trkpt><trkpt lat="44.94471890536485" lon="4.38103873126224"><ele>786.0</ele><time>2026-04-03T14:22:33Z</time></trkpt><trkpt lat="44.9446668170149" lon="4.380930863323523"><ele>786.0</ele><time>2026-04-03T14:22:34Z</time></trkpt><trkpt lat="44.944606437434416" lon="4.380863078912621"><ele>786.0</ele><time>2026-04-03T14:22:35Z</time></trkpt><trkpt lat="44.94452375959319" lon="4.380764779370461"><ele>786.0</ele><time>2026-04-03T14:22:37Z</time></trkpt><trkpt lat="44.94446723323388" lon="4.380723674129863"><ele>786.0</ele><time>2026-04-03T14:22:38Z</time></trkpt><trkpt lat="44.94441593052691" lon="4.380663966806857"><ele>786.0</ele><time>2026-04-03T14:22:39Z</time></trkpt><trkpt lat="44.94436651053117" lon="4.38057906058443"><ele>786.1666666666666</ele><time>2026-04-03T14:22:40Z</time></trkpt><trkpt lat="44.94430650885152" lon="4.380491446746494"><ele>786.3333333333333</ele><time>2026-04-03T14:22:41Z</time></trkpt><trkpt lat="44.94425631746718" lon="4.380400500380882"><ele>786.5</ele><time>2026-04-03T14:22:42Z</time></trkpt><trkpt lat="44.944200022226674" lon="4.380330711122501"><ele>786.6666666666666</ele><time>2026-04-03T14:22:43Z</time></trkpt><trkpt lat="44.94408373431793" lon="4.380228836245181"><ele>786.8333333333333</ele><time>2026-04-03T14:22:44.999Z</time></trkpt><trkpt lat="44.94402328104868" lon="4.380198280811131"><ele>787.0</ele><time>2026-04-03T14:22:45.999Z</time></trkpt><trkpt lat="44.94394216997267" lon="4.380070559548005"><ele>784.1666666666666</ele><time>2026-04-03T14:22:47.999Z</time></trkpt><trkpt lat="44.943922913377385" lon="4.379980308040958"><ele>781.3333333333333</ele><time>2026-04-03T14:22:48.999Z</time></trkpt><trkpt lat="44.94388448698816" lon="4.379875425303625"><ele>778.5</ele><time>2026-04-03T14:22:49.999Z</time></trkpt><trkpt lat="44.94384689297838" lon="4.379794112519389"><ele>775.6666666666667</ele><time>2026-04-03T14:22:50.999Z</time></trkpt><trkpt lat="44.94380799803037" lon="4.37970537301314"><ele>772.8333333333334</ele><time>2026-04-03T14:22:51.999Z</time></trkpt><trkpt lat="44.9437708223627" lon="4.379578143248137"><ele>770.0</ele><time>2026-04-03T14:22:52.999Z</time></trkpt><trkpt lat="44.94376245484397" lon="4.37948945764726"><ele>770.0000000000001</ele><time>2026-04-03T14:22:53.999Z</time></trkpt><trkpt lat="44.94373346798959" lon="4.379403609084837"><ele>770.0</ele><time>2026-04-03T14:22:54.999Z</time></trkpt><trkpt lat="44.943712667190596" lon="4.3793045859690185"><ele>770.0</ele><time>2026-04-03T14:22:55.999Z</time></trkpt><trkpt lat="44.943691001756356" lon="4.379181749504139"><ele>770.0</ele><time>2026-04-03T14:22:56.999Z</time></trkpt><trkpt lat="44.943676644022936" lon="4.37909254361922"><ele>770.0000000000001</ele><time>2026-04-03T14:22:57.999Z</time></trkpt><trkpt lat="44.94368124498048" lon="4.378978394114779"><ele>770.0</ele><time>2026-04-03T14:22:58.999Z</time></trkpt><trkpt lat="44.94367465795499" lon="4.37885805455508"><ele>768.6</ele><time>2026-04-03T14:22:59.999Z</time></trkpt><trkpt lat="44.94367015403112" lon="4.378749465853376"><ele>767.2</ele><time>2026-04-03T14:23:00.999Z</time></trkpt><trkpt lat="44.94366336184368" lon="4.3786364985704145"><ele>765.8</ele><time>2026-04-03T14:23:01.999Z</time></trkpt><trkpt lat="44.94367837115209" lon="4.378420343134135"><ele>764.4</ele><time>2026-04-03T14:23:03.999Z</time></trkpt><trkpt lat="44.9436628642919" lon="4.3782962974833"><ele>763.0</ele><time>2026-04-03T14:23:04.999Z</time></trkpt><trkpt lat="44.94365893932656" lon="4.378192275336084"><ele>763.0</ele><time>2026-04-03T14:23:05.999Z</time></trkpt><trkpt lat="44.94366959584251" lon="4.3780863501123255"><ele>763.0</ele><time>2026-04-03T14:23:06.999Z</time></trkpt><trkpt lat="44.94367176604621" lon="4.377986593311186"><ele>763.0</ele><time>2026-04-03T14:23:07.999Z</time></trkpt><trkpt lat="44.94365844526264" lon="4.3778852268204025"><ele>763.0</ele><time>2026-04-03T14:23:08.999Z</time></trkpt><trkpt lat="44.943634793254425" lon="4.377783645014742"><ele>763.0</ele><time>2026-04-03T14:23:09.999Z</time></trkpt><trkpt lat="44.94361851235274" lon="4.377605004150012"><ele>763.0</ele><time>2026-04-03T14:23:11.999Z</time></trkpt><trkpt lat="44.94363015203308" lon="4.377500352145685"><ele>761.8</ele><time>2026-04-03T14:23:12.999Z</time></trkpt><trkpt lat="44.94362564984437" lon="4.377399091107455"><ele>760.5999999999999</ele><time>2026-04-03T14:23:13.999Z</time></trkpt><trkpt lat="44.94360940418745" lon="4.3773057613957995"><ele>759.4000000000001</ele><time>2026-04-03T14:23:14.999Z</time></trkpt><trkpt lat="44.94360343387595" lon="4.377139765156835"><ele>758.2</ele><time>2026-04-03T14:23:16.999Z</time></trkpt><trkpt lat="44.943656186787194" lon="4.376978297822065"><ele>757.0</ele><time>2026-04-03T14:23:18.999Z</time></trkpt><trkpt lat="44.943677535952176" lon="4.376880752271966"><ele>754.25</ele><time>2026-04-03T14:23:19.999Z</time></trkpt><trkpt lat="44.943709575398834" lon="4.376708417181318"><ele>751.5</ele><time>2026-04-03T14:23:21.999Z</time></trkpt><trkpt lat="44.94376697899625" lon="4.376555899816819"><ele>748.75</ele><time>2026-04-03T14:23:23.999Z</time></trkpt><trkpt lat="44.94384901374624" lon="4.376423206843926"><ele>746.0</ele><time>2026-04-03T14:23:25.999Z</time></trkpt><trkpt lat="44.943910353590134" lon="4.376333148106547"><ele>742.1999999999999</ele><time>2026-04-03T14:23:27.999Z</time></trkpt><trkpt lat="44.944022709705074" lon="4.376250176571852"><ele>738.4</ele><time>2026-04-03T14:23:29.999Z</time></trkpt><trkpt lat="44.94410680761132" lon="4.376141983989853"><ele>734.6</ele><time>2026-04-03T14:23:31.999Z</time></trkpt><trkpt lat="44.94416250066419" lon="4.376096596140571"><ele>730.8</ele><time>2026-04-03T14:23:32.999Z</time></trkpt><trkpt lat="44.94424506199783" lon="4.3759697403965445"><ele>727.0</ele><time>2026-04-03T14:23:34.999Z</time></trkpt><trkpt lat="44.94432015197764" lon="4.375833179268145"><ele>727.0</ele><time>2026-04-03T14:23:37Z</time></trkpt><trkpt lat="44.94442075523913" lon="4.375718521959001"><ele>727.0</ele><time>2026-04-03T14:23:39Z</time></trkpt><trkpt lat="44.9445412829905" lon="4.375637565440888"><ele>727.0</ele><time>2026-04-03T14:23:41Z</time></trkpt><trkpt lat="44.94460449582636" lon="4.375598571504265"><ele>727.0</ele><time>2026-04-03T14:23:42Z</time></trkpt><trkpt lat="44.94466501822143" lon="4.375551690799021"><ele>727.0</ele><time>2026-04-03T14:23:43Z</time></trkpt><trkpt lat="44.9447198064622" lon="4.375496224038877"><ele>724.8571428571428</ele><time>2026-04-03T14:23:44Z</time></trkpt><trkpt lat="44.94477292719094" lon="4.375440484460342"><ele>722.7142857142858</ele><time>2026-04-03T14:23:45Z</time></trkpt><trkpt lat="44.944817630900474" lon="4.375372108939576"><ele>720.5714285714286</ele><time>2026-04-03T14:23:46Z</time></trkpt><trkpt lat="44.94486741008354" lon="4.375304022705543"><ele>718.4285714285713</ele><time>2026-04-03T14:23:47Z</time></trkpt><trkpt lat="44.94491621733383" lon="4.375244935573008"><ele>716.2857142857142</ele><time>2026-04-03T14:23:48Z</time></trkpt><trkpt lat="44.944961250103695" lon="4.375178385770854"><ele>714.1428571428571</ele><time>2026-04-03T14:23:49Z</time></trkpt><trkpt lat="44.94504521877717" lon="4.3750628573961805"><ele>712.0</ele><time>2026-04-03T14:23:51Z</time></trkpt><trkpt lat="44.94512616825707" lon="4.375014815926284"><ele>710.1428571428571</ele><time>2026-04-03T14:23:53Z</time></trkpt><trkpt lat="44.9451956738872" lon="4.37499346279274"><ele>708.2857142857142</ele><time>2026-04-03T14:23:55Z</time></trkpt><trkpt lat="44.94525980619905" lon="4.374976199230059"><ele>706.4285714285713</ele><time>2026-04-03T14:24:31Z</time></trkpt><trkpt lat="44.94533953932599" lon="4.375011689543401"><ele>704.5714285714286</ele><time>2026-04-03T14:25:13.999Z</time></trkpt><trkpt lat="44.9453881459469" lon="4.374953610957887"><ele>702.7142857142858</ele><time>2026-04-03T14:25:16.999Z</time></trkpt><trkpt lat="44.94536239477944" lon="4.374849516086255"><ele>700.8571428571428</ele><time>2026-04-03T14:25:24.999Z</time></trkpt><trkpt lat="44.94533358135044" lon="4.3747535905643735"><ele>699.0</ele><time>2026-04-03T14:25:27.999Z</time></trkpt><trkpt lat="44.9453390124262" lon="4.3746556469292015"><ele>699.0</ele><time>2026-04-03T14:25:29.999Z</time></trkpt><trkpt lat="44.94528718948136" lon="4.374556118478732"><ele>699.0</ele><time>2026-04-03T14:25:32.999Z</time></trkpt><trkpt lat="44.94521585946848" lon="4.374522415431819"><ele>699.0</ele><time>2026-04-03T14:25:34.999Z</time></trkpt><trkpt lat="44.9451150499401" lon="4.374501040611818"><ele>699.0</ele><time>2026-04-03T14:25:36.999Z</time></trkpt><trkpt lat="44.94499256547463" lon="4.374496580424104"><ele>699.0</ele><time>2026-04-03T14:25:38.999Z</time></trkpt><trkpt lat="44.9449158440412" lon="4.374519131942033"><ele>699.0</ele><time>2026-04-03T14:25:39.999Z</time></trkpt><trkpt lat="44.94485207175283" lon="4.37455631704592"><ele>699.0</ele><time>2026-04-03T14:25:40.999Z</time></trkpt><trkpt lat="44.94478618831203" lon="4.374593822057249"><ele>699.0</ele><time>2026-04-03T14:25:41.999Z</time></trkpt><trkpt lat="44.944721788432304" lon="4.374634192054191"><ele>699.0</ele><time>2026-04-03T14:25:43Z</time></trkpt><trkpt lat="44.94466387123493" lon="4.374698057597137"><ele>699.0</ele><time>2026-04-03T14:25:44Z</time></trkpt><trkpt lat="44.94460048520762" lon="4.374755190036601"><ele>699.0</ele><time>2026-04-03T14:25:45Z</time></trkpt><trkpt lat="44.94453987712439" lon="4.374805184279272"><ele>699.0</ele><time>2026-04-03T14:25:46Z</time></trkpt><trkpt lat="44.9444673595464" lon="4.374853698265075"><ele>698.7142857142857</ele><time>2026-04-03T14:25:47Z</time></trkpt><trkpt lat="44.94439787595278" lon="4.374879962932842"><ele>698.4285714285714</ele><time>2026-04-03T14:25:48Z</time></trkpt><trkpt lat="44.94432346236704" lon="4.374905797853556"><ele>698.1428571428571</ele><time>2026-04-03T14:25:49Z</time></trkpt><trkpt lat="44.944260089402" lon="4.374939708453404"><ele>697.8571428571429</ele><time>2026-04-03T14:25:50Z</time></trkpt><trkpt lat="44.94419874631521" lon="4.374969857467808"><ele>697.5714285714286</ele><time>2026-04-03T14:25:51Z</time></trkpt><trkpt lat="44.94413114105002" lon="4.375000455453249"><ele>697.2857142857143</ele><time>2026-04-03T14:25:52Z</time></trkpt><trkpt lat="44.94406881265778" lon="4.375029549123627"><ele>697.0</ele><time>2026-04-03T14:25:53Z</time></trkpt><trkpt lat="44.94400739989256" lon="4.375053427978951"><ele>697.0</ele><time>2026-04-03T14:25:54Z</time></trkpt><trkpt lat="44.94390104698681" lon="4.375109998985224"><ele>697.0</ele><time>2026-04-03T14:25:56Z</time></trkpt><trkpt lat="44.94382380770145" lon="4.375128022646517"><ele>697.0</ele><time>2026-04-03T14:27:11.999Z</time></trkpt><trkpt lat="44.94375345262555" lon="4.375180102844049"><ele>697.0</ele><time>2026-04-03T14:27:15.999Z</time></trkpt><trkpt lat="44.943695602914026" lon="4.375271745517452"><ele>697.0</ele><time>2026-04-03T14:27:26.999Z</time></trkpt><trkpt lat="44.943602386084216" lon="4.375310989291386"><ele>697.0</ele><time>2026-04-03T14:27:28.999Z</time></trkpt><trkpt lat="44.94353943034335" lon="4.375322780649106"><ele>697.0</ele><time>2026-04-03T14:27:29.999Z</time></trkpt><trkpt lat="44.94342418309253" lon="4.375385114940371"><ele>697.0</ele><time>2026-04-03T14:27:31.999Z</time></trkpt><trkpt lat="44.943345370789565" lon="4.375426904042387"><ele>697.0</ele><time>2026-04-03T14:27:32.999Z</time></trkpt><trkpt lat="44.94327202080496" lon="4.37543959617597"><ele>697.0</ele><time>2026-04-03T14:27:33.999Z</time></trkpt><trkpt lat="44.94320823901499" lon="4.375442167435814"><ele>697.0</ele><time>2026-04-03T14:27:34.999Z</time></trkpt><trkpt lat="44.94308640489003" lon="4.375397896315876"><ele>692.8</ele><time>2026-04-03T14:27:36.999Z</time></trkpt><trkpt lat="44.94296320115938" lon="4.375409758969918"><ele>688.6</ele><time>2026-04-03T14:27:38.999Z</time></trkpt><trkpt lat="44.94285076916433" lon="4.375417429243474"><ele>684.4</ele><time>2026-04-03T14:27:40.999Z</time></trkpt><trkpt lat="44.94276291226029" lon="4.375333071778294"><ele>680.1999999999999</ele><time>2026-04-03T14:27:42.999Z</time></trkpt><trkpt lat="44.942685681349374" lon="4.375309489686213"><ele>676.0</ele><time>2026-04-03T14:27:44.999Z</time></trkpt><trkpt lat="44.94259934066708" lon="4.375276900627621"><ele>673.4</ele><time>2026-04-03T14:27:46.999Z</time></trkpt><trkpt lat="44.942503911680646" lon="4.375198655968804"><ele>670.8</ele><time>2026-04-03T14:27:49Z</time></trkpt><trkpt lat="44.9423974252882" lon="4.375187445180777"><ele>668.1999999999999</ele><time>2026-04-03T14:27:52Z</time></trkpt><trkpt lat="44.94229266988944" lon="4.375225721540575"><ele>665.5999999999999</ele><time>2026-04-03T14:27:54Z</time></trkpt><trkpt lat="44.94217859459208" lon="4.375248843966334"><ele>663.0</ele><time>2026-04-03T14:27:56Z</time></trkpt><trkpt lat="44.942115273028286" lon="4.375253412564959"><ele>663.0</ele><time>2026-04-03T14:27:57Z</time></trkpt><trkpt lat="44.94200019069628" lon="4.375258316768253"><ele>663.0</ele><time>2026-04-03T14:27:59Z</time></trkpt><trkpt lat="44.94193636425718" lon="4.375260665744889"><ele>663.0</ele><time>2026-04-03T14:28:00Z</time></trkpt><trkpt lat="44.941825082513276" lon="4.375216836555957"><ele>663.0</ele><time>2026-04-03T14:28:02Z</time></trkpt><trkpt lat="44.941716643458356" lon="4.375181400343579"><ele>663.0</ele><time>2026-04-03T14:28:04Z</time></trkpt><trkpt lat="44.94162913985392" lon="4.375188417669368"><ele>663.0</ele><time>2026-04-03T14:28:06Z</time></trkpt><trkpt lat="44.94155705592047" lon="4.375292357162227"><ele>663.0</ele><time>2026-04-03T14:28:08Z</time></trkpt><trkpt lat="44.94147832565452" lon="4.375378461451894"><ele>663.0</ele><time>2026-04-03T14:28:10Z</time></trkpt><trkpt lat="44.94145808245108" lon="4.375481126218736"><ele>663.0</ele><time>2026-04-03T14:28:13Z</time></trkpt><trkpt lat="44.941417535024776" lon="4.375649901187036"><ele>663.0</ele><time>2026-04-03T14:28:14Z</time></trkpt><trkpt lat="44.94140074361809" lon="4.3757928956841585"><ele>663.0</ele><time>2026-04-03T14:28:16Z</time></trkpt><trkpt lat="44.941419362018515" lon="4.375932752556968"><ele>663.0</ele><time>2026-04-03T14:28:18Z</time></trkpt><trkpt lat="44.9414351947358" lon="4.376024418624898"><ele>663.0</ele><time>2026-04-03T14:28:19Z</time></trkpt><trkpt lat="44.94147204433986" lon="4.376155835438456"><ele>663.0</ele><time>2026-04-03T14:28:21Z</time></trkpt><trkpt lat="44.941527526259804" lon="4.376290445797062"><ele>663.0</ele><time>2026-04-03T14:28:23Z</time></trkpt><trkpt lat="44.94160279772513" lon="4.376425291513647"><ele>660.8</ele><time>2026-04-03T14:28:25Z</time></trkpt><trkpt lat="44.94167377373057" lon="4.3765667028399085"><ele>658.5999999999999</ele><time>2026-04-03T14:28:27Z</time></trkpt><trkpt lat="44.94173057207251" lon="4.3766931886811085"><ele>656.4000000000001</ele><time>2026-04-03T14:28:29Z</time></trkpt><trkpt lat="44.9417512494931" lon="4.376786113538719"><ele>654.2</ele><time>2026-04-03T14:28:30Z</time></trkpt><trkpt lat="44.94181483100202" lon="4.376912165476329"><ele>652.0</ele><time>2026-04-03T14:28:32Z</time></trkpt><trkpt lat="44.94185884402976" lon="4.3770554296976725"><ele>657.3333333333334</ele><time>2026-04-03T14:28:34Z</time></trkpt><trkpt lat="44.94187503439356" lon="4.3771897203614945"><ele>662.6666666666667</ele><time>2026-04-03T14:28:36Z</time></trkpt><trkpt lat="44.94190513013769" lon="4.377301627325418"><ele>668.0</ele><time>2026-04-03T14:28:38Z</time></trkpt><trkpt lat="44.94194899510692" lon="4.377366148923538"><ele>673.3333333333334</ele><time>2026-04-03T14:28:40Z</time></trkpt><trkpt lat="44.941950863029874" lon="4.377479469537686"><ele>678.6666666666666</ele><time>2026-04-03T14:28:43Z</time></trkpt><trkpt lat="44.94188388481797" lon="4.37743563073702"><ele>684.0</ele><time>2026-04-03T14:28:47Z</time></trkpt><trkpt lat="44.9418394443132" lon="4.377370991788189"><ele>684.0</ele><time>2026-04-03T14:28:50Z</time></trkpt><trkpt lat="44.94179382110118" lon="4.377299700295245"><ele>684.0</ele><time>2026-04-03T14:28:53Z</time></trkpt><trkpt lat="44.94176289260898" lon="4.377180397231625"><ele>684.0</ele><time>2026-04-03T14:28:56Z</time></trkpt><trkpt lat="44.9416931437068" lon="4.377082279371302"><ele>684.0</ele><time>2026-04-03T14:28:57Z</time></trkpt><trkpt lat="44.94162033544697" lon="4.377005673649551"><ele>684.0</ele><time>2026-04-03T14:28:58.999Z</time></trkpt><trkpt lat="44.94155834940278" lon="4.3769548447547795"><ele>684.0</ele><time>2026-04-03T14:29:00.999Z</time></trkpt><trkpt lat="44.94149608499342" lon="4.376910329004508"><ele>678.6666666666666</ele><time>2026-04-03T14:29:04.999Z</time></trkpt><trkpt lat="44.941419499362986" lon="4.376863298145293"><ele>673.3333333333334</ele><time>2026-04-03T14:29:06.999Z</time></trkpt><trkpt lat="44.941354090637276" lon="4.376821239585532"><ele>668.0</ele><time>2026-04-03T14:29:08.999Z</time></trkpt><trkpt lat="44.941290186173845" lon="4.376774190086436"><ele>662.6666666666667</ele><time>2026-04-03T14:29:10.999Z</time></trkpt><trkpt lat="44.941223882072876" lon="4.376747486926206"><ele>657.3333333333334</ele><time>2026-04-03T14:29:12.999Z</time></trkpt><trkpt lat="44.941155008741305" lon="4.376701425272063"><ele>652.0</ele><time>2026-04-03T14:29:14.999Z</time></trkpt><trkpt lat="44.941078152566675" lon="4.3766817279275045"><ele>652.0</ele><time>2026-04-03T14:29:15.999Z</time></trkpt><trkpt lat="44.9410084098443" lon="4.376611660493856"><ele>652.0</ele><time>2026-04-03T14:29:19.999Z</time></trkpt><trkpt lat="44.940944588187136" lon="4.376566196749736"><ele>652.0</ele><time>2026-04-03T14:29:21.999Z</time></trkpt><trkpt lat="44.94081474825934" lon="4.376474489524235"><ele>652.0</ele><time>2026-04-03T14:29:23.999Z</time></trkpt><trkpt lat="44.94073842812729" lon="4.376398184220906"><ele>652.0</ele><time>2026-04-03T14:29:25.999Z</time></trkpt><trkpt lat="44.94068884880857" lon="4.376304512356067"><ele>647.6</ele><time>2026-04-03T14:29:27.999Z</time></trkpt><trkpt lat="44.94062725954726" lon="4.3762126600737155"><ele>643.2</ele><time>2026-04-03T14:29:29.999Z</time></trkpt><trkpt lat="44.94053751198289" lon="4.376107001688917"><ele>638.8</ele><time>2026-04-03T14:29:31.999Z</time></trkpt><trkpt lat="44.940445923734664" lon="4.376001045887901"><ele>634.4</ele><time>2026-04-03T14:29:33.999Z</time></trkpt><trkpt lat="44.940366278339695" lon="4.375882324661341"><ele>630.0</ele><time>2026-04-03T14:29:35.999Z</time></trkpt><trkpt lat="44.94029397159536" lon="4.375740892475775"><ele>630.0</ele><time>2026-04-03T14:29:37.999Z</time></trkpt><trkpt lat="44.94022452150848" lon="4.375649461552932"><ele>630.0</ele><time>2026-04-03T14:29:39.999Z</time></trkpt><trkpt lat="44.9401742184864" lon="4.375582696668905"><ele>630.0</ele><time>2026-04-03T14:29:40.999Z</time></trkpt><trkpt lat="44.940123032905134" lon="4.37552490705821"><ele>630.0</ele><time>2026-04-03T14:29:41.999Z</time></trkpt><trkpt lat="44.93999743543251" lon="4.375515775744927"><ele>630.0</ele><time>2026-04-03T14:29:43.999Z</time></trkpt><trkpt lat="44.93993198222712" lon="4.375510394622296"><ele>630.0</ele><time>2026-04-03T14:29:44.999Z</time></trkpt><trkpt lat="44.939828836949616" lon="4.375496985244301"><ele>627.3333333333334</ele><time>2026-04-03T14:29:46.999Z</time></trkpt><trkpt lat="44.939750400263556" lon="4.375454828736407"><ele>624.6666666666666</ele><time>2026-04-03T14:29:48.999Z</time></trkpt><trkpt lat="44.93965260891158" lon="4.375416184618883"><ele>622.0</ele><time>2026-04-03T14:29:50.999Z</time></trkpt><trkpt lat="44.93960481727774" lon="4.375347858965051"><ele>619.3333333333333</ele><time>2026-04-03T14:29:53.999Z</time></trkpt><trkpt lat="44.93956489126549" lon="4.375276157473971"><ele>616.6666666666666</ele><time>2026-04-03T14:29:56Z</time></trkpt><trkpt lat="44.9395132811365" lon="4.375208507873592"><ele>614.0</ele><time>2026-04-03T14:29:58Z</time></trkpt><trkpt lat="44.93936716498206" lon="4.375007550719477"><ele>614.0</ele><time>2026-04-03T14:30:00Z</time></trkpt><trkpt lat="44.939310541665186" lon="4.374923241808278"><ele>614.0</ele><time>2026-04-03T14:30:02Z</time></trkpt><trkpt lat="44.939276681328096" lon="4.3748048660640135"><ele>614.0</ele><time>2026-04-03T14:30:04Z</time></trkpt><trkpt lat="44.93926339170862" lon="4.374684834989992"><ele>614.0</ele><time>2026-04-03T14:30:06Z</time></trkpt><trkpt lat="44.939228526076064" lon="4.374580935144893"><ele>614.0</ele><time>2026-04-03T14:30:08Z</time></trkpt><trkpt lat="44.93922764261442" lon="4.374448558239946"><ele>614.0</ele><time>2026-04-03T14:30:10Z</time></trkpt><trkpt lat="44.939190638424556" lon="4.374330841881232"><ele>609.0</ele><time>2026-04-03T14:30:12Z</time></trkpt><trkpt lat="44.93917537857769" lon="4.3742149596606374"><ele>604.0</ele><time>2026-04-03T14:30:14Z</time></trkpt><trkpt lat="44.939170956618455" lon="4.3740668256645145"><ele>599.0</ele><time>2026-04-03T14:30:17Z</time></trkpt><trkpt lat="44.93918094345416" lon="4.3739723245536934"><ele>594.0</ele><time>2026-04-03T14:30:18Z</time></trkpt><trkpt lat="44.93920418095381" lon="4.373839295311124"><ele>589.0</ele><time>2026-04-03T14:30:20Z</time></trkpt><trkpt lat="44.93923768960034" lon="4.373718911559597"><ele>584.0</ele><time>2026-04-03T14:30:22Z</time></trkpt><trkpt lat="44.93925688701275" lon="4.373595421571163"><ele>584.0</ele><time>2026-04-03T14:30:25Z</time></trkpt><trkpt lat="44.93929624108207" lon="4.3734715275114"><ele>584.0</ele><time>2026-04-03T14:30:27Z</time></trkpt><trkpt lat="44.939347051411325" lon="4.373372324220221"><ele>584.0</ele><time>2026-04-03T14:30:28Z</time></trkpt><trkpt lat="44.939365874997186" lon="4.37327836726862"><ele>584.0</ele><time>2026-04-03T14:30:30Z</time></trkpt><trkpt lat="44.93930749733011" lon="4.373220380118248"><ele>584.0</ele><time>2026-04-03T14:30:32Z</time></trkpt><trkpt lat="44.93925349033596" lon="4.373299097491907"><ele>584.0</ele><time>2026-04-03T14:30:34Z</time></trkpt><trkpt lat="44.93918178918708" lon="4.373274546582101"><ele>582.6666666666666</ele><time>2026-04-03T14:30:36Z</time></trkpt><trkpt lat="44.93910864028222" lon="4.3732546649602115"><ele>581.3333333333333</ele><time>2026-04-03T14:30:38Z</time></trkpt><trkpt lat="44.93901512497339" lon="4.373239537169268"><ele>580.0</ele><time>2026-04-03T14:30:40Z</time></trkpt><trkpt lat="44.93895352042225" lon="4.373221142476582"><ele>578.6666666666666</ele><time>2026-04-03T14:30:41Z</time></trkpt><trkpt lat="44.93887160548384" lon="4.373175774386812"><ele>577.3333333333334</ele><time>2026-04-03T14:30:43Z</time></trkpt><trkpt lat="44.93879827166594" lon="4.37315289914409"><ele>576.0</ele><time>2026-04-03T14:30:45Z</time></trkpt><trkpt lat="44.93873489281437" lon="4.373111613722936"><ele>576.0</ele><time>2026-04-03T14:30:47Z</time></trkpt><trkpt lat="44.938667935475635" lon="4.3730371124435985"><ele>576.0</ele><time>2026-04-03T14:30:49Z</time></trkpt><trkpt lat="44.93859612457671" lon="4.373029881084878"><ele>576.0</ele><time>2026-04-03T14:30:52Z</time></trkpt><trkpt lat="44.938531035764626" lon="4.373035441830457"><ele>576.0</ele><time>2026-04-03T14:30:54Z</time></trkpt><trkpt lat="44.9384983793451" lon="4.373137331837777"><ele>576.0</ele><time>2026-04-03T14:30:56Z</time></trkpt><trkpt lat="44.93822910367825" lon="4.3732299975103555"><ele>574.3333333333334</ele><time>2026-04-03T14:30:58Z</time></trkpt><trkpt lat="44.938136041330864" lon="4.373300577315147"><ele>572.6666666666666</ele><time>2026-04-03T14:31:00Z</time></trkpt><trkpt lat="44.938083803880176" lon="4.3733573947205135"><ele>571.0</ele><time>2026-04-03T14:31:01Z</time></trkpt><trkpt lat="44.938018130367446" lon="4.373422229769634"><ele>569.3333333333333</ele><time>2026-04-03T14:31:02Z</time></trkpt><trkpt lat="44.93797905013281" lon="4.37349672585516"><ele>567.6666666666666</ele><time>2026-04-03T14:31:03Z</time></trkpt><trkpt lat="44.937936439783705" lon="4.373571496980672"><ele>566.0</ele><time>2026-04-03T14:31:03.999Z</time></trkpt><trkpt lat="44.93787908157937" lon="4.3736422665142936"><ele>566.0</ele><time>2026-04-03T14:31:05.999Z</time></trkpt><trkpt lat="44.93787882001519" lon="4.373525461675495"><ele>566.0</ele><time>2026-04-03T14:31:08.999Z</time></trkpt><trkpt lat="44.937868431597515" lon="4.37343218333516"><ele>566.0</ele><time>2026-04-03T14:31:09.999Z</time></trkpt><trkpt lat="44.93787575064912" lon="4.373301684754488"><ele>566.0</ele><time>2026-04-03T14:31:10.999Z</time></trkpt><trkpt lat="44.93789862275688" lon="4.373212424782926"><ele>566.0</ele><time>2026-04-03T14:31:11.999Z</time></trkpt><trkpt lat="44.93792162869758" lon="4.373119087225397"><ele>566.0</ele><time>2026-04-03T14:31:12.999Z</time></trkpt><trkpt lat="44.93795196095234" lon="4.373021624353655"><ele>562.6666666666666</ele><time>2026-04-03T14:31:13.999Z</time></trkpt><trkpt lat="44.93798640461505" lon="4.3729164708161115"><ele>559.3333333333333</ele><time>2026-04-03T14:31:14.999Z</time></trkpt><trkpt lat="44.938048241399265" lon="4.372894002983599"><ele>556.0</ele><time>2026-04-03T14:31:16.999Z</time></trkpt><trkpt lat="44.938122074592684" lon="4.37282131646272"><ele>552.6666666666666</ele><time>2026-04-03T14:31:18.999Z</time></trkpt><trkpt lat="44.938054875934554" lon="4.372797050999591"><ele>549.3333333333334</ele><time>2026-04-03T14:31:21.999Z</time></trkpt><trkpt lat="44.937960589633434" lon="4.372875619341329"><ele>546.0</ele><time>2026-04-03T14:31:23.999Z</time></trkpt><trkpt lat="44.93787662065541" lon="4.372912718132973"><ele>546.0</ele><time>2026-04-03T14:31:25.999Z</time></trkpt><trkpt lat="44.93779350088954" lon="4.372998958569548"><ele>546.0</ele><time>2026-04-03T14:31:27.999Z</time></trkpt><trkpt lat="44.93771575951055" lon="4.373098853555123"><ele>546.0</ele><time>2026-04-03T14:31:29.999Z</time></trkpt><trkpt lat="44.9376085141813" lon="4.37319944323808"><ele>546.0</ele><time>2026-04-03T14:31:31.999Z</time></trkpt><trkpt lat="44.937567945590885" lon="4.3732740100914285"><ele>546.0</ele><time>2026-04-03T14:31:32.999Z</time></trkpt><trkpt lat="44.93752787109426" lon="4.373347669088562"><ele>545.6</ele><time>2026-04-03T14:31:33.999Z</time></trkpt><trkpt lat="44.937457922027534" lon="4.373477656193171"><ele>545.2</ele><time>2026-04-03T14:31:35.999Z</time></trkpt><trkpt lat="44.93741103697306" lon="4.373539862377853"><ele>544.8</ele><time>2026-04-03T14:31:36.999Z</time></trkpt><trkpt lat="44.937378667547556" lon="4.3736268172208215"><ele>544.4</ele><time>2026-04-03T14:31:37.999Z</time></trkpt><trkpt lat="44.937295547956076" lon="4.37376288226521"><ele>544.0</ele><time>2026-04-03T14:31:39.999Z</time></trkpt><trkpt lat="44.9371874847748" lon="4.373858987881384"><ele>544.0</ele><time>2026-04-03T14:31:41.999Z</time></trkpt><trkpt lat="44.93711175279652" lon="4.373874592526384"><ele>544.0</ele><time>2026-04-03T14:31:42.999Z</time></trkpt><trkpt lat="44.93704569212807" lon="4.373854096564148"><ele>544.0</ele><time>2026-04-03T14:31:43.999Z</time></trkpt><trkpt lat="44.93696174649477" lon="4.373745864648263"><ele>544.0</ele><time>2026-04-03T14:31:45.999Z</time></trkpt><trkpt lat="44.93692065917368" lon="4.37366408658471"><ele>544.0</ele><time>2026-04-03T14:31:46.999Z</time></trkpt><trkpt lat="44.93687011440506" lon="4.373603967606562"><ele>544.0</ele><time>2026-04-03T14:31:47.999Z</time></trkpt><trkpt lat="44.93676510172374" lon="4.373481639300733"><ele>541.5</ele><time>2026-04-03T14:31:49.999Z</time></trkpt><trkpt lat="44.93671263591386" lon="4.373430828092604"><ele>539.0</ele><time>2026-04-03T14:31:50.999Z</time></trkpt><trkpt lat="44.93659147679434" lon="4.373389426040648"><ele>536.5</ele><time>2026-04-03T14:31:52.999Z</time></trkpt><trkpt lat="44.936524375096674" lon="4.373395176074701"><ele>534.0</ele><time>2026-04-03T14:31:53.999Z</time></trkpt><trkpt lat="44.93646753696579" lon="4.373436912801409"><ele>531.5</ele><time>2026-04-03T14:31:54.999Z</time></trkpt><trkpt lat="44.93638980166657" lon="4.373482162220104"><ele>529.0</ele><time>2026-04-03T14:31:56.999Z</time></trkpt><trkpt lat="44.936357000435805" lon="4.37337832335329"><ele>529.0</ele><time>2026-04-03T14:31:58.999Z</time></trkpt><trkpt lat="44.93635580885809" lon="4.373243576057412"><ele>529.0</ele><time>2026-04-03T14:32:01Z</time></trkpt><trkpt lat="44.93640326090852" lon="4.37309134837434"><ele>529.0</ele><time>2026-04-03T14:32:03Z</time></trkpt><trkpt lat="44.93644237419069" lon="4.373008691091485"><ele>529.0</ele><time>2026-04-03T14:32:04Z</time></trkpt><trkpt lat="44.93651597589714" lon="4.372844515785771"><ele>529.0</ele><time>2026-04-03T14:32:06Z</time></trkpt><trkpt lat="44.936560214039986" lon="4.372763885890558"><ele>528.0</ele><time>2026-04-03T14:32:07Z</time></trkpt><trkpt lat="44.936564049439646" lon="4.372664211673136"><ele>527.0</ele><time>2026-04-03T14:32:08Z</time></trkpt><trkpt lat="44.93654286315437" lon="4.372568759096263"><ele>526.0</ele><time>2026-04-03T14:32:09Z</time></trkpt><trkpt lat="44.936509796525925" lon="4.372475618440177"><ele>525.0</ele><time>2026-04-03T14:32:10Z</time></trkpt><trkpt lat="44.936476349120355" lon="4.372384870553031"><ele>524.0</ele><time>2026-04-03T14:32:11Z</time></trkpt><trkpt lat="44.93643326518409" lon="4.372273466246091"><ele>523.0</ele><time>2026-04-03T14:32:12Z</time></trkpt><trkpt lat="44.93638601241756" lon="4.372137596013619"><ele>522.1999999999999</ele><time>2026-04-03T14:32:13Z</time></trkpt><trkpt lat="44.93632751873991" lon="4.371992912616942"><ele>521.4</ele><time>2026-04-03T14:32:14Z</time></trkpt><trkpt lat="44.93627280532315" lon="4.371846955643625"><ele>520.5999999999999</ele><time>2026-04-03T14:32:15Z</time></trkpt><trkpt lat="44.93622022266636" lon="4.371731305425679"><ele>519.8</ele><time>2026-04-03T14:32:16Z</time></trkpt><trkpt lat="44.936178798163105" lon="4.371615675810584"><ele>519.0</ele><time>2026-04-03T14:32:17Z</time></trkpt><trkpt lat="44.936128739632636" lon="4.371502414272756"><ele>519.0</ele><time>2026-04-03T14:32:18Z</time></trkpt><trkpt lat="44.93607625091205" lon="4.371401488850974"><ele>519.0</ele><time>2026-04-03T14:32:19Z</time></trkpt><trkpt lat="44.93602754862722" lon="4.371308027662934"><ele>519.0</ele><time>2026-04-03T14:32:20Z</time></trkpt><trkpt lat="44.93598258961819" lon="4.37122419046622"><ele>519.0</ele><time>2026-04-03T14:32:21Z</time></trkpt><trkpt lat="44.9359408232306" lon="4.371144415315652"><ele>519.0</ele><time>2026-04-03T14:32:22Z</time></trkpt><trkpt lat="44.935894430299875" lon="4.3710127654487865"><ele>519.0</ele><time>2026-04-03T14:32:24Z</time></trkpt><trkpt lat="44.935821908317564" lon="4.370968202794884"><ele>520.6</ele><time>2026-04-03T14:32:39Z</time></trkpt><trkpt lat="44.93576572713072" lon="4.371023059984181"><ele>522.2</ele><time>2026-04-03T14:32:40Z</time></trkpt><trkpt lat="44.93570344662648" lon="4.37110311542098"><ele>523.8000000000001</ele><time>2026-04-03T14:32:41Z</time></trkpt><trkpt lat="44.935616230131146" lon="4.3711623262210475"><ele>525.4</ele><time>2026-04-03T14:32:42Z</time></trkpt><trkpt lat="44.93550335383103" lon="4.371183931423691"><ele>527.0</ele><time>2026-04-03T14:32:43Z</time></trkpt><trkpt lat="44.93537718304109" lon="4.371251207769768"><ele>527.0</ele><time>2026-04-03T14:32:44Z</time></trkpt><trkpt lat="44.93527424206615" lon="4.371305858887157"><ele>527.0</ele><time>2026-04-03T14:32:45Z</time></trkpt><trkpt lat="44.935177024621375" lon="4.3713592013014955"><ele>527.0</ele><time>2026-04-03T14:32:46Z</time></trkpt><trkpt lat="44.93509379653129" lon="4.37141012574996"><ele>527.0</ele><time>2026-04-03T14:32:47Z</time></trkpt><trkpt lat="44.9350217716667" lon="4.3715062617130815"><ele>527.0</ele><time>2026-04-03T14:32:48Z</time></trkpt><trkpt lat="44.93498625523072" lon="4.371626793571388"><ele>530.0</ele><time>2026-04-03T14:32:49Z</time></trkpt><trkpt lat="44.93499680320563" lon="4.371798538296243"><ele>533.0</ele><time>2026-04-03T14:32:50Z</time></trkpt><trkpt lat="44.93500246912428" lon="4.371977207291807"><ele>536.0</ele><time>2026-04-03T14:32:51Z</time></trkpt><trkpt lat="44.9349847681473" lon="4.3721648770910715"><ele>539.0</ele><time>2026-04-03T14:32:52Z</time></trkpt><trkpt lat="44.934974257717116" lon="4.372357989382436"><ele>539.0</ele><time>2026-04-03T14:32:53Z</time></trkpt><trkpt lat="44.9349612166146" lon="4.372549231462341"><ele>539.0</ele><time>2026-04-03T14:32:54Z</time></trkpt><trkpt lat="44.934942069898405" lon="4.3727427102088114"><ele>539.0</ele><time>2026-04-03T14:32:55Z</time></trkpt><trkpt lat="44.93492050479367" lon="4.372947123664994"><ele>539.0</ele><time>2026-04-03T14:32:56Z</time></trkpt><trkpt lat="44.93489912013541" lon="4.37315404731986"><ele>539.0</ele><time>2026-04-03T14:32:57Z</time></trkpt><trkpt lat="44.9348814088186" lon="4.373352562568626"><ele>539.0</ele><time>2026-04-03T14:32:58Z</time></trkpt><trkpt lat="44.93489503987303" lon="4.373562721259466"><ele>539.0</ele><time>2026-04-03T14:32:59Z</time></trkpt><trkpt lat="44.93492939530816" lon="4.3737671860377"><ele>539.0</ele><time>2026-04-03T14:33:00Z</time></trkpt><trkpt lat="44.93496852005149" lon="4.373986294118309"><ele>540.0</ele><time>2026-04-03T14:33:01Z</time></trkpt><trkpt lat="44.935001818520554" lon="4.374188056327084"><ele>541.0</ele><time>2026-04-03T14:33:02Z</time></trkpt><trkpt lat="44.93503886891038" lon="4.374399310192163"><ele>542.0</ele><time>2026-04-03T14:33:03Z</time></trkpt><trkpt lat="44.93510460071304" lon="4.374600006258846"><ele>533.3333333333333</ele><time>2026-04-03T14:33:04Z</time></trkpt><trkpt lat="44.9352042380513" lon="4.374784427483591"><ele>524.6666666666666</ele><time>2026-04-03T14:33:05Z</time></trkpt><trkpt lat="44.93532952749284" lon="4.374947475454713"><ele>516.0</ele><time>2026-04-03T14:33:06Z</time></trkpt><trkpt lat="44.93546094141694" lon="4.375110376475687"><ele>516.0</ele><time>2026-04-03T14:33:07Z</time></trkpt><trkpt lat="44.93558108535286" lon="4.375274847864583"><ele>516.0</ele><time>2026-04-03T14:33:08Z</time></trkpt><trkpt lat="44.93569666257106" lon="4.375455601228895"><ele>516.0</ele><time>2026-04-03T14:33:09Z</time></trkpt><trkpt lat="44.935816408134066" lon="4.375641192632668"><ele>513.6666666666666</ele><time>2026-04-03T14:33:09.999Z</time></trkpt><trkpt lat="44.93592862677282" lon="4.375823976963551"><ele>511.3333333333333</ele><time>2026-04-03T14:33:10.999Z</time></trkpt><trkpt lat="44.93603211810439" lon="4.376008195438216"><ele>509.0</ele><time>2026-04-03T14:33:11.999Z</time></trkpt><trkpt lat="44.93612493250351" lon="4.376195966397095"><ele>511.5</ele><time>2026-04-03T14:33:12.999Z</time></trkpt><trkpt lat="44.9361946488002" lon="4.376376260358476"><ele>514.0</ele><time>2026-04-03T14:33:13.999Z</time></trkpt><trkpt lat="44.93625754852107" lon="4.3765468674810455"><ele>516.5</ele><time>2026-04-03T14:33:14.999Z</time></trkpt><trkpt lat="44.936323945196214" lon="4.376704443484934"><ele>519.0</ele><time>2026-04-03T14:33:15.999Z</time></trkpt><trkpt lat="44.93638415776225" lon="4.376851113311406"><ele>519.0</ele><time>2026-04-03T14:33:16.999Z</time></trkpt><trkpt lat="44.936443131663815" lon="4.377011620763393"><ele>519.0</ele><time>2026-04-03T14:33:17.999Z</time></trkpt><trkpt lat="44.93650306728272" lon="4.377155986703982"><ele>519.0</ele><time>2026-04-03T14:33:18.999Z</time></trkpt><trkpt lat="44.93654690850464" lon="4.377296300759771"><ele>519.0</ele><time>2026-04-03T14:33:19.999Z</time></trkpt><trkpt lat="44.93658969241883" lon="4.377428195518056"><ele>518.4</ele><time>2026-04-03T14:33:20.999Z</time></trkpt><trkpt lat="44.93663875039445" lon="4.37757020000697"><ele>517.8</ele><time>2026-04-03T14:33:21.999Z</time></trkpt><trkpt lat="44.93668440828924" lon="4.377695479594684"><ele>517.2</ele><time>2026-04-03T14:33:22.999Z</time></trkpt><trkpt lat="44.93671654447046" lon="4.377810633071589"><ele>516.6</ele><time>2026-04-03T14:33:23.999Z</time></trkpt><trkpt lat="44.93674383962839" lon="4.37792716039798"><ele>516.0</ele><time>2026-04-03T14:33:24.999Z</time></trkpt><trkpt lat="44.936791726092316" lon="4.3780462519300976"><ele>516.0</ele><time>2026-04-03T14:33:25.999Z</time></trkpt><trkpt lat="44.93683824997113" lon="4.3781863588638945"><ele>516.0</ele><time>2026-04-03T14:33:26.999Z</time></trkpt><trkpt lat="44.93687737097606" lon="4.378341258538641"><ele>516.0</ele><time>2026-04-03T14:33:27.999Z</time></trkpt><trkpt lat="44.93691194594579" lon="4.3785177823789265"><ele>516.0</ele><time>2026-04-03T14:33:28.999Z</time></trkpt><trkpt lat="44.93693436689413" lon="4.378694933760216"><ele>516.75</ele><time>2026-04-03T14:33:29.999Z</time></trkpt><trkpt lat="44.936957212191196" lon="4.37886650609241"><ele>517.5</ele><time>2026-04-03T14:33:30.999Z</time></trkpt><trkpt lat="44.93698790182922" lon="4.379043503256858"><ele>518.25</ele><time>2026-04-03T14:33:31.999Z</time></trkpt><trkpt lat="44.937020768862844" lon="4.379234202594752"><ele>519.0</ele><time>2026-04-03T14:33:32.999Z</time></trkpt><trkpt lat="44.937054633821674" lon="4.379433938546353"><ele>519.0</ele><time>2026-04-03T14:33:33.999Z</time></trkpt><trkpt lat="44.93709847109688" lon="4.379634278523037"><ele>519.0</ele><time>2026-04-03T14:33:34.999Z</time></trkpt><trkpt lat="44.93714204077056" lon="4.379843205804814"><ele>519.0</ele><time>2026-04-03T14:33:35.999Z</time></trkpt><trkpt lat="44.93718598709227" lon="4.380050032866692"><ele>520.5</ele><time>2026-04-03T14:33:36.999Z</time></trkpt><trkpt lat="44.937223750886695" lon="4.380254717929487"><ele>522.0</ele><time>2026-04-03T14:33:37.999Z</time></trkpt><trkpt lat="44.937251598029746" lon="4.380462051969234"><ele>523.5</ele><time>2026-04-03T14:33:38.999Z</time></trkpt><trkpt lat="44.93726046201947" lon="4.380670919454578"><ele>525.0</ele><time>2026-04-03T14:33:39.999Z</time></trkpt><trkpt lat="44.937242280252796" lon="4.380883434088984"><ele>524.3333333333334</ele><time>2026-04-03T14:33:40.999Z</time></trkpt><trkpt lat="44.9372049616482" lon="4.381090596589612"><ele>523.6666666666667</ele><time>2026-04-03T14:33:41.999Z</time></trkpt><trkpt lat="44.93715513476035" lon="4.381297383391324"><ele>523.0</ele><time>2026-04-03T14:33:42.999Z</time></trkpt><trkpt lat="44.93710294308797" lon="4.381500641296016"><ele>523.0</ele><time>2026-04-03T14:33:43.999Z</time></trkpt><trkpt lat="44.93705395628405" lon="4.381704916325413"><ele>523.0</ele><time>2026-04-03T14:33:44.999Z</time></trkpt><trkpt lat="44.93700198308073" lon="4.381908200666202"><ele>523.0</ele><time>2026-04-03T14:33:45.999Z</time></trkpt><trkpt lat="44.93695314752634" lon="4.382116783031317"><ele>523.5</ele><time>2026-04-03T14:33:46.999Z</time></trkpt><trkpt lat="44.936905202326116" lon="4.3823149243465975"><ele>524.0</ele><time>2026-04-03T14:33:47.999Z</time></trkpt><trkpt lat="44.936866039813786" lon="4.382512139220681"><ele>524.5</ele><time>2026-04-03T14:33:48.999Z</time></trkpt><trkpt lat="44.93683349577797" lon="4.382713039183955"><ele>525.0</ele><time>2026-04-03T14:33:49.999Z</time></trkpt><trkpt lat="44.936823545691276" lon="4.382913555275842"><ele>524.5</ele><time>2026-04-03T14:33:50.999Z</time></trkpt><trkpt lat="44.936837194089215" lon="4.383103334474862"><ele>524.0</ele><time>2026-04-03T14:33:51.999Z</time></trkpt><trkpt lat="44.936874809805644" lon="4.383284616330024"><ele>523.5</ele><time>2026-04-03T14:33:52.999Z</time></trkpt><trkpt lat="44.93691008332144" lon="4.383437750229104"><ele>523.0</ele><time>2026-04-03T14:33:53.999Z</time></trkpt><trkpt lat="44.93693604874151" lon="4.383582563346518"><ele>523.0</ele><time>2026-04-03T14:33:54.999Z</time></trkpt><trkpt lat="44.936947727392884" lon="4.38372635534133"><ele>523.0</ele><time>2026-04-03T14:33:55.999Z</time></trkpt><trkpt lat="44.93698677452001" lon="4.383853687443139"><ele>523.0</ele><time>2026-04-03T14:33:56.999Z</time></trkpt><trkpt lat="44.93700838979046" lon="4.3839887873057375"><ele>523.0</ele><time>2026-04-03T14:33:57.999Z</time></trkpt><trkpt lat="44.93702204478161" lon="4.384100392465538"><ele>523.0</ele><time>2026-04-03T14:33:58.999Z</time></trkpt><trkpt lat="44.93702718785927" lon="4.384192859225177"><ele>523.0</ele><time>2026-04-03T14:33:59.999Z</time></trkpt><trkpt lat="44.9370253894436" lon="4.384290623585827"><ele>523.0</ele><time>2026-04-03T14:34:00.999Z</time></trkpt><trkpt lat="44.937011250671254" lon="4.384440953928356"><ele>523.0</ele><time>2026-04-03T14:34:02.999Z</time></trkpt><trkpt lat="44.9369894860595" lon="4.384561843394133"><ele>523.0</ele><time>2026-04-03T14:34:03.999Z</time></trkpt><trkpt lat="44.93695507711351" lon="4.384694257671282"><ele>523.0</ele><time>2026-04-03T14:34:04.999Z</time></trkpt><trkpt lat="44.93691696382745" lon="4.384802299291986"><ele>523.0</ele><time>2026-04-03T14:34:05.999Z</time></trkpt><trkpt lat="44.936869567873956" lon="4.3848948721749545"><ele>523.0</ele><time>2026-04-03T14:34:07Z</time></trkpt><trkpt lat="44.93680987077709" lon="4.385000278472907"><ele>523.0</ele><time>2026-04-03T14:34:09Z</time></trkpt><trkpt lat="44.936741188657564" lon="4.38508972206468"><ele>523.0</ele><time>2026-04-03T14:34:11Z</time></trkpt><trkpt lat="44.936706516655015" lon="4.385221138535061"><ele>523.0</ele><time>2026-04-03T14:34:18Z</time></trkpt><trkpt lat="44.936646517074365" lon="4.385281082987073"><ele>523.0</ele><time>2026-04-03T14:34:20Z</time></trkpt><trkpt lat="44.93659505192883" lon="4.385350734450162"><ele>523.0</ele><time>2026-04-03T14:34:22Z</time></trkpt><trkpt lat="44.93655638065312" lon="4.385424050251486"><ele>524.8</ele><time>2026-04-03T14:34:24Z</time></trkpt><trkpt lat="44.93652803417586" lon="4.385512634256606"><ele>526.5999999999999</ele><time>2026-04-03T14:34:26Z</time></trkpt><trkpt lat="44.93651807424854" lon="4.385692810582197"><ele>528.4000000000001</ele><time>2026-04-03T14:34:28Z</time></trkpt><trkpt lat="44.936514379750164" lon="4.385835958591696"><ele>530.2</ele><time>2026-04-03T14:34:29Z</time></trkpt><trkpt lat="44.93650507552554" lon="4.385995435094996"><ele>532.0</ele><time>2026-04-03T14:34:30Z</time></trkpt><trkpt lat="44.93649505250144" lon="4.386141707473716"><ele>532.0</ele><time>2026-04-03T14:34:31Z</time></trkpt><trkpt lat="44.936490997732484" lon="4.386305537907215"><ele>532.0</ele><time>2026-04-03T14:34:32Z</time></trkpt><trkpt lat="44.93645672604576" lon="4.386474831378612"><ele>532.0</ele><time>2026-04-03T14:34:33Z</time></trkpt><trkpt lat="44.93642231556955" lon="4.386638938597164"><ele>532.0</ele><time>2026-04-03T14:34:34Z</time></trkpt><trkpt lat="44.93639102190031" lon="4.3868061904581355"><ele>531.25</ele><time>2026-04-03T14:34:35Z</time></trkpt><trkpt lat="44.9363622050022" lon="4.386973738617424"><ele>530.5</ele><time>2026-04-03T14:34:36Z</time></trkpt><trkpt lat="44.93633267149038" lon="4.387143192108838"><ele>529.75</ele><time>2026-04-03T14:34:37Z</time></trkpt><trkpt lat="44.93630336803479" lon="4.387316725482061"><ele>529.0</ele><time>2026-04-03T14:34:38Z</time></trkpt><trkpt lat="44.93627147651335" lon="4.38749255975543"><ele>528.0</ele><time>2026-04-03T14:34:39Z</time></trkpt><trkpt lat="44.93623564055112" lon="4.387669933760704"><ele>527.0</ele><time>2026-04-03T14:34:40Z</time></trkpt><trkpt lat="44.936206993722024" lon="4.387854300097343"><ele>526.0</ele><time>2026-04-03T14:34:41Z</time></trkpt><trkpt lat="44.93618208239604" lon="4.388028560474527"><ele>525.0</ele><time>2026-04-03T14:34:42Z</time></trkpt><trkpt lat="44.936161419783005" lon="4.3881955096612595"><ele>525.0</ele><time>2026-04-03T14:34:43Z</time></trkpt><trkpt lat="44.93616073480502" lon="4.388355583011182"><ele>525.0</ele><time>2026-04-03T14:34:44Z</time></trkpt><trkpt lat="44.936156832038876" lon="4.388501441332489"><ele>525.0</ele><time>2026-04-03T14:34:45Z</time></trkpt><trkpt lat="44.93614403619272" lon="4.388637575790693"><ele>525.0</ele><time>2026-04-03T14:34:46Z</time></trkpt><trkpt lat="44.93612363964532" lon="4.38877834572565"><ele>525.0</ele><time>2026-04-03T14:34:47Z</time></trkpt><trkpt lat="44.93609913227442" lon="4.388905506566217"><ele>525.0</ele><time>2026-04-03T14:34:48Z</time></trkpt><trkpt lat="44.936084572746175" lon="4.389022243866627"><ele>525.0</ele><time>2026-04-03T14:34:49Z</time></trkpt><trkpt lat="44.93609951904437" lon="4.389161642986069"><ele>525.0</ele><time>2026-04-03T14:34:50Z</time></trkpt><trkpt lat="44.93607385027406" lon="4.389287689224511"><ele>525.0</ele><time>2026-04-03T14:34:51Z</time></trkpt><trkpt lat="44.93610602791216" lon="4.389437227445563"><ele>525.0</ele><time>2026-04-03T14:34:52Z</time></trkpt><trkpt lat="44.93609441689666" lon="4.389569512167404"><ele>525.4</ele><time>2026-04-03T14:34:53Z</time></trkpt><trkpt lat="44.93608740407385" lon="4.389700782326103"><ele>525.8</ele><time>2026-04-03T14:34:54Z</time></trkpt><trkpt lat="44.936106392521545" lon="4.389893822968627"><ele>526.2</ele><time>2026-04-03T14:34:56Z</time></trkpt><trkpt lat="44.93612613921084" lon="4.390011570605367"><ele>526.6</ele><time>2026-04-03T14:34:57Z</time></trkpt><trkpt lat="44.93614031523875" lon="4.39009830849476"><ele>527.0</ele><time>2026-04-03T14:34:58Z</time></trkpt><trkpt lat="44.93618032148919" lon="4.390287444432889"><ele>527.0</ele><time>2026-04-03T14:35:00Z</time></trkpt><trkpt lat="44.9362058545626" lon="4.3904007573562644"><ele>527.0</ele><time>2026-04-03T14:35:01Z</time></trkpt><trkpt lat="44.93623283019636" lon="4.390545305357321"><ele>527.0</ele><time>2026-04-03T14:35:02Z</time></trkpt><trkpt lat="44.93624993882866" lon="4.390681440359815"><ele>527.0</ele><time>2026-04-03T14:35:03Z</time></trkpt><trkpt lat="44.936262540333885" lon="4.39086281035974"><ele>527.0</ele><time>2026-04-03T14:35:04Z</time></trkpt><trkpt lat="44.93626095282795" lon="4.3910158595429145"><ele>526.75</ele><time>2026-04-03T14:35:05Z</time></trkpt><trkpt lat="44.936239533764876" lon="4.391231793945146"><ele>526.5</ele><time>2026-04-03T14:35:07Z</time></trkpt><trkpt lat="44.93621103691659" lon="4.391391432458537"><ele>526.25</ele><time>2026-04-03T14:35:08Z</time></trkpt><trkpt lat="44.9361714028247" lon="4.391549806894019"><ele>526.0</ele><time>2026-04-03T14:35:09Z</time></trkpt><trkpt lat="44.936138935499194" lon="4.391662945894573"><ele>525.3333333333334</ele><time>2026-04-03T14:35:10Z</time></trkpt><trkpt lat="44.93610780698351" lon="4.391770558353103"><ele>524.6666666666667</ele><time>2026-04-03T14:35:11Z</time></trkpt><trkpt lat="44.93606509366811" lon="4.391869262809507"><ele>524.0</ele><time>2026-04-03T14:35:12Z</time></trkpt><trkpt lat="44.936052784672825" lon="4.391991200251015"><ele>523.3333333333334</ele><time>2026-04-03T14:35:13Z</time></trkpt><trkpt lat="44.93604721866252" lon="4.392084728875806"><ele>522.6666666666666</ele><time>2026-04-03T14:35:15Z</time></trkpt><trkpt lat="44.93604125857757" lon="4.392257852351048"><ele>522.0</ele><time>2026-04-03T14:35:17Z</time></trkpt><trkpt lat="44.93532122052408" lon="4.392383280580643"><ele>528.5</ele><time>2026-04-03T14:35:20Z</time></trkpt><trkpt lat="44.93535449694544" lon="4.392476515034252"><ele>535.0</ele><time>2026-04-03T14:35:21Z</time></trkpt><trkpt lat="44.93543378557271" lon="4.392573335594756"><ele>541.5</ele><time>2026-04-03T14:35:21.999Z</time></trkpt><trkpt lat="44.93546369535094" lon="4.392653307618742"><ele>548.0</ele><time>2026-04-03T14:35:22.999Z</time></trkpt><trkpt lat="44.935457403841305" lon="4.392791821566672"><ele>554.5</ele><time>2026-04-03T14:35:23.999Z</time></trkpt><trkpt lat="44.935462278473054" lon="4.392941716410444"><ele>561.0</ele><time>2026-04-03T14:35:24.999Z</time></trkpt><trkpt lat="44.93550511300414" lon="4.39306720805715"><ele>562.4</ele><time>2026-04-03T14:35:25.999Z</time></trkpt><trkpt lat="44.93551402480154" lon="4.393169200108453"><ele>563.8</ele><time>2026-04-03T14:35:26.999Z</time></trkpt><trkpt lat="44.93549261487727" lon="4.393268732727194"><ele>565.1999999999999</ele><time>2026-04-03T14:35:27.999Z</time></trkpt><trkpt lat="44.93544095453479" lon="4.393405842914929"><ele>566.6</ele><time>2026-04-03T14:35:28.999Z</time></trkpt><trkpt lat="44.93540135250908" lon="4.393544329864887"><ele>568.0</ele><time>2026-04-03T14:35:29.999Z</time></trkpt><trkpt lat="44.93537048966708" lon="4.39371192567741"><ele>568.0</ele><time>2026-04-03T14:35:30.999Z</time></trkpt><trkpt lat="44.93530426590894" lon="4.393834892270967"><ele>568.0</ele><time>2026-04-03T14:35:31.999Z</time></trkpt><trkpt lat="44.9352560064002" lon="4.3939092152066666"><ele>568.0</ele><time>2026-04-03T14:35:32.999Z</time></trkpt><trkpt lat="44.93522110918253" lon="4.393992652821454"><ele>568.0</ele><time>2026-04-03T14:35:33.999Z</time></trkpt><trkpt lat="44.93517216846809" lon="4.394187264291545"><ele>568.0</ele><time>2026-04-03T14:35:34.999Z</time></trkpt><trkpt lat="44.935093941188036" lon="4.394320080881181"><ele>573.0</ele><time>2026-04-03T14:35:35.999Z</time></trkpt><trkpt lat="44.93503069000468" lon="4.39441950008109"><ele>578.0</ele><time>2026-04-03T14:35:36.999Z</time></trkpt><trkpt lat="44.93497213856796" lon="4.394529115693308"><ele>583.0</ele><time>2026-04-03T14:35:37.999Z</time></trkpt><trkpt lat="44.93492777669856" lon="4.394611907305035"><ele>588.0</ele><time>2026-04-03T14:35:38.999Z</time></trkpt><trkpt lat="44.934922381348635" lon="4.394717213844837"><ele>593.0</ele><time>2026-04-03T14:35:40.999Z</time></trkpt><trkpt lat="44.93499206084892" lon="4.3947745851969975"><ele>598.0</ele><time>2026-04-03T14:35:41.999Z</time></trkpt><trkpt lat="44.9350688119299" lon="4.39485953667324"><ele>598.0</ele><time>2026-04-03T14:35:42.999Z</time></trkpt><trkpt lat="44.93516562630716" lon="4.394982756020185"><ele>598.0</ele><time>2026-04-03T14:35:43.999Z</time></trkpt><trkpt lat="44.93524768719957" lon="4.395046217477917"><ele>598.0</ele><time>2026-04-03T14:35:44.999Z</time></trkpt><trkpt lat="44.93534239770677" lon="4.395221862974492"><ele>598.0</ele><time>2026-04-03T14:35:46.999Z</time></trkpt><trkpt lat="44.93542606691668" lon="4.395358466534966"><ele>598.0</ele><time>2026-04-03T14:35:47.999Z</time></trkpt><trkpt lat="44.93549601252251" lon="4.395449462162961"><ele>598.0</ele><time>2026-04-03T14:35:49.999Z</time></trkpt><trkpt lat="44.93550608437121" lon="4.3955566517321865"><ele>598.0</ele><time>2026-04-03T14:35:51.999Z</time></trkpt><trkpt lat="44.93545436096994" lon="4.395638544942111"><ele>598.0</ele><time>2026-04-03T14:35:53.999Z</time></trkpt><trkpt lat="44.93534863672901" lon="4.395633934807458"><ele>598.0</ele><time>2026-04-03T14:35:55.999Z</time></trkpt><trkpt lat="44.93522157181691" lon="4.395615781822466"><ele>599.6</ele><time>2026-04-03T14:35:57.999Z</time></trkpt><trkpt lat="44.935106579843115" lon="4.395613451949185"><ele>601.1999999999999</ele><time>2026-04-03T14:35:59.999Z</time></trkpt><trkpt lat="44.935032023225226" lon="4.395668170974908"><ele>602.8</ele><time>2026-04-03T14:36:01.999Z</time></trkpt><trkpt lat="44.93498231803279" lon="4.39573144502829"><ele>604.4</ele><time>2026-04-03T14:36:02.999Z</time></trkpt><trkpt lat="44.93491326787261" lon="4.395827496230517"><ele>606.0</ele><time>2026-04-03T14:36:04.999Z</time></trkpt><trkpt lat="44.93480453516632" lon="4.39589447766148"><ele>610.0</ele><time>2026-04-03T14:36:06.999Z</time></trkpt><trkpt lat="44.93473783027241" lon="4.3959373738598"><ele>614.0</ele><time>2026-04-03T14:36:07.999Z</time></trkpt><trkpt lat="44.934675877845464" lon="4.39597690560616"><ele>618.0</ele><time>2026-04-03T14:36:08.999Z</time></trkpt><trkpt lat="44.934564250046854" lon="4.396005472181111"><ele>622.0</ele><time>2026-04-03T14:36:10.999Z</time></trkpt><trkpt lat="44.9344343208193" lon="4.3959750791923895"><ele>626.0</ele><time>2026-04-03T14:36:13Z</time></trkpt><trkpt lat="44.93436900875537" lon="4.395918941467622"><ele>626.0</ele><time>2026-04-03T14:36:14Z</time></trkpt><trkpt lat="44.93430652092073" lon="4.395863421253387"><ele>626.0</ele><time>2026-04-03T14:36:15Z</time></trkpt><trkpt lat="44.934233891639714" lon="4.395841746680692"><ele>626.0</ele><time>2026-04-03T14:36:16Z</time></trkpt><trkpt lat="44.93415514400538" lon="4.395769939362583"><ele>626.0</ele><time>2026-04-03T14:36:17Z</time></trkpt><trkpt lat="44.93409868262258" lon="4.395656121075304"><ele>626.0</ele><time>2026-04-03T14:36:18Z</time></trkpt><trkpt lat="44.93404790462728" lon="4.395585082811693"><ele>626.0</ele><time>2026-04-03T14:36:19Z</time></trkpt><trkpt lat="44.93395125982844" lon="4.395488056450369"><ele>628.8333333333333</ele><time>2026-04-03T14:36:21Z</time></trkpt><trkpt lat="44.93384353103064" lon="4.395476162158408"><ele>631.6666666666666</ele><time>2026-04-03T14:36:23Z</time></trkpt><trkpt lat="44.93377697126926" lon="4.3955031319826565"><ele>634.5</ele><time>2026-04-03T14:37:04Z</time></trkpt><trkpt lat="44.93370607001905" lon="4.395460409678673"><ele>637.3333333333334</ele><time>2026-04-03T14:37:07Z</time></trkpt><trkpt lat="44.93363104372587" lon="4.395437623310695"><ele>640.1666666666667</ele><time>2026-04-03T14:37:10Z</time></trkpt><trkpt lat="44.93356397000666" lon="4.39547529561962"><ele>643.0</ele><time>2026-04-03T14:37:12Z</time></trkpt><trkpt lat="44.93346121622061" lon="4.395572717147339"><ele>643.6666666666667</ele><time>2026-04-03T14:37:14Z</time></trkpt><trkpt lat="44.93335809630243" lon="4.3956217242618685"><ele>644.3333333333334</ele><time>2026-04-03T14:37:16Z</time></trkpt><trkpt lat="44.933280795667464" lon="4.395625657199362"><ele>645.0</ele><time>2026-04-03T14:37:18Z</time></trkpt><trkpt lat="44.93320477670631" lon="4.395601267772173"><ele>645.6666666666666</ele><time>2026-04-03T14:37:20Z</time></trkpt><trkpt lat="44.93312067937817" lon="4.395629810453"><ele>646.3333333333333</ele><time>2026-04-03T14:37:22Z</time></trkpt><trkpt lat="44.9330315089265" lon="4.395657014054051"><ele>647.0</ele><time>2026-04-03T14:37:24Z</time></trkpt><trkpt lat="44.93294132131007" lon="4.395682003729868"><ele>647.0</ele><time>2026-04-03T14:37:25.999Z</time></trkpt><trkpt lat="44.932853315602" lon="4.39574047427108"><ele>647.0</ele><time>2026-04-03T14:37:27.999Z</time></trkpt><trkpt lat="44.93276637368794" lon="4.395787199095695"><ele>647.0</ele><time>2026-04-03T14:37:29.999Z</time></trkpt><trkpt lat="44.932644477230774" lon="4.395831207557872"><ele>647.0</ele><time>2026-04-03T14:37:31.999Z</time></trkpt><trkpt lat="44.932558093224515" lon="4.395920026472841"><ele>647.0</ele><time>2026-04-03T14:37:33.999Z</time></trkpt><trkpt lat="44.93246865798192" lon="4.395951294204177"><ele>648.5</ele><time>2026-04-03T14:37:35.999Z</time></trkpt><trkpt lat="44.93235452241752" lon="4.396061424704323"><ele>650.0</ele><time>2026-04-03T14:37:37.999Z</time></trkpt><trkpt lat="44.932292175739065" lon="4.3960883372192985"><ele>651.5</ele><time>2026-04-03T14:37:38.999Z</time></trkpt><trkpt lat="44.932248672287834" lon="4.396154984267044"><ele>653.0</ele><time>2026-04-03T14:37:39.999Z</time></trkpt><trkpt lat="44.93218049030284" lon="4.396072501591267"><ele>654.5</ele><time>2026-04-03T14:37:40.999Z</time></trkpt><trkpt lat="44.932114657392404" lon="4.3960083508297325"><ele>656.0</ele><time>2026-04-03T14:37:41.999Z</time></trkpt><trkpt lat="44.93204796454694" lon="4.395948454835525"><ele>656.0</ele><time>2026-04-03T14:37:42.999Z</time></trkpt><trkpt lat="44.93197797714497" lon="4.395910967403245"><ele>656.0</ele><time>2026-04-03T14:37:43.999Z</time></trkpt><trkpt lat="44.93191271719918" lon="4.395890323779628"><ele>656.0</ele><time>2026-04-03T14:37:44.999Z</time></trkpt><trkpt lat="44.931826653620476" lon="4.395837993814132"><ele>656.0</ele><time>2026-04-03T14:37:45.999Z</time></trkpt><trkpt lat="44.93174340816225" lon="4.395786828960702"><ele>656.0</ele><time>2026-04-03T14:37:46.999Z</time></trkpt><trkpt lat="44.93165741618881" lon="4.395767752776722"><ele>656.0</ele><time>2026-04-03T14:37:47.999Z</time></trkpt><trkpt lat="44.93156819694936" lon="4.395781419733879"><ele>656.0</ele><time>2026-04-03T14:37:48.999Z</time></trkpt><trkpt lat="44.93148278171443" lon="4.39576317577352"><ele>656.0</ele><time>2026-04-03T14:37:49.999Z</time></trkpt><trkpt lat="44.93139657203767" lon="4.395826671755175"><ele>656.0</ele><time>2026-04-03T14:37:50.999Z</time></trkpt><trkpt lat="44.93130366480609" lon="4.395827167744505"><ele>656.0</ele><time>2026-04-03T14:37:51.999Z</time></trkpt><trkpt lat="44.931213407050066" lon="4.3958054618682665"><ele>656.0</ele><time>2026-04-03T14:37:52.999Z</time></trkpt><trkpt lat="44.93112495069183" lon="4.395790651549148"><ele>656.0</ele><time>2026-04-03T14:37:53.999Z</time></trkpt><trkpt lat="44.93104773226515" lon="4.395731228985625"><ele>656.0</ele><time>2026-04-03T14:37:54.999Z</time></trkpt><trkpt lat="44.93096386077348" lon="4.395667198374041"><ele>656.0</ele><time>2026-04-03T14:37:55.999Z</time></trkpt><trkpt lat="44.930877567196106" lon="4.395614963951572"><ele>656.0</ele><time>2026-04-03T14:37:56.999Z</time></trkpt><trkpt lat="44.93080084936743" lon="4.395575147231561"><ele>656.0</ele><time>2026-04-03T14:37:57.999Z</time></trkpt><trkpt lat="44.93072610409932" lon="4.3955457986344895"><ele>656.0</ele><time>2026-04-03T14:37:58.999Z</time></trkpt><trkpt lat="44.93064740585889" lon="4.395532040631909"><ele>660.0</ele><time>2026-04-03T14:37:59.999Z</time></trkpt><trkpt lat="44.93057681932039" lon="4.395490389902006"><ele>664.0</ele><time>2026-04-03T14:38:00.999Z</time></trkpt><trkpt lat="44.93053387981696" lon="4.395359491985243"><ele>668.0</ele><time>2026-04-03T14:38:01.999Z</time></trkpt><trkpt lat="44.930477038206156" lon="4.395300311223884"><ele>672.0</ele><time>2026-04-03T14:38:02.999Z</time></trkpt><trkpt lat="44.93041482415345" lon="4.395252512521638"><ele>676.0</ele><time>2026-04-03T14:38:03.999Z</time></trkpt><trkpt lat="44.930350049095026" lon="4.3952680827115165"><ele>680.0</ele><time>2026-04-03T14:38:04.999Z</time></trkpt><trkpt lat="44.93025700407859" lon="4.3953369703167535"><ele>680.0</ele><time>2026-04-03T14:38:05.999Z</time></trkpt><trkpt lat="44.93015704682756" lon="4.395402959048722"><ele>680.0</ele><time>2026-04-03T14:38:06.999Z</time></trkpt><trkpt lat="44.93006111431478" lon="4.395483572529063"><ele>680.0</ele><time>2026-04-03T14:38:07.999Z</time></trkpt><trkpt lat="44.929953733072495" lon="4.395523959693628"><ele>680.0</ele><time>2026-04-03T14:38:08.999Z</time></trkpt><trkpt lat="44.92985047422818" lon="4.395573386247617"><ele>680.0</ele><time>2026-04-03T14:38:09.999Z</time></trkpt><trkpt lat="44.929743046663475" lon="4.395605667840621"><ele>672.0</ele><time>2026-04-03T14:38:10.999Z</time></trkpt><trkpt lat="44.929640110091704" lon="4.395631927979942"><ele>664.0</ele><time>2026-04-03T14:38:11.999Z</time></trkpt><trkpt lat="44.92954858710458" lon="4.3956514133852265"><ele>656.0</ele><time>2026-04-03T14:38:12.999Z</time></trkpt><trkpt lat="44.92946096968579" lon="4.39566633551378"><ele>648.0</ele><time>2026-04-03T14:38:13.999Z</time></trkpt><trkpt lat="44.929366389461755" lon="4.395643620334916"><ele>640.0</ele><time>2026-04-03T14:38:14.999Z</time></trkpt><trkpt lat="44.92929280633279" lon="4.395653935146976"><ele>642.2</ele><time>2026-04-03T14:38:15.999Z</time></trkpt><trkpt lat="44.9291887734993" lon="4.395639119771276"><ele>644.4</ele><time>2026-04-03T14:38:16.999Z</time></trkpt><trkpt lat="44.92909707638596" lon="4.395559662993508"><ele>646.5999999999999</ele><time>2026-04-03T14:38:17.999Z</time></trkpt><trkpt lat="44.929004367314114" lon="4.395484805380148"><ele>648.8</ele><time>2026-04-03T14:38:19Z</time></trkpt><trkpt lat="44.928922831896415" lon="4.395427347120864"><ele>651.0</ele><time>2026-04-03T14:38:20Z</time></trkpt><trkpt lat="44.92884787668845" lon="4.395334749945019"><ele>651.0</ele><time>2026-04-03T14:38:21Z</time></trkpt><trkpt lat="44.92876486659823" lon="4.3952719167267755"><ele>651.0</ele><time>2026-04-03T14:38:22Z</time></trkpt><trkpt lat="44.92867280405639" lon="4.395240850365038"><ele>651.0</ele><time>2026-04-03T14:38:23Z</time></trkpt><trkpt lat="44.928574582670265" lon="4.395215687888774"><ele>651.0</ele><time>2026-04-03T14:38:24Z</time></trkpt><trkpt lat="44.92849256463363" lon="4.3951430749739835"><ele>651.0</ele><time>2026-04-03T14:38:25Z</time></trkpt><trkpt lat="44.928441405397024" lon="4.395020153085012"><ele>651.0</ele><time>2026-04-03T14:38:26Z</time></trkpt><trkpt lat="44.928466405658355" lon="4.3948271265824514"><ele>651.0</ele><time>2026-04-03T14:38:27Z</time></trkpt><trkpt lat="44.92834711677089" lon="4.394756159670331"><ele>651.0</ele><time>2026-04-03T14:38:28Z</time></trkpt><trkpt lat="44.9282824832314" lon="4.3946805564119265"><ele>651.0</ele><time>2026-04-03T14:38:29Z</time></trkpt><trkpt lat="44.92821895274261" lon="4.39460132443982"><ele>651.0</ele><time>2026-04-03T14:38:30Z</time></trkpt><trkpt lat="44.928152774074654" lon="4.394530503435119"><ele>648.5</ele><time>2026-04-03T14:38:31Z</time></trkpt><trkpt lat="44.92805846657597" lon="4.394516205586924"><ele>646.0</ele><time>2026-04-03T14:38:32Z</time></trkpt><trkpt lat="44.927967649569304" lon="4.394570790621857"><ele>643.5</ele><time>2026-04-03T14:38:33Z</time></trkpt><trkpt lat="44.92788694893534" lon="4.394554948364576"><ele>641.0</ele><time>2026-04-03T14:38:34Z</time></trkpt><trkpt lat="44.92781937052779" lon="4.3945521560068235"><ele>638.5</ele><time>2026-04-03T14:38:35Z</time></trkpt><trkpt lat="44.92772747054959" lon="4.394537444745139"><ele>636.0</ele><time>2026-04-03T14:38:36Z</time></trkpt><trkpt lat="44.927634418089404" lon="4.394504458169966"><ele>633.0</ele><time>2026-04-03T14:38:37Z</time></trkpt><trkpt lat="44.92753491414121" lon="4.3944835948081735"><ele>630.0</ele><time>2026-04-03T14:38:38Z</time></trkpt><trkpt lat="44.927429194862434" lon="4.394463288152255"><ele>627.0</ele><time>2026-04-03T14:38:39Z</time></trkpt><trkpt lat="44.927316433074964" lon="4.394440818390839"><ele>624.0</ele><time>2026-04-03T14:38:40Z</time></trkpt><trkpt lat="44.927205194354954" lon="4.3944166046292255"><ele>621.0</ele><time>2026-04-03T14:38:41Z</time></trkpt><trkpt lat="44.927102905835305" lon="4.394399300397957"><ele>621.0</ele><time>2026-04-03T14:38:42Z</time></trkpt><trkpt lat="44.927013902045466" lon="4.394351589494054"><ele>621.0</ele><time>2026-04-03T14:38:43Z</time></trkpt><trkpt lat="44.92692531010765" lon="4.394263283846316"><ele>621.0</ele><time>2026-04-03T14:38:44Z</time></trkpt><trkpt lat="44.92682331918674" lon="4.394175921543538"><ele>621.0</ele><time>2026-04-03T14:38:45Z</time></trkpt><trkpt lat="44.926710581182746" lon="4.394113053323392"><ele>621.0</ele><time>2026-04-03T14:38:46Z</time></trkpt><trkpt lat="44.926605432275196" lon="4.394033949408433"><ele>623.8</ele><time>2026-04-03T14:38:47Z</time></trkpt><trkpt lat="44.92652133503041" lon="4.393944234798622"><ele>626.6</ele><time>2026-04-03T14:38:48Z</time></trkpt><trkpt lat="44.92643169234336" lon="4.393865245716738"><ele>629.4</ele><time>2026-04-03T14:38:49Z</time></trkpt><trkpt lat="44.92635274613634" lon="4.3937882031855375"><ele>632.2</ele><time>2026-04-03T14:38:50Z</time></trkpt><trkpt lat="44.92627422811738" lon="4.393718491885598"><ele>635.0</ele><time>2026-04-03T14:38:51Z</time></trkpt><trkpt lat="44.92623407742402" lon="4.393599018841212"><ele>635.0</ele><time>2026-04-03T14:38:52Z</time></trkpt><trkpt lat="44.92616754151573" lon="4.393499019493538"><ele>635.0</ele><time>2026-04-03T14:38:53Z</time></trkpt><trkpt lat="44.92613549863998" lon="4.393395862129442"><ele>635.0</ele><time>2026-04-03T14:38:54Z</time></trkpt><trkpt lat="44.92607927687364" lon="4.393323674136128"><ele>635.0</ele><time>2026-04-03T14:38:55Z</time></trkpt><trkpt lat="44.92598285359424" lon="4.393310706967202"><ele>635.0</ele><time>2026-04-03T14:38:56Z</time></trkpt><trkpt lat="44.92590827203728" lon="4.39332644940967"><ele>635.0</ele><time>2026-04-03T14:38:57Z</time></trkpt><trkpt lat="44.9258158843595" lon="4.393435576863838"><ele>633.0</ele><time>2026-04-03T14:38:58Z</time></trkpt><trkpt lat="44.92581384847365" lon="4.393616228774642"><ele>631.0</ele><time>2026-04-03T14:38:59Z</time></trkpt><trkpt lat="44.92580686263052" lon="4.393732232962001"><ele>629.0</ele><time>2026-04-03T14:39:00Z</time></trkpt><trkpt lat="44.92580192850833" lon="4.393850970788665"><ele>627.0</ele><time>2026-04-03T14:39:01Z</time></trkpt><trkpt lat="44.92579764525609" lon="4.393981643934992"><ele>625.0</ele><time>2026-04-03T14:39:02Z</time></trkpt><trkpt lat="44.925794087698414" lon="4.394106340186577"><ele>622.4</ele><time>2026-04-03T14:39:03Z</time></trkpt><trkpt lat="44.92579218652313" lon="4.3942347141771085"><ele>619.8</ele><time>2026-04-03T14:39:04Z</time></trkpt><trkpt lat="44.92579330286709" lon="4.394363626500262"><ele>617.2</ele><time>2026-04-03T14:39:05Z</time></trkpt><trkpt lat="44.92580566396034" lon="4.394483904376395"><ele>614.6</ele><time>2026-04-03T14:39:06Z</time></trkpt><trkpt lat="44.925798314880325" lon="4.394573284237352"><ele>612.0</ele><time>2026-04-03T14:39:07Z</time></trkpt><trkpt lat="44.92573986323959" lon="4.3947301774259415"><ele>610.3333333333334</ele><time>2026-04-03T14:39:09Z</time></trkpt><trkpt lat="44.92569720206533" lon="4.39482803156348"><ele>608.6666666666666</ele><time>2026-04-03T14:39:10Z</time></trkpt><trkpt lat="44.92565244255216" lon="4.394924160710586"><ele>607.0</ele><time>2026-04-03T14:39:11Z</time></trkpt><trkpt lat="44.925602052507976" lon="4.395024986577308"><ele>605.3333333333333</ele><time>2026-04-03T14:39:12Z</time></trkpt><trkpt lat="44.925543747196755" lon="4.395129730586483"><ele>603.6666666666666</ele><time>2026-04-03T14:39:13Z</time></trkpt><trkpt lat="44.92547880829261" lon="4.395240413751163"><ele>602.0</ele><time>2026-04-03T14:39:14Z</time></trkpt><trkpt lat="44.92540761736731" lon="4.3953617542121455"><ele>602.0</ele><time>2026-04-03T14:39:15Z</time></trkpt><trkpt lat="44.92533493383106" lon="4.395485637474798"><ele>602.0</ele><time>2026-04-03T14:39:16Z</time></trkpt><trkpt lat="44.92526302395477" lon="4.395611213507359"><ele>602.0</ele><time>2026-04-03T14:39:17Z</time></trkpt><trkpt lat="44.92519616309834" lon="4.395741385892799"><ele>602.0</ele><time>2026-04-03T14:39:18Z</time></trkpt><trkpt lat="44.92513854709166" lon="4.395874851155447"><ele>600.4</ele><time>2026-04-03T14:39:19Z</time></trkpt><trkpt lat="44.92505857980763" lon="4.395971787430732"><ele>598.8000000000001</ele><time>2026-04-03T14:39:20Z</time></trkpt><trkpt lat="44.92498128644133" lon="4.396078308486676"><ele>597.2</ele><time>2026-04-03T14:39:21Z</time></trkpt><trkpt lat="44.924909126846664" lon="4.396185396392327"><ele>595.6</ele><time>2026-04-03T14:39:22Z</time></trkpt><trkpt lat="44.924849560619364" lon="4.396306233196697"><ele>594.0</ele><time>2026-04-03T14:39:23Z</time></trkpt><trkpt lat="44.92477382560065" lon="4.396401204391003"><ele>594.0</ele><time>2026-04-03T14:39:24Z</time></trkpt><trkpt lat="44.924741628296125" lon="4.396541758892377"><ele>594.0</ele><time>2026-04-03T14:39:25Z</time></trkpt><trkpt lat="44.92470664703345" lon="4.396665581859381"><ele>594.0</ele><time>2026-04-03T14:39:26Z</time></trkpt><trkpt lat="44.924670699801936" lon="4.396793622821059"><ele>594.0</ele><time>2026-04-03T14:39:27Z</time></trkpt><trkpt lat="44.92463029199557" lon="4.396915113976063"><ele>594.0</ele><time>2026-04-03T14:39:28Z</time></trkpt><trkpt lat="44.92459172744849" lon="4.397032076090162"><ele>594.0</ele><time>2026-04-03T14:39:29Z</time></trkpt><trkpt lat="44.92454586016128" lon="4.397137907887827"><ele>594.0</ele><time>2026-04-03T14:39:29.999Z</time></trkpt><trkpt lat="44.924499015003285" lon="4.397237792774247"><ele>594.0</ele><time>2026-04-03T14:39:30.999Z</time></trkpt><trkpt lat="44.9244504850771" lon="4.397326617927499"><ele>594.0</ele><time>2026-04-03T14:39:31.999Z</time></trkpt><trkpt lat="44.924387819652765" lon="4.3973963984343625"><ele>594.0</ele><time>2026-04-03T14:39:32.999Z</time></trkpt><trkpt lat="44.92431548643678" lon="4.397454064191182"><ele>594.0</ele><time>2026-04-03T14:39:33.999Z</time></trkpt><trkpt lat="44.92423134344865" lon="4.397413777528698"><ele>591.5</ele><time>2026-04-03T14:39:34.999Z</time></trkpt><trkpt lat="44.92416015501042" lon="4.397346955677437"><ele>589.0</ele><time>2026-04-03T14:39:35.999Z</time></trkpt><trkpt lat="44.92408744584192" lon="4.397281778613947"><ele>586.5</ele><time>2026-04-03T14:39:36.999Z</time></trkpt><trkpt lat="44.9240123497213" lon="4.39721017107494"><ele>584.0</ele><time>2026-04-03T14:39:37.999Z</time></trkpt><trkpt lat="44.92393627868902" lon="4.39713761037243"><ele>581.5</ele><time>2026-04-03T14:39:38.999Z</time></trkpt><trkpt lat="44.92386438203821" lon="4.397066375698957"><ele>579.0</ele><time>2026-04-03T14:39:39.999Z</time></trkpt><trkpt lat="44.92379124110145" lon="4.3969916139051435"><ele>583.1666666666666</ele><time>2026-04-03T14:39:40.999Z</time></trkpt><trkpt lat="44.92371770477191" lon="4.396921140865499"><ele>587.3333333333334</ele><time>2026-04-03T14:39:41.999Z</time></trkpt><trkpt lat="44.92363929600922" lon="4.396862880361904"><ele>591.5</ele><time>2026-04-03T14:39:42.999Z</time></trkpt><trkpt lat="44.923565565229374" lon="4.3968250459051355"><ele>595.6666666666667</ele><time>2026-04-03T14:39:43.999Z</time></trkpt><trkpt lat="44.92348212295357" lon="4.396825498196488"><ele>599.8333333333334</ele><time>2026-04-03T14:39:44.999Z</time></trkpt><trkpt lat="44.92340758885969" lon="4.396878627455747"><ele>604.0</ele><time>2026-04-03T14:39:45.999Z</time></trkpt><trkpt lat="44.92337164564103" lon="4.397050175631573"><ele>601.3333333333334</ele><time>2026-04-03T14:39:46.999Z</time></trkpt><trkpt lat="44.92340706516953" lon="4.397193382505164"><ele>598.6666666666667</ele><time>2026-04-03T14:39:47.999Z</time></trkpt><trkpt lat="44.923400074710166" lon="4.3972940451241165"><ele>596.0</ele><time>2026-04-03T14:39:48.999Z</time></trkpt><trkpt lat="44.923374546864245" lon="4.397395815853297"><ele>593.3333333333334</ele><time>2026-04-03T14:39:49.999Z</time></trkpt><trkpt lat="44.923358531249484" lon="4.397521483924984"><ele>590.6666666666666</ele><time>2026-04-03T14:39:50.999Z</time></trkpt><trkpt lat="44.9233192376254" lon="4.39762548433512"><ele>588.0</ele><time>2026-04-03T14:39:51.999Z</time></trkpt><trkpt lat="44.923292519870095" lon="4.397724553692272"><ele>588.0</ele><time>2026-04-03T14:39:52.999Z</time></trkpt><trkpt lat="44.92326612104795" lon="4.397817106140196"><ele>588.0</ele><time>2026-04-03T14:39:53.999Z</time></trkpt><trkpt lat="44.9232301750225" lon="4.397926301594011"><ele>588.0</ele><time>2026-04-03T14:39:54.999Z</time></trkpt><trkpt lat="44.92319917100632" lon="4.398010040142003"><ele>588.0</ele><time>2026-04-03T14:39:55.999Z</time></trkpt><trkpt lat="44.92315929732293" lon="4.3981105465570804"><ele>588.0</ele><time>2026-04-03T14:39:56.999Z</time></trkpt><trkpt lat="44.92312760856112" lon="4.398188098515893"><ele>588.0</ele><time>2026-04-03T14:39:57.999Z</time></trkpt><trkpt lat="44.92306199770068" lon="4.398332229425484"><ele>584.5</ele><time>2026-04-03T14:39:59.999Z</time></trkpt><trkpt lat="44.92302390623935" lon="4.39841522871089"><ele>581.0</ele><time>2026-04-03T14:40:00.999Z</time></trkpt><trkpt lat="44.92297444120751" lon="4.3985231174171675"><ele>577.5</ele><time>2026-04-03T14:40:04.999Z</time></trkpt><trkpt lat="44.92314720053444" lon="4.398597870784182"><ele>574.0</ele><time>2026-04-03T14:40:07.999Z</time></trkpt><trkpt lat="44.923166273583114" lon="4.398405752607437"><ele>574.0</ele><time>2026-04-03T14:40:09.999Z</time></trkpt><trkpt lat="44.92326117662284" lon="4.39828289667519"><ele>574.0</ele><time>2026-04-03T14:40:11.999Z</time></trkpt><trkpt lat="44.92333788613063" lon="4.39814734646618"><ele>574.0</ele><time>2026-04-03T14:40:13.999Z</time></trkpt><trkpt lat="44.92339020939133" lon="4.398050518339336"><ele>574.0</ele><time>2026-04-03T14:40:15.999Z</time></trkpt><trkpt lat="44.923454249796286" lon="4.398088569864088"><ele>574.0</ele><time>2026-04-03T14:40:17.999Z</time></trkpt><trkpt lat="44.923396328151256" lon="4.398174615337161"><ele>574.0</ele><time>2026-04-03T14:40:18.999Z</time></trkpt><trkpt lat="44.923360918787" lon="4.39827819962816"><ele>574.0</ele><time>2026-04-03T14:40:20.999Z</time></trkpt><trkpt lat="44.923346284386874" lon="4.398436749083713"><ele>574.0</ele><time>2026-04-03T14:40:22.999Z</time></trkpt><trkpt lat="44.92333122471506" lon="4.398526427737057"><ele>574.0</ele><time>2026-04-03T14:40:23.999Z</time></trkpt><trkpt lat="44.923320790997735" lon="4.398662982356223"><ele>574.0</ele><time>2026-04-03T14:40:26Z</time></trkpt><trkpt lat="44.92338175082538" lon="4.398702023558207"><ele>574.0</ele><time>2026-04-03T14:40:27Z</time></trkpt><trkpt lat="44.923419262144066" lon="4.398606564975382"><ele>575.0</ele><time>2026-04-03T14:40:28Z</time></trkpt><trkpt lat="44.92347791202189" lon="4.398507608587781"><ele>576.0</ele><time>2026-04-03T14:40:31Z</time></trkpt><trkpt lat="44.92353911475071" lon="4.398386185752715"><ele>577.0</ele><time>2026-04-03T14:40:33Z</time></trkpt><trkpt lat="44.923605755357606" lon="4.398233349029379"><ele>578.0</ele><time>2026-04-03T14:40:35Z</time></trkpt><trkpt lat="44.92365670960085" lon="4.398086632815591"><ele>579.0</ele><time>2026-04-03T14:40:37Z</time></trkpt><trkpt lat="44.92371970985221" lon="4.3979822470358165"><ele>574.4</ele><time>2026-04-03T14:40:39Z</time></trkpt><trkpt lat="44.92379045084532" lon="4.398024072005419"><ele>569.8</ele><time>2026-04-03T14:40:41Z</time></trkpt><trkpt lat="44.9238485201564" lon="4.398211774621094"><ele>565.2</ele><time>2026-04-03T14:40:43Z</time></trkpt><trkpt lat="44.92388860273704" lon="4.398324767697144"><ele>560.6</ele><time>2026-04-03T14:40:44Z</time></trkpt><trkpt lat="44.92393897965709" lon="4.39842799183707"><ele>556.0</ele><time>2026-04-03T14:40:45Z</time></trkpt><trkpt lat="44.923983246495794" lon="4.398521274528076"><ele>556.0</ele><time>2026-04-03T14:40:46Z</time></trkpt><trkpt lat="44.92402557391352" lon="4.398605104115957"><ele>556.0</ele><time>2026-04-03T14:40:47Z</time></trkpt><trkpt lat="44.92403116105182" lon="4.3987599363905945"><ele>556.0</ele><time>2026-04-03T14:40:49Z</time></trkpt><trkpt lat="44.923921874668736" lon="4.398841836996736"><ele>556.0</ele><time>2026-04-03T14:40:51Z</time></trkpt><trkpt lat="44.923880852240444" lon="4.398910122807398"><ele>556.0</ele><time>2026-04-03T14:40:52Z</time></trkpt><trkpt lat="44.923825664469554" lon="4.3990330095926184"><ele>553.4</ele><time>2026-04-03T14:40:54Z</time></trkpt><trkpt lat="44.92381566538728" lon="4.399123330698657"><ele>550.8</ele><time>2026-04-03T14:40:55Z</time></trkpt><trkpt lat="44.92380397188833" lon="4.3992740961712045"><ele>548.1999999999999</ele><time>2026-04-03T14:40:57Z</time></trkpt><trkpt lat="44.92384449678054" lon="4.399363700457111"><ele>545.6</ele><time>2026-04-03T14:40:59Z</time></trkpt><trkpt lat="44.92380979417843" lon="4.399496750325983"><ele>543.0</ele><time>2026-04-03T14:41:02Z</time></trkpt><trkpt lat="44.923764412839894" lon="4.399625375423633"><ele>540.25</ele><time>2026-04-03T14:41:04Z</time></trkpt><trkpt lat="44.92371617879463" lon="4.399718822434514"><ele>537.5</ele><time>2026-04-03T14:41:05Z</time></trkpt><trkpt lat="44.92364855954651" lon="4.399839281150052"><ele>534.75</ele><time>2026-04-03T14:41:06Z</time></trkpt><trkpt lat="44.9235668393307" lon="4.399987184760521"><ele>532.0</ele><time>2026-04-03T14:41:07Z</time></trkpt><trkpt lat="44.92348461638442" lon="4.40014278782299"><ele>532.0</ele><time>2026-04-03T14:41:08Z</time></trkpt><trkpt lat="44.92341526716507" lon="4.400311521644121"><ele>532.0</ele><time>2026-04-03T14:41:09Z</time></trkpt><trkpt lat="44.92335167666939" lon="4.4004986368859145"><ele>532.0</ele><time>2026-04-03T14:41:10Z</time></trkpt><trkpt lat="44.923294692612096" lon="4.400690729154594"><ele>532.0</ele><time>2026-04-03T14:41:11Z</time></trkpt><trkpt lat="44.92325680561588" lon="4.40089435534553"><ele>533.25</ele><time>2026-04-03T14:41:12Z</time></trkpt><trkpt lat="44.92320116057433" lon="4.401088050603656"><ele>534.5</ele><time>2026-04-03T14:41:13Z</time></trkpt><trkpt lat="44.92315176720704" lon="4.40128719444482"><ele>535.75</ele><time>2026-04-03T14:41:14Z</time></trkpt><trkpt lat="44.923071136769806" lon="4.401462223696181"><ele>537.0</ele><time>2026-04-03T14:41:15Z</time></trkpt><trkpt lat="44.92298438651307" lon="4.401629676315099"><ele>538.5</ele><time>2026-04-03T14:41:16Z</time></trkpt><trkpt lat="44.922891751063496" lon="4.40178874819366"><ele>540.0</ele><time>2026-04-03T14:41:17Z</time></trkpt><trkpt lat="44.92278863489213" lon="4.401928281608672"><ele>541.5</ele><time>2026-04-03T14:41:18Z</time></trkpt><trkpt lat="44.92265005688437" lon="4.4020342391691045"><ele>543.0</ele><time>2026-04-03T14:41:19Z</time></trkpt><trkpt lat="44.92251192983202" lon="4.402139056961961"><ele>537.0</ele><time>2026-04-03T14:41:20Z</time></trkpt><trkpt lat="44.92237787098001" lon="4.402248479815819"><ele>531.0</ele><time>2026-04-03T14:41:21Z</time></trkpt><trkpt lat="44.92227744320536" lon="4.402404167831378"><ele>525.0</ele><time>2026-04-03T14:41:22Z</time></trkpt><trkpt lat="44.92219757237912" lon="4.402566394014592"><ele>519.0</ele><time>2026-04-03T14:41:23Z</time></trkpt><trkpt lat="44.9220916784531" lon="4.402667744853973"><ele>519.0</ele><time>2026-04-03T14:41:24Z</time></trkpt><trkpt lat="44.92200542336923" lon="4.402764634349129"><ele>519.0</ele><time>2026-04-03T14:41:25Z</time></trkpt><trkpt lat="44.921900797836635" lon="4.402814059652132"><ele>519.0</ele><time>2026-04-03T14:41:26Z</time></trkpt><trkpt lat="44.921791059641386" lon="4.402806240531168"><ele>519.0</ele><time>2026-04-03T14:41:27Z</time></trkpt><trkpt lat="44.921667801854205" lon="4.402757527368251"><ele>522.25</ele><time>2026-04-03T14:41:28Z</time></trkpt><trkpt lat="44.921537587186506" lon="4.402673733015417"><ele>525.5</ele><time>2026-04-03T14:41:29Z</time></trkpt><trkpt lat="44.92139471407678" lon="4.402618127621335"><ele>528.75</ele><time>2026-04-03T14:41:30Z</time></trkpt><trkpt lat="44.921238094585014" lon="4.4025996108467575"><ele>532.0</ele><time>2026-04-03T14:41:31Z</time></trkpt><trkpt lat="44.92109310447475" lon="4.402595865691462"><ele>532.0</ele><time>2026-04-03T14:41:32Z</time></trkpt><trkpt lat="44.92095080068513" lon="4.402748644982175"><ele>532.0</ele><time>2026-04-03T14:41:33Z</time></trkpt><trkpt lat="44.92081976783699" lon="4.402782185163941"><ele>532.0</ele><time>2026-04-03T14:41:34Z</time></trkpt><trkpt lat="44.92068458645303" lon="4.402762850268827"><ele>532.0</ele><time>2026-04-03T14:41:35Z</time></trkpt><trkpt lat="44.92057620671736" lon="4.40265707666767"><ele>530.5</ele><time>2026-04-03T14:41:36Z</time></trkpt><trkpt lat="44.92045991669626" lon="4.402586665118315"><ele>529.0</ele><time>2026-04-03T14:41:37Z</time></trkpt><trkpt lat="44.920344499653" lon="4.402561424679737"><ele>527.5</ele><time>2026-04-03T14:41:38Z</time></trkpt><trkpt lat="44.92023554468122" lon="4.402577071637414"><ele>526.0</ele><time>2026-04-03T14:41:38.999Z</time></trkpt><trkpt lat="44.92014770273515" lon="4.402744835498397"><ele>525.3333333333334</ele><time>2026-04-03T14:41:39.999Z</time></trkpt><trkpt lat="44.92006029409668" lon="4.402891979852212"><ele>524.6666666666666</ele><time>2026-04-03T14:41:40.999Z</time></trkpt><trkpt lat="44.920027481954044" lon="4.403106599830708"><ele>524.0</ele><time>2026-04-03T14:41:41.999Z</time></trkpt><trkpt lat="44.9200113793306" lon="4.403335569230261"><ele>524.0</ele><time>2026-04-03T14:41:42.999Z</time></trkpt><trkpt lat="44.92002131661014" lon="4.403578274152575"><ele>524.0</ele><time>2026-04-03T14:41:43.999Z</time></trkpt><trkpt lat="44.92002935269454" lon="4.403816674654998"><ele>524.0</ele><time>2026-04-03T14:41:44.999Z</time></trkpt><trkpt lat="44.919998530723866" lon="4.4040632720376065"><ele>521.6666666666666</ele><time>2026-04-03T14:41:45.999Z</time></trkpt><trkpt lat="44.9199286309993" lon="4.4042992232508364"><ele>519.3333333333334</ele><time>2026-04-03T14:41:46.999Z</time></trkpt><trkpt lat="44.91982963955924" lon="4.404537635191805"><ele>517.0</ele><time>2026-04-03T14:41:47.999Z</time></trkpt><trkpt lat="44.91970209436406" lon="4.404765757607611"><ele>513.3333333333334</ele><time>2026-04-03T14:41:48.999Z</time></trkpt><trkpt lat="44.919620966769834" lon="4.405039648506059"><ele>509.66666666666663</ele><time>2026-04-03T14:41:49.999Z</time></trkpt><trkpt lat="44.91955750944022" lon="4.405308798544988"><ele>506.0</ele><time>2026-04-03T14:41:50.999Z</time></trkpt><trkpt lat="44.919477668087595" lon="4.4055357032718865"><ele>502.0</ele><time>2026-04-03T14:41:51.999Z</time></trkpt><trkpt lat="44.9194491115359" lon="4.405788931140336"><ele>498.0</ele><time>2026-04-03T14:41:52.999Z</time></trkpt><trkpt lat="44.91946998833958" lon="4.406044076876109"><ele>494.0</ele><time>2026-04-03T14:41:53.999Z</time></trkpt><trkpt lat="44.91949166882751" lon="4.406308319491348"><ele>489.66666666666663</ele><time>2026-04-03T14:41:54.999Z</time></trkpt><trkpt lat="44.919491419442544" lon="4.406587350042847"><ele>485.33333333333337</ele><time>2026-04-03T14:41:55.999Z</time></trkpt><trkpt lat="44.91949631687671" lon="4.4068856327600034"><ele>481.0</ele><time>2026-04-03T14:41:56.999Z</time></trkpt><trkpt lat="44.91952094907823" lon="4.407175403083885"><ele>480.6666666666667</ele><time>2026-04-03T14:41:57.999Z</time></trkpt><trkpt lat="44.91952509892376" lon="4.407467962271181"><ele>480.33333333333337</ele><time>2026-04-03T14:41:58.999Z</time></trkpt><trkpt lat="44.91949196656642" lon="4.407745548327411"><ele>480.0</ele><time>2026-04-03T14:41:59.999Z</time></trkpt><trkpt lat="44.919452495467695" lon="4.408024156023135"><ele>480.0</ele><time>2026-04-03T14:42:00.999Z</time></trkpt><trkpt lat="44.91940925422629" lon="4.408295228077329"><ele>480.0</ele><time>2026-04-03T14:42:01.999Z</time></trkpt><trkpt lat="44.9193569633751" lon="4.408541223582331"><ele>480.0</ele><time>2026-04-03T14:42:02.999Z</time></trkpt><trkpt lat="44.919282749111396" lon="4.408737937535144"><ele>489.66666666666663</ele><time>2026-04-03T14:42:03.999Z</time></trkpt><trkpt lat="44.919192618096325" lon="4.40889514204507"><ele>499.3333333333333</ele><time>2026-04-03T14:42:04.999Z</time></trkpt><trkpt lat="44.91907819404512" lon="4.4090193945472"><ele>509.0</ele><time>2026-04-03T14:42:05.999Z</time></trkpt><trkpt lat="44.91893757494881" lon="4.40915567605808"><ele>509.0</ele><time>2026-04-03T14:42:06.999Z</time></trkpt><trkpt lat="44.91877803019511" lon="4.409298651517341"><ele>509.0</ele><time>2026-04-03T14:42:07.999Z</time></trkpt><trkpt lat="44.91861901629484" lon="4.409428192176045"><ele>509.0</ele><time>2026-04-03T14:42:08.999Z</time></trkpt><trkpt lat="44.91846575190671" lon="4.409548633850821"><ele>506.0</ele><time>2026-04-03T14:42:09.999Z</time></trkpt><trkpt lat="44.91831979688408" lon="4.409661090626824"><ele>503.0</ele><time>2026-04-03T14:42:10.999Z</time></trkpt><trkpt lat="44.918169746510586" lon="4.409752450953325"><ele>500.0</ele><time>2026-04-03T14:42:11.999Z</time></trkpt><trkpt lat="44.91801373645467" lon="4.409832023007521"><ele>500.0</ele><time>2026-04-03T14:42:12.999Z</time></trkpt><trkpt lat="44.917856882140775" lon="4.409893504594453"><ele>500.0</ele><time>2026-04-03T14:42:13.999Z</time></trkpt><trkpt lat="44.917706388887986" lon="4.409981556045491"><ele>500.0</ele><time>2026-04-03T14:42:14.999Z</time></trkpt><trkpt lat="44.91757778508179" lon="4.410056545177629"><ele>501.5</ele><time>2026-04-03T14:42:15.999Z</time></trkpt><trkpt lat="44.91743758756815" lon="4.410112696535972"><ele>503.0</ele><time>2026-04-03T14:42:16.999Z</time></trkpt><trkpt lat="44.91730752534564" lon="4.410166138736422"><ele>504.5</ele><time>2026-04-03T14:42:17.999Z</time></trkpt><trkpt lat="44.91717818334032" lon="4.410168398658854"><ele>506.0</ele><time>2026-04-03T14:42:18.999Z</time></trkpt><trkpt lat="44.917065408843314" lon="4.410205210219036"><ele>506.0</ele><time>2026-04-03T14:42:19.999Z</time></trkpt><trkpt lat="44.91697063839357" lon="4.41028175647937"><ele>506.0</ele><time>2026-04-03T14:42:20.999Z</time></trkpt><trkpt lat="44.916884071129424" lon="4.410361632226573"><ele>506.0</ele><time>2026-04-03T14:42:21.999Z</time></trkpt><trkpt lat="44.916844290356764" lon="4.410524156898352"><ele>506.0</ele><time>2026-04-03T14:42:22.999Z</time></trkpt><trkpt lat="44.91687116496059" lon="4.4107034396961575"><ele>502.5</ele><time>2026-04-03T14:42:23.999Z</time></trkpt><trkpt lat="44.91693605985194" lon="4.4108635597493"><ele>499.0</ele><time>2026-04-03T14:42:24.999Z</time></trkpt><trkpt lat="44.917042425959124" lon="4.410984603411069"><ele>495.5</ele><time>2026-04-03T14:42:25.999Z</time></trkpt><trkpt lat="44.91715976644326" lon="4.411073988508909"><ele>492.0</ele><time>2026-04-03T14:42:26.999Z</time></trkpt><trkpt lat="44.91726744986653" lon="4.411173148882067"><ele>492.0</ele><time>2026-04-03T14:42:27.999Z</time></trkpt><trkpt lat="44.9173488615021" lon="4.411310166022793"><ele>492.0</ele><time>2026-04-03T14:42:28.999Z</time></trkpt><trkpt lat="44.91738784831882" lon="4.411471815895074"><ele>492.0</ele><time>2026-04-03T14:42:29.999Z</time></trkpt><trkpt lat="44.91736751107142" lon="4.411648569196959"><ele>492.0</ele><time>2026-04-03T14:42:31Z</time></trkpt><trkpt lat="44.91731688865927" lon="4.41180734264192"><ele>492.25</ele><time>2026-04-03T14:42:32Z</time></trkpt><trkpt lat="44.91724902467904" lon="4.411989344332632"><ele>492.5</ele><time>2026-04-03T14:42:33Z</time></trkpt><trkpt lat="44.91715366442873" lon="4.41215780932666"><ele>492.75</ele><time>2026-04-03T14:42:34Z</time></trkpt><trkpt lat="44.917066263369115" lon="4.412271902850242"><ele>493.0</ele><time>2026-04-03T14:42:35Z</time></trkpt><trkpt lat="44.91690579090579" lon="4.412433232412736"><ele>497.6666666666667</ele><time>2026-04-03T14:42:36Z</time></trkpt><trkpt lat="44.91672309499735" lon="4.412588403670549"><ele>502.33333333333337</ele><time>2026-04-03T14:42:37Z</time></trkpt><trkpt lat="44.916577148079995" lon="4.4127112135672535"><ele>507.0</ele><time>2026-04-03T14:42:38Z</time></trkpt><trkpt lat="44.91643939101199" lon="4.412883763349496"><ele>497.66666666666663</ele><time>2026-04-03T14:42:39Z</time></trkpt><trkpt lat="44.91632024152293" lon="4.41307287020936"><ele>488.3333333333333</ele><time>2026-04-03T14:42:40Z</time></trkpt><trkpt lat="44.916196275149865" lon="4.4132328030814225"><ele>479.0</ele><time>2026-04-03T14:42:41Z</time></trkpt><trkpt lat="44.916083598959894" lon="4.413354098485555"><ele>479.0</ele><time>2026-04-03T14:42:42Z</time></trkpt><trkpt lat="44.91599061136565" lon="4.413445347277175"><ele>479.0</ele><time>2026-04-03T14:42:43Z</time></trkpt><trkpt lat="44.915894562628075" lon="4.413566343060516"><ele>479.0</ele><time>2026-04-03T14:42:44Z</time></trkpt><trkpt lat="44.91573976410697" lon="4.413615776615436"><ele>479.0</ele><time>2026-04-03T14:42:45Z</time></trkpt><trkpt lat="44.91560492715023" lon="4.413671628330827"><ele>478.0</ele><time>2026-04-03T14:42:46Z</time></trkpt><trkpt lat="44.915492095138575" lon="4.413758149589854"><ele>477.0</ele><time>2026-04-03T14:42:47Z</time></trkpt><trkpt lat="44.91539233527227" lon="4.413843240377887"><ele>476.0</ele><time>2026-04-03T14:42:48Z</time></trkpt><trkpt lat="44.915296562266334" lon="4.41389930974717"><ele>475.0</ele><time>2026-04-03T14:42:49Z</time></trkpt><trkpt lat="44.91519942555612" lon="4.413919932555653"><ele>474.0</ele><time>2026-04-03T14:42:50Z</time></trkpt><trkpt lat="44.91510113162181" lon="4.413943845361028"><ele>476.79999999999995</ele><time>2026-04-03T14:42:51Z</time></trkpt><trkpt lat="44.91503156619541" lon="4.413924174275689"><ele>479.59999999999997</ele><time>2026-04-03T14:42:52Z</time></trkpt><trkpt lat="44.91498235365276" lon="4.41384999717956"><ele>482.4</ele><time>2026-04-03T14:42:53Z</time></trkpt><trkpt lat="44.91507726952526" lon="4.41363374846054"><ele>485.2</ele><time>2026-04-03T14:42:55Z</time></trkpt><trkpt lat="44.91511751173166" lon="4.413546927895002"><ele>488.0</ele><time>2026-04-03T14:42:56Z</time></trkpt><trkpt lat="44.91518819879839" lon="4.413447832678966"><ele>492.75</ele><time>2026-04-03T14:42:57Z</time></trkpt><trkpt lat="44.91526266684772" lon="4.413338944719883"><ele>497.5</ele><time>2026-04-03T14:42:58Z</time></trkpt><trkpt lat="44.915348097082806" lon="4.413230210970667"><ele>502.25</ele><time>2026-04-03T14:42:59Z</time></trkpt><trkpt lat="44.915434741093925" lon="4.413124365708718"><ele>507.0</ele><time>2026-04-03T14:43:00Z</time></trkpt><trkpt lat="44.91555139382885" lon="4.413010129254496"><ele>507.0</ele><time>2026-04-03T14:43:01Z</time></trkpt><trkpt lat="44.9156469201944" lon="4.4128994572528875"><ele>507.0</ele><time>2026-04-03T14:43:02Z</time></trkpt><trkpt lat="44.915730685645265" lon="4.4128036295670325"><ele>507.0</ele><time>2026-04-03T14:43:03Z</time></trkpt><trkpt lat="44.91581773293046" lon="4.412704568452901"><ele>507.0</ele><time>2026-04-03T14:43:04Z</time></trkpt><trkpt lat="44.91590567762695" lon="4.412604694191228"><ele>507.0</ele><time>2026-04-03T14:43:05Z</time></trkpt><trkpt lat="44.91600934029961" lon="4.412496623872401"><ele>507.0</ele><time>2026-04-03T14:43:06Z</time></trkpt><trkpt lat="44.916089580509535" lon="4.412346756331896"><ele>507.0</ele><time>2026-04-03T14:43:07Z</time></trkpt><trkpt lat="44.91619269227005" lon="4.412253487976215"><ele>507.0</ele><time>2026-04-03T14:43:08Z</time></trkpt><trkpt lat="44.91627989942365" lon="4.4121603977309976"><ele>509.40000000000003</ele><time>2026-04-03T14:43:09Z</time></trkpt><trkpt lat="44.916365016327035" lon="4.4120681540310605"><ele>511.80000000000007</ele><time>2026-04-03T14:43:10Z</time></trkpt><trkpt lat="44.916426672941526" lon="4.411978287972475"><ele>514.2</ele><time>2026-04-03T14:43:11Z</time></trkpt><trkpt lat="44.91647877302325" lon="4.411915469087994"><ele>516.6</ele><time>2026-04-03T14:43:12Z</time></trkpt><trkpt lat="44.91649092832667" lon="4.411788769587188"><ele>519.0</ele><time>2026-04-03T14:43:14Z</time></trkpt><trkpt lat="44.916357197159584" lon="4.411694118335053"><ele>519.0</ele><time>2026-04-03T14:43:16Z</time></trkpt><trkpt lat="44.9162537966646" lon="4.411705532392384"><ele>519.0</ele><time>2026-04-03T14:43:17Z</time></trkpt><trkpt lat="44.916152508065394" lon="4.411794535088789"><ele>519.0</ele><time>2026-04-03T14:43:18Z</time></trkpt><trkpt lat="44.91605083111994" lon="4.411868185138063"><ele>519.0</ele><time>2026-04-03T14:43:19Z</time></trkpt><trkpt lat="44.91593310821051" lon="4.411933896664785"><ele>522.4</ele><time>2026-04-03T14:43:20Z</time></trkpt><trkpt lat="44.91582233482586" lon="4.411994367010748"><ele>525.8</ele><time>2026-04-03T14:43:21Z</time></trkpt><trkpt lat="44.91571678437131" lon="4.412044763057994"><ele>529.2</ele><time>2026-04-03T14:43:22Z</time></trkpt><trkpt lat="44.91562096158797" lon="4.412078376197448"><ele>532.6</ele><time>2026-04-03T14:43:23Z</time></trkpt><trkpt lat="44.91555268903305" lon="4.412095727891076"><ele>536.0</ele><time>2026-04-03T14:43:24Z</time></trkpt><trkpt lat="44.91547691963819" lon="4.4120719371693085"><ele>536.0</ele><time>2026-04-03T14:43:26Z</time></trkpt><trkpt lat="44.915582665008465" lon="4.411861742129194"><ele>536.0</ele><time>2026-04-03T14:43:29Z</time></trkpt><trkpt lat="44.91561773097452" lon="4.411743899088493"><ele>536.0</ele><time>2026-04-03T14:43:30Z</time></trkpt><trkpt lat="44.91565121545103" lon="4.411604832359444"><ele>536.0</ele><time>2026-04-03T14:43:31Z</time></trkpt><trkpt lat="44.91566712156882" lon="4.411453339065441"><ele>538.0</ele><time>2026-04-03T14:43:32Z</time></trkpt><trkpt lat="44.91566662725295" lon="4.411295855476052"><ele>540.0</ele><time>2026-04-03T14:43:33Z</time></trkpt><trkpt lat="44.91565486005446" lon="4.4111357838331"><ele>542.0</ele><time>2026-04-03T14:43:34Z</time></trkpt><trkpt lat="44.9156554716969" lon="4.410966862719025"><ele>544.0</ele><time>2026-04-03T14:43:35Z</time></trkpt><trkpt lat="44.9156180729064" lon="4.410778674840229"><ele>544.0</ele><time>2026-04-03T14:43:36Z</time></trkpt><trkpt lat="44.91558831151191" lon="4.4105876925922445"><ele>544.0</ele><time>2026-04-03T14:43:37Z</time></trkpt><trkpt lat="44.91556896286137" lon="4.410419016641989"><ele>544.0</ele><time>2026-04-03T14:43:38Z</time></trkpt><trkpt lat="44.9155410873371" lon="4.410245704084389"><ele>544.0</ele><time>2026-04-03T14:43:39Z</time></trkpt><trkpt lat="44.915519102683795" lon="4.410073337915208"><ele>543.8333333333334</ele><time>2026-04-03T14:43:40Z</time></trkpt><trkpt lat="44.91551318339862" lon="4.409940379566615"><ele>543.6666666666667</ele><time>2026-04-03T14:43:41Z</time></trkpt><trkpt lat="44.9154950377472" lon="4.409824054630267"><ele>543.5</ele><time>2026-04-03T14:43:42Z</time></trkpt><trkpt lat="44.91545789882335" lon="4.409720612458763"><ele>543.3333333333334</ele><time>2026-04-03T14:43:43Z</time></trkpt><trkpt lat="44.91538225524356" lon="4.409653999436278"><ele>543.1666666666666</ele><time>2026-04-03T14:43:45Z</time></trkpt><trkpt lat="44.91530593644998" lon="4.409647179287978"><ele>543.0</ele><time>2026-04-03T14:43:48.999Z</time></trkpt><trkpt lat="44.91532325593724" lon="4.409809105431869"><ele>543.0</ele><time>2026-04-03T14:44:07.999Z</time></trkpt><trkpt lat="44.91536164444169" lon="4.409994514619179"><ele>543.0</ele><time>2026-04-03T14:44:09.999Z</time></trkpt><trkpt lat="44.91530322722755" lon="4.4101455500635485"><ele>543.0</ele><time>2026-04-03T14:44:11.999Z</time></trkpt><trkpt lat="44.915229679620914" lon="4.410171256525356"><ele>543.0</ele><time>2026-04-03T14:44:13.999Z</time></trkpt><trkpt lat="44.91520008253169" lon="4.409983863502913"><ele>543.0</ele><time>2026-04-03T14:44:15.999Z</time></trkpt><trkpt lat="44.91516348429228" lon="4.409895577943201"><ele>543.0</ele><time>2026-04-03T14:44:16.999Z</time></trkpt><trkpt lat="44.915107144638256" lon="4.409824469042909"><ele>543.0</ele><time>2026-04-03T14:44:17.999Z</time></trkpt><trkpt lat="44.915045754940444" lon="4.409690461553494"><ele>543.0</ele><time>2026-04-03T14:44:19.999Z</time></trkpt><trkpt lat="44.914994305203706" lon="4.4096232533697055"><ele>543.0</ele><time>2026-04-03T14:44:20.999Z</time></trkpt><trkpt lat="44.91492648300669" lon="4.40955254396434"><ele>543.0</ele><time>2026-04-03T14:44:21.999Z</time></trkpt><trkpt lat="44.91485820966516" lon="4.4094940797131885"><ele>546.0</ele><time>2026-04-03T14:44:22.999Z</time></trkpt><trkpt lat="44.91477449354456" lon="4.409436751777052"><ele>549.0</ele><time>2026-04-03T14:44:23.999Z</time></trkpt><trkpt lat="44.914691014032485" lon="4.409394546118646"><ele>552.0</ele><time>2026-04-03T14:44:24.999Z</time></trkpt><trkpt lat="44.91461248391046" lon="4.40936262401559"><ele>555.0</ele><time>2026-04-03T14:44:25.999Z</time></trkpt><trkpt lat="44.914530817778896" lon="4.409344097388801"><ele>558.0</ele><time>2026-04-03T14:44:26.999Z</time></trkpt><trkpt lat="44.91444736810749" lon="4.409352044421857"><ele>561.0</ele><time>2026-04-03T14:44:27.999Z</time></trkpt><trkpt lat="44.914381004535024" lon="4.4093865272582695"><ele>561.0</ele><time>2026-04-03T14:44:28.999Z</time></trkpt><trkpt lat="44.91427596212165" lon="4.409488900080761"><ele>561.0</ele><time>2026-04-03T14:44:30.999Z</time></trkpt><trkpt lat="44.914245477188445" lon="4.4096338262057095"><ele>561.0</ele><time>2026-04-03T14:44:32.999Z</time></trkpt><trkpt lat="44.91421444756024" lon="4.4098022257635465"><ele>561.0</ele><time>2026-04-03T14:44:34.999Z</time></trkpt><trkpt lat="44.91421156243971" lon="4.409896191158841"><ele>561.0</ele><time>2026-04-03T14:44:35.999Z</time></trkpt><trkpt lat="44.91421850583732" lon="4.4100208587181156"><ele>564.6</ele><time>2026-04-03T14:44:38Z</time></trkpt><trkpt lat="44.914141969066726" lon="4.410118819564593"><ele>568.2</ele><time>2026-04-03T14:44:40Z</time></trkpt><trkpt lat="44.91406047850034" lon="4.410067434020855"><ele>571.8</ele><time>2026-04-03T14:44:42Z</time></trkpt><trkpt lat="44.91396763382309" lon="4.410029963210832"><ele>575.4</ele><time>2026-04-03T14:44:44Z</time></trkpt><trkpt lat="44.91387492200246" lon="4.410131999784778"><ele>579.0</ele><time>2026-04-03T14:44:46Z</time></trkpt><trkpt lat="44.91373939183794" lon="4.4100728829725115"><ele>579.0</ele><time>2026-04-03T14:44:48Z</time></trkpt><trkpt lat="44.91367538738673" lon="4.410084578871245"><ele>579.0</ele><time>2026-04-03T14:44:49Z</time></trkpt><trkpt lat="44.91356805059637" lon="4.410052092314686"><ele>579.0</ele><time>2026-04-03T14:44:51Z</time></trkpt><trkpt lat="44.913515244552144" lon="4.410217290405085"><ele>579.0</ele><time>2026-04-03T14:44:52Z</time></trkpt><trkpt lat="44.91347408667697" lon="4.410341997958376"><ele>579.0</ele><time>2026-04-03T14:44:53Z</time></trkpt><trkpt lat="44.913426587293664" lon="4.410477810387595"><ele>580.0</ele><time>2026-04-03T14:44:54Z</time></trkpt><trkpt lat="44.91336382429816" lon="4.410578074374135"><ele>581.0</ele><time>2026-04-03T14:44:55Z</time></trkpt><trkpt lat="44.91332145869959" lon="4.410685919375452"><ele>582.0</ele><time>2026-04-03T14:44:56Z</time></trkpt><trkpt lat="44.91326284052504" lon="4.410766116399312"><ele>583.0</ele><time>2026-04-03T14:44:57Z</time></trkpt><trkpt lat="44.91321917451235" lon="4.410874375419394"><ele>584.0</ele><time>2026-04-03T14:44:58Z</time></trkpt><trkpt lat="44.91315243339158" lon="4.410959808638094"><ele>585.0</ele><time>2026-04-03T14:44:59Z</time></trkpt><trkpt lat="44.91305658957575" lon="4.410952746816753"><ele>585.0</ele><time>2026-04-03T14:45:00Z</time></trkpt><trkpt lat="44.91295693188485" lon="4.411020381970202"><ele>585.0</ele><time>2026-04-03T14:45:02Z</time></trkpt><trkpt lat="44.91289251479287" lon="4.411068462461634"><ele>585.0</ele><time>2026-04-03T14:45:03Z</time></trkpt><trkpt lat="44.91283749252702" lon="4.41111321487855"><ele>585.0</ele><time>2026-04-03T14:45:04Z</time></trkpt><trkpt lat="44.91269596504686" lon="4.411283423070158"><ele>585.0</ele><time>2026-04-03T14:45:06Z</time></trkpt><trkpt lat="44.91259826131547" lon="4.41146962458182"><ele>588.0</ele><time>2026-04-03T14:45:07Z</time></trkpt><trkpt lat="44.91253876391811" lon="4.411572209363691"><ele>591.0</ele><time>2026-04-03T14:45:08Z</time></trkpt><trkpt lat="44.91247818624894" lon="4.411683097352141"><ele>594.0</ele><time>2026-04-03T14:45:09Z</time></trkpt><trkpt lat="44.91240311768645" lon="4.411819346360176"><ele>597.0</ele><time>2026-04-03T14:45:10Z</time></trkpt><trkpt lat="44.912314916137326" lon="4.411968119117792"><ele>597.0</ele><time>2026-04-03T14:45:11Z</time></trkpt><trkpt lat="44.91222930727818" lon="4.412098055624133"><ele>597.0</ele><time>2026-04-03T14:45:12Z</time></trkpt><trkpt lat="44.91214427865036" lon="4.412212769240467"><ele>597.0</ele><time>2026-04-03T14:45:13Z</time></trkpt><trkpt lat="44.91205139234808" lon="4.41233177494594"><ele>597.0</ele><time>2026-04-03T14:45:14Z</time></trkpt><trkpt lat="44.91195545780264" lon="4.412449372111698"><ele>596.5</ele><time>2026-04-03T14:45:15Z</time></trkpt><trkpt lat="44.91188495640948" lon="4.412534417100167"><ele>596.0</ele><time>2026-04-03T14:45:16Z</time></trkpt><trkpt lat="44.91183319964574" lon="4.412596338655005"><ele>595.5</ele><time>2026-04-03T14:45:17Z</time></trkpt><trkpt lat="44.91178462193005" lon="4.412654456731085"><ele>595.0</ele><time>2026-04-03T14:45:18Z</time></trkpt><trkpt lat="44.91172563031727" lon="4.412725033995592"><ele>594.5</ele><time>2026-04-03T14:45:22Z</time></trkpt><trkpt lat="44.91167183973855" lon="4.412802027488993"><ele>594.0</ele><time>2026-04-03T14:45:28Z</time></trkpt><trkpt lat="44.91175128107687" lon="4.413133415091196"><ele>589.0</ele><time>2026-04-03T14:45:31Z</time></trkpt><trkpt lat="44.91180039791751" lon="4.413298479443149"><ele>584.0</ele><time>2026-04-03T14:45:32Z</time></trkpt><trkpt lat="44.91183210637124" lon="4.41339154816429"><ele>579.0</ele><time>2026-04-03T14:45:33Z</time></trkpt><trkpt lat="44.9118856943863" lon="4.413473808225084"><ele>574.0</ele><time>2026-04-03T14:45:34Z</time></trkpt><trkpt lat="44.91195130597613" lon="4.413464888879503"><ele>569.0</ele><time>2026-04-03T14:45:36Z</time></trkpt><trkpt lat="44.91200516298073" lon="4.413379484786276"><ele>564.0</ele><time>2026-04-03T14:45:38Z</time></trkpt><trkpt lat="44.912017961804146" lon="4.413277759798303"><ele>564.0</ele><time>2026-04-03T14:45:39Z</time></trkpt><trkpt lat="44.91201980501035" lon="4.413180362775774"><ele>564.0</ele><time>2026-04-03T14:45:40Z</time></trkpt><trkpt lat="44.912043903404616" lon="4.413076789452486"><ele>564.0</ele><time>2026-04-03T14:45:42Z</time></trkpt><trkpt lat="44.91212263339664" lon="4.413142785932878"><ele>564.0</ele><time>2026-04-03T14:45:43.999Z</time></trkpt><trkpt lat="44.912166938210795" lon="4.413226977354703"><ele>564.0</ele><time>2026-04-03T14:45:44.999Z</time></trkpt><trkpt lat="44.912246419885825" lon="4.413291133172796"><ele>564.0</ele><time>2026-04-03T14:45:45.999Z</time></trkpt><trkpt lat="44.912319260734286" lon="4.413337721434636"><ele>564.0</ele><time>2026-04-03T14:45:46.999Z</time></trkpt><trkpt lat="44.912390827024524" lon="4.413387611888716"><ele>564.0</ele><time>2026-04-03T14:45:47.999Z</time></trkpt><trkpt lat="44.91245167188575" lon="4.413458500663529"><ele>564.0</ele><time>2026-04-03T14:45:48.999Z</time></trkpt><trkpt lat="44.91251222328618" lon="4.413527980818068"><ele>564.0</ele><time>2026-04-03T14:45:49.999Z</time></trkpt><trkpt lat="44.91256544302155" lon="4.413592814172488"><ele>564.0</ele><time>2026-04-03T14:45:50.999Z</time></trkpt><trkpt lat="44.91260911787656" lon="4.413667889607565"><ele>564.0</ele><time>2026-04-03T14:45:51.999Z</time></trkpt><trkpt lat="44.9126349251863" lon="4.413757069198502"><ele>564.0</ele><time>2026-04-03T14:45:52.999Z</time></trkpt><trkpt lat="44.91267263022354" lon="4.413861920527293"><ele>559.8333333333334</ele><time>2026-04-03T14:45:53.999Z</time></trkpt><trkpt lat="44.912700493277896" lon="4.4139762286791795"><ele>555.6666666666666</ele><time>2026-04-03T14:45:54.999Z</time></trkpt><trkpt lat="44.91272396109663" lon="4.4140895291968025"><ele>551.5</ele><time>2026-04-03T14:45:55.999Z</time></trkpt><trkpt lat="44.91275211304542" lon="4.414189321149526"><ele>547.3333333333333</ele><time>2026-04-03T14:45:56.999Z</time></trkpt><trkpt lat="44.91278783064576" lon="4.414289105902315"><ele>543.1666666666666</ele><time>2026-04-03T14:45:57.999Z</time></trkpt><trkpt lat="44.912839785308975" lon="4.414413671830064"><ele>539.0</ele><time>2026-04-03T14:45:58.999Z</time></trkpt><trkpt lat="44.912889079671736" lon="4.414518676542603"><ele>539.0</ele><time>2026-04-03T14:45:59.999Z</time></trkpt><trkpt lat="44.91292106260719" lon="4.414614454650077"><ele>539.0</ele><time>2026-04-03T14:46:00.999Z</time></trkpt><trkpt lat="44.912954696460986" lon="4.414697781740216"><ele>539.0</ele><time>2026-04-03T14:46:01.999Z</time></trkpt><trkpt lat="44.91302450453582" lon="4.4148436904996275"><ele>539.0</ele><time>2026-04-03T14:46:03.999Z</time></trkpt><trkpt lat="44.91304608821509" lon="4.414971814017728"><ele>539.0</ele><time>2026-04-03T14:46:05.999Z</time></trkpt><trkpt lat="44.9131172280744" lon="4.414943133943151"><ele>539.0</ele><time>2026-04-03T14:46:07.999Z</time></trkpt><trkpt lat="44.913180727833584" lon="4.414784550153238"><ele>539.0</ele><time>2026-04-03T14:46:09.999Z</time></trkpt><trkpt lat="44.9132051041076" lon="4.414690835794517"><ele>539.0</ele><time>2026-04-03T14:46:10.999Z</time></trkpt><trkpt lat="44.91322431383687" lon="4.414595286443442"><ele>539.0</ele><time>2026-04-03T14:46:11.999Z</time></trkpt><trkpt lat="44.913226493192155" lon="4.414496124852457"><ele>539.0</ele><time>2026-04-03T14:46:12.999Z</time></trkpt><trkpt lat="44.913251681338686" lon="4.41438726793319"><ele>539.0</ele><time>2026-04-03T14:46:13.999Z</time></trkpt><trkpt lat="44.91328649219339" lon="4.414282339327955"><ele>539.0</ele><time>2026-04-03T14:46:14.999Z</time></trkpt><trkpt lat="44.91332592200933" lon="4.414202041112963"><ele>539.0</ele><time>2026-04-03T14:46:15.999Z</time></trkpt><trkpt lat="44.91329851107241" lon="4.41407778953561"><ele>539.0</ele><time>2026-04-03T14:46:17.999Z</time></trkpt><trkpt lat="44.91336492527943" lon="4.414064792366611"><ele>539.0</ele><time>2026-04-03T14:46:20.999Z</time></trkpt><trkpt lat="44.913464983790604" lon="4.414139411499836"><ele>539.0</ele><time>2026-04-03T14:46:22.999Z</time></trkpt><trkpt lat="44.91348064876352" lon="4.414259680811804"><ele>539.0</ele><time>2026-04-03T14:46:24.999Z</time></trkpt><trkpt lat="44.91347278547327" lon="4.414351286523823"><ele>539.0</ele><time>2026-04-03T14:46:25.999Z</time></trkpt><trkpt lat="44.91345810191212" lon="4.414468130756409"><ele>539.0</ele><time>2026-04-03T14:46:26.999Z</time></trkpt><trkpt lat="44.91345996670912" lon="4.414604431310246"><ele>533.0</ele><time>2026-04-03T14:46:27.999Z</time></trkpt><trkpt lat="44.913463739064255" lon="4.414725081216517"><ele>527.0</ele><time>2026-04-03T14:46:28.999Z</time></trkpt><trkpt lat="44.91347030027297" lon="4.41482764133924"><ele>521.0</ele><time>2026-04-03T14:46:29.999Z</time></trkpt><trkpt lat="44.913453888537155" lon="4.414941781209602"><ele>515.0</ele><time>2026-04-03T14:46:30.999Z</time></trkpt><trkpt lat="44.91348019601819" lon="4.415098107599384"><ele>508.99999999999994</ele><time>2026-04-03T14:46:32.999Z</time></trkpt><trkpt lat="44.913541453007895" lon="4.415146202601757"><ele>503.0</ele><time>2026-04-03T14:46:33.999Z</time></trkpt><trkpt lat="44.913618344709754" lon="4.415216613771531"><ele>503.0</ele><time>2026-04-03T14:46:34.999Z</time></trkpt><trkpt lat="44.91367615458321" lon="4.415292935241244"><ele>502.99999999999994</ele><time>2026-04-03T14:46:35.999Z</time></trkpt><trkpt lat="44.91371102007231" lon="4.415386613403261"><ele>502.99999999999994</ele><time>2026-04-03T14:46:36.999Z</time></trkpt><trkpt lat="44.913741686672246" lon="4.415495671561584"><ele>503.0</ele><time>2026-04-03T14:46:37.999Z</time></trkpt><trkpt lat="44.913763824118675" lon="4.415607720788279"><ele>503.0</ele><time>2026-04-03T14:46:38.999Z</time></trkpt><trkpt lat="44.91389251657081" lon="4.415656581395063"><ele>504.2</ele><time>2026-04-03T14:46:39.999Z</time></trkpt><trkpt lat="44.91391914679819" lon="4.4157673160258915"><ele>505.4</ele><time>2026-04-03T14:46:40.999Z</time></trkpt><trkpt lat="44.91394548765382" lon="4.415907657211223"><ele>506.59999999999997</ele><time>2026-04-03T14:46:43Z</time></trkpt><trkpt lat="44.91401816341863" lon="4.416033818288886"><ele>507.79999999999995</ele><time>2026-04-03T14:46:45Z</time></trkpt><trkpt lat="44.91405901069859" lon="4.416117351932658"><ele>509.0</ele><time>2026-04-03T14:46:46Z</time></trkpt><trkpt lat="44.91405615090106" lon="4.416229201486777"><ele>510.49999999999994</ele><time>2026-04-03T14:46:47Z</time></trkpt><trkpt lat="44.91408366095418" lon="4.416343817136022"><ele>512.0</ele><time>2026-04-03T14:46:48Z</time></trkpt><trkpt lat="44.91408771677278" lon="4.416450016687832"><ele>513.5</ele><time>2026-04-03T14:46:49Z</time></trkpt><trkpt lat="44.91410206368187" lon="4.416564952858591"><ele>515.0</ele><time>2026-04-03T14:46:50Z</time></trkpt><trkpt lat="44.91411976577904" lon="4.416661510211851"><ele>516.5</ele><time>2026-04-03T14:46:51Z</time></trkpt><trkpt lat="44.91416173761482" lon="4.416753816709183"><ele>518.0</ele><time>2026-04-03T14:46:52Z</time></trkpt><trkpt lat="44.91421130689636" lon="4.416844952809774"><ele>513.8333333333333</ele><time>2026-04-03T14:46:53Z</time></trkpt><trkpt lat="44.9142563968219" lon="4.416933425770536"><ele>509.66666666666663</ele><time>2026-04-03T14:46:54Z</time></trkpt><trkpt lat="44.91429242112679" lon="4.417031703183255"><ele>505.5</ele><time>2026-04-03T14:46:55Z</time></trkpt><trkpt lat="44.91431748854146" lon="4.417119530191617"><ele>501.33333333333337</ele><time>2026-04-03T14:46:56Z</time></trkpt><trkpt lat="44.91436484627797" lon="4.417182749270835"><ele>497.1666666666667</ele><time>2026-04-03T14:46:57Z</time></trkpt><trkpt lat="44.91442547000595" lon="4.417333032390154"><ele>493.0</ele><time>2026-04-03T14:46:59Z</time></trkpt><trkpt lat="44.91442243681229" lon="4.417424550125188"><ele>493.0</ele><time>2026-04-03T14:47:00Z</time></trkpt><trkpt lat="44.9144305198298" lon="4.4175357140688005"><ele>492.99999999999994</ele><time>2026-04-03T14:47:02Z</time></trkpt><trkpt lat="44.91433186541422" lon="4.417545981968034"><ele>492.99999999999994</ele><time>2026-04-03T14:47:04Z</time></trkpt><trkpt lat="44.914269642671" lon="4.417604384485178"><ele>493.0</ele><time>2026-04-03T14:47:07Z</time></trkpt><trkpt lat="44.914261613689014" lon="4.417777552626214"><ele>493.0</ele><time>2026-04-03T14:47:12Z</time></trkpt><trkpt lat="44.91418842678427" lon="4.417680614033677"><ele>494.79999999999995</ele><time>2026-04-03T14:47:13Z</time></trkpt><trkpt lat="44.91416115775315" lon="4.417830052112398"><ele>496.59999999999997</ele><time>2026-04-03T14:47:15Z</time></trkpt><trkpt lat="44.91402991560697" lon="4.417829393246789"><ele>498.40000000000003</ele><time>2026-04-03T14:47:17Z</time></trkpt><trkpt lat="44.913938169670324" lon="4.417915506353971"><ele>500.20000000000005</ele><time>2026-04-03T14:47:19Z</time></trkpt><trkpt lat="44.91386584900905" lon="4.417992206847977"><ele>502.0</ele><time>2026-04-03T14:47:21Z</time></trkpt><trkpt lat="44.91384644365576" lon="4.418259046255742"><ele>502.0</ele><time>2026-04-03T14:47:23Z</time></trkpt><trkpt lat="44.91379256904597" lon="4.418384841803115"><ele>502.00000000000006</ele><time>2026-04-03T14:47:25Z</time></trkpt><trkpt lat="44.913709882384076" lon="4.418459416638138"><ele>502.00000000000006</ele><time>2026-04-03T14:47:27Z</time></trkpt><trkpt lat="44.913616793541735" lon="4.418531857998728"><ele>502.0</ele><time>2026-04-03T14:47:29Z</time></trkpt><trkpt lat="44.91351425510371" lon="4.418587757259134"><ele>502.0</ele><time>2026-04-03T14:47:31Z</time></trkpt><trkpt lat="44.913442205564785" lon="4.418641694346385"><ele>503.0</ele><time>2026-04-03T14:47:33Z</time></trkpt><trkpt lat="44.91334586046794" lon="4.418613458246186"><ele>504.00000000000006</ele><time>2026-04-03T14:47:35Z</time></trkpt><trkpt lat="44.91323094107234" lon="4.418569356067224"><ele>505.00000000000006</ele><time>2026-04-03T14:47:37Z</time></trkpt><trkpt lat="44.91316125956486" lon="4.418533873147632"><ele>506.0</ele><time>2026-04-03T14:47:38Z</time></trkpt><trkpt lat="44.913078352915655" lon="4.4185161430398905"><ele>507.0</ele><time>2026-04-03T14:47:39Z</time></trkpt><trkpt lat="44.912965559361666" lon="4.418499541069741"><ele>507.0</ele><time>2026-04-03T14:47:41Z</time></trkpt><trkpt lat="44.912862176240345" lon="4.418514785270895"><ele>507.00000000000006</ele><time>2026-04-03T14:47:43Z</time></trkpt><trkpt lat="44.91274280114202" lon="4.418549142568405"><ele>507.00000000000006</ele><time>2026-04-03T14:47:45Z</time></trkpt><trkpt lat="44.912640643727414" lon="4.4185546595339575"><ele>507.0</ele><time>2026-04-03T14:47:47Z</time></trkpt><trkpt lat="44.912635919657546" lon="4.418701921303804"><ele>507.0</ele><time>2026-04-03T14:47:51Z</time></trkpt><trkpt lat="44.91264167908661" lon="4.418791166752031"><ele>504.1666666666667</ele><time>2026-04-03T14:47:52Z</time></trkpt><trkpt lat="44.91259106832128" lon="4.418844538290933"><ele>501.33333333333337</ele><time>2026-04-03T14:47:59.999Z</time></trkpt><trkpt lat="44.91259231623504" lon="4.418987212890066"><ele>498.5</ele><time>2026-04-03T14:48:01.999Z</time></trkpt><trkpt lat="44.91263258428624" lon="4.419096069028933"><ele>495.6666666666667</ele><time>2026-04-03T14:48:03.999Z</time></trkpt><trkpt lat="44.9126555644042" lon="4.419228403134035"><ele>492.83333333333337</ele><time>2026-04-03T14:48:05.999Z</time></trkpt><trkpt lat="44.912674063522054" lon="4.419369116107218"><ele>490.0</ele><time>2026-04-03T14:48:07.999Z</time></trkpt><trkpt lat="44.91271450721986" lon="4.419524249234106"><ele>490.00000000000006</ele><time>2026-04-03T14:48:09.999Z</time></trkpt><trkpt lat="44.91276825723079" lon="4.419607492834893"><ele>490.0</ele><time>2026-04-03T14:48:10.999Z</time></trkpt><trkpt lat="44.912822241494574" lon="4.419675495502894"><ele>490.0</ele><time>2026-04-03T14:48:11.999Z</time></trkpt><trkpt lat="44.912853384017986" lon="4.41975840384339"><ele>490.0</ele><time>2026-04-03T14:48:12.999Z</time></trkpt><trkpt lat="44.912861157951944" lon="4.41986367543585"><ele>490.00000000000006</ele><time>2026-04-03T14:48:13.999Z</time></trkpt><trkpt lat="44.91285621293703" lon="4.420026030899085"><ele>490.0</ele><time>2026-04-03T14:48:15.999Z</time></trkpt><trkpt lat="44.91278605023857" lon="4.420155827061214"><ele>489.83333333333337</ele><time>2026-04-03T14:48:17.999Z</time></trkpt><trkpt lat="44.91271045875363" lon="4.420190285479037"><ele>489.6666666666667</ele><time>2026-04-03T14:48:18.999Z</time></trkpt><trkpt lat="44.912645240385636" lon="4.4202239833289205"><ele>489.5</ele><time>2026-04-03T14:48:19.999Z</time></trkpt><trkpt lat="44.912566921748216" lon="4.420279831538862"><ele>489.33333333333337</ele><time>2026-04-03T14:48:20.999Z</time></trkpt><trkpt lat="44.912503442203345" lon="4.420314338131975"><ele>489.1666666666667</ele><time>2026-04-03T14:48:21.999Z</time></trkpt><trkpt lat="44.91243864449285" lon="4.420328827990482"><ele>489.0</ele><time>2026-04-03T14:48:22.999Z</time></trkpt><trkpt lat="44.9123586440517" lon="4.420360329201653"><ele>491.0</ele><time>2026-04-03T14:48:23.999Z</time></trkpt><trkpt lat="44.91229918480909" lon="4.420508737712173"><ele>493.0</ele><time>2026-04-03T14:48:25.999Z</time></trkpt><trkpt lat="44.91227272479816" lon="4.420591576950782"><ele>495.0</ele><time>2026-04-03T14:48:27.999Z</time></trkpt><trkpt lat="44.91220512592547" lon="4.42061697546315"><ele>497.0</ele><time>2026-04-03T14:48:28.999Z</time></trkpt><trkpt lat="44.912145859859045" lon="4.4207086288226645"><ele>499.0</ele><time>2026-04-03T14:48:30.999Z</time></trkpt><trkpt lat="44.9122040169331" lon="4.420874402195066"><ele>499.0</ele><time>2026-04-03T14:48:32.999Z</time></trkpt><trkpt lat="44.912223459359744" lon="4.420982580781668"><ele>499.0</ele><time>2026-04-03T14:48:33.999Z</time></trkpt><trkpt lat="44.91223933102681" lon="4.421101638597087"><ele>499.0</ele><time>2026-04-03T14:48:34.999Z</time></trkpt><trkpt lat="44.912221486206285" lon="4.4211885481506705"><ele>499.0</ele><time>2026-04-03T14:48:35.999Z</time></trkpt><trkpt lat="44.912159323420866" lon="4.421339140583732"><ele>499.0</ele><time>2026-04-03T14:48:37.999Z</time></trkpt><trkpt lat="44.91208089783195" lon="4.421436394597997"><ele>495.0</ele><time>2026-04-03T14:48:38.999Z</time></trkpt><trkpt lat="44.912012000677144" lon="4.421511454181265"><ele>491.0</ele><time>2026-04-03T14:48:39.999Z</time></trkpt><trkpt lat="44.911997858723026" lon="4.4216074130536684"><ele>487.0</ele><time>2026-04-03T14:48:40.999Z</time></trkpt><trkpt lat="44.912032021728976" lon="4.421760092478329"><ele>483.0</ele><time>2026-04-03T14:48:42.999Z</time></trkpt><trkpt lat="44.91198160086496" lon="4.421947768078327"><ele>479.0</ele><time>2026-04-03T14:48:44.999Z</time></trkpt><trkpt lat="44.9119379404339" lon="4.422060311559789"><ele>474.99999999999994</ele><time>2026-04-03T14:48:45.999Z</time></trkpt><trkpt lat="44.9119153498969" lon="4.4221742760477945"><ele>471.0</ele><time>2026-04-03T14:48:46.999Z</time></trkpt><trkpt lat="44.9119103502012" lon="4.422270948440701"><ele>467.0</ele><time>2026-04-03T14:48:47.999Z</time></trkpt><trkpt lat="44.91192424084204" lon="4.422357989137842"><ele>463.0</ele><time>2026-04-03T14:48:49Z</time></trkpt><trkpt lat="44.91191009519291" lon="4.422481173491517"><ele>458.99999999999994</ele><time>2026-04-03T14:48:51Z</time></trkpt><trkpt lat="44.911864865540956" lon="4.422625433031774"><ele>455.0</ele><time>2026-04-03T14:48:53Z</time></trkpt><trkpt lat="44.9118103127567" lon="4.422758042821484"><ele>455.0</ele><time>2026-04-03T14:48:56Z</time></trkpt><trkpt lat="44.911761250435084" lon="4.422896147168806"><ele>455.0</ele><time>2026-04-03T14:48:57Z</time></trkpt><trkpt lat="44.91171249820083" lon="4.422996255374867"><ele>455.0</ele><time>2026-04-03T14:48:59Z</time></trkpt><trkpt lat="44.911634486416254" lon="4.423077191986084"><ele>455.0</ele><time>2026-04-03T14:49:01Z</time></trkpt><trkpt lat="44.911626550924666" lon="4.423194184954193"><ele>455.0</ele><time>2026-04-03T14:49:05Z</time></trkpt><trkpt lat="44.91154395719429" lon="4.423248201529167"><ele>457.66666666666663</ele><time>2026-04-03T14:49:06Z</time></trkpt><trkpt lat="44.91149383645461" lon="4.423322719114146"><ele>460.3333333333333</ele><time>2026-04-03T14:49:07Z</time></trkpt><trkpt lat="44.91148162256487" lon="4.423444253307381"><ele>463.0</ele><time>2026-04-03T14:49:08Z</time></trkpt><trkpt lat="44.911587244536236" lon="4.423547811758934"><ele>465.66666666666663</ele><time>2026-04-03T14:49:09Z</time></trkpt><trkpt lat="44.91161054819716" lon="4.423642686361786"><ele>468.3333333333333</ele><time>2026-04-03T14:49:10Z</time></trkpt><trkpt lat="44.91163016549761" lon="4.423739025047913"><ele>471.0</ele><time>2026-04-03T14:49:11Z</time></trkpt><trkpt lat="44.911621062222196" lon="4.42384383702455"><ele>471.0</ele><time>2026-04-03T14:49:12Z</time></trkpt><trkpt lat="44.91157567218706" lon="4.424006109885063"><ele>471.0</ele><time>2026-04-03T14:49:14Z</time></trkpt><trkpt lat="44.91155180122446" lon="4.424098283107706"><ele>471.0</ele><time>2026-04-03T14:49:15Z</time></trkpt><trkpt lat="44.91153916154584" lon="4.4241974722254"><ele>471.0</ele><time>2026-04-03T14:49:16Z</time></trkpt><trkpt lat="44.911519840335245" lon="4.424293481461369"><ele>471.0</ele><time>2026-04-03T14:49:17Z</time></trkpt><trkpt lat="44.91149072860679" lon="4.424376745643601"><ele>471.0</ele><time>2026-04-03T14:49:18Z</time></trkpt><trkpt lat="44.91148408560474" lon="4.424482968929145"><ele>471.0</ele><time>2026-04-03T14:49:19Z</time></trkpt><trkpt lat="44.91146187329605" lon="4.4246156869413715"><ele>471.0</ele><time>2026-04-03T14:49:21Z</time></trkpt><trkpt lat="44.91141094035602" lon="4.424691824737427"><ele>471.0</ele><time>2026-04-03T14:49:48Z</time></trkpt><trkpt lat="44.91138832450365" lon="4.424775414644355"><ele>471.0</ele><time>2026-04-03T14:49:49Z</time></trkpt><trkpt lat="44.91134311962848" lon="4.4248815677738875"><ele>471.0</ele><time>2026-04-03T14:49:50Z</time></trkpt><trkpt lat="44.911286305819615" lon="4.425002541863248"><ele>471.0</ele><time>2026-04-03T14:49:51Z</time></trkpt><trkpt lat="44.9111772972645" lon="4.425056949716831"><ele>468.20000000000005</ele><time>2026-04-03T14:49:52Z</time></trkpt><trkpt lat="44.91110884091309" lon="4.425138225117418"><ele>465.40000000000003</ele><time>2026-04-03T14:49:53Z</time></trkpt><trkpt lat="44.911039562548154" lon="4.425214973168718"><ele>462.6</ele><time>2026-04-03T14:49:54Z</time></trkpt><trkpt lat="44.9109298745647" lon="4.425307216736089"><ele>459.8</ele><time>2026-04-03T14:49:56Z</time></trkpt><trkpt lat="44.91086628003532" lon="4.425366158913543"><ele>457.0</ele><time>2026-04-03T14:49:57Z</time></trkpt><trkpt lat="44.9108131980742" lon="4.425442905770605"><ele>457.6666666666667</ele><time>2026-04-03T14:49:58Z</time></trkpt><trkpt lat="44.91071215585496" lon="4.425515762064732"><ele>458.33333333333337</ele><time>2026-04-03T14:50:00Z</time></trkpt><trkpt lat="44.91064880668513" lon="4.425541807408572"><ele>459.0</ele><time>2026-04-03T14:50:00.999Z</time></trkpt><trkpt lat="44.910600908819646" lon="4.42560713609121"><ele>459.66666666666663</ele><time>2026-04-03T14:50:01.999Z</time></trkpt><trkpt lat="44.91053324799761" lon="4.42565113527843"><ele>460.3333333333333</ele><time>2026-04-03T14:50:02.999Z</time></trkpt><trkpt lat="44.91043949055532" lon="4.425700192019854"><ele>461.0</ele><time>2026-04-03T14:50:04.999Z</time></trkpt><trkpt lat="44.91037161588659" lon="4.425735706188569"><ele>461.0</ele><time>2026-04-03T14:50:06.999Z</time></trkpt><trkpt lat="44.91030230462054" lon="4.425771974069181"><ele>461.0</ele><time>2026-04-03T14:50:08.999Z</time></trkpt><trkpt lat="44.910201570984135" lon="4.425481140381025"><ele>461.0</ele><time>2026-04-03T14:50:09.999Z</time></trkpt><trkpt lat="44.91014332298391" lon="4.425342691580969"><ele>461.0</ele><time>2026-04-03T14:50:11.999Z</time></trkpt><trkpt lat="44.90999503922552" lon="4.425334305874355"><ele>460.0</ele><time>2026-04-03T14:50:12.999Z</time></trkpt><trkpt lat="44.90994764120384" lon="4.425183095286562"><ele>459.0</ele><time>2026-04-03T14:50:14.999Z</time></trkpt><trkpt lat="44.909921006540486" lon="4.425098929790291"><ele>458.0</ele><time>2026-04-03T14:50:15.999Z</time></trkpt><trkpt lat="44.90989254344407" lon="4.425009690540642"><ele>457.0</ele><time>2026-04-03T14:50:16.999Z</time></trkpt><trkpt lat="44.909846273767904" lon="4.424865266038881"><ele>456.0</ele><time>2026-04-03T14:50:18.999Z</time></trkpt><trkpt lat="44.909801473882276" lon="4.424724996571752"><ele>460.20000000000005</ele><time>2026-04-03T14:50:20.999Z</time></trkpt><trkpt lat="44.90975584460332" lon="4.424580514637938"><ele>464.40000000000003</ele><time>2026-04-03T14:50:22.999Z</time></trkpt><trkpt lat="44.909703056853154" lon="4.424430127644176"><ele>468.6</ele><time>2026-04-03T14:50:24.999Z</time></trkpt><trkpt lat="44.909648134720385" lon="4.424300618294995"><ele>472.8</ele><time>2026-04-03T14:50:26.999Z</time></trkpt><trkpt lat="44.90959135535183" lon="4.424178582903895"><ele>477.0</ele><time>2026-04-03T14:50:28.999Z</time></trkpt><trkpt lat="44.90953460075518" lon="4.4240646012910165"><ele>477.0</ele><time>2026-04-03T14:50:30.999Z</time></trkpt><trkpt lat="44.90961323604658" lon="4.423856242621665"><ele>477.00000000000006</ele><time>2026-04-03T14:50:32.999Z</time></trkpt><trkpt lat="44.9095518807144" lon="4.423777094931147"><ele>477.00000000000006</ele><time>2026-04-03T14:50:34.999Z</time></trkpt><trkpt lat="44.90948498994604" lon="4.423709332852659"><ele>477.0</ele><time>2026-04-03T14:50:37.999Z</time></trkpt><trkpt lat="44.90942081426053" lon="4.423747526877288"><ele>477.0</ele><time>2026-04-03T14:51:05Z</time></trkpt><trkpt lat="44.90935482157043" lon="4.423691614789922"><ele>480.1666666666667</ele><time>2026-04-03T14:51:07Z</time></trkpt><trkpt lat="44.90929675334571" lon="4.4236107737177"><ele>483.33333333333337</ele><time>2026-04-03T14:51:10Z</time></trkpt><trkpt lat="44.909243470829" lon="4.423536813677096"><ele>486.5</ele><time>2026-04-03T14:51:15Z</time></trkpt><trkpt lat="44.9091637216839" lon="4.423463882425032"><ele>489.6666666666667</ele><time>2026-04-03T14:51:25Z</time></trkpt><trkpt lat="44.909111857319935" lon="4.423368476117325"><ele>492.83333333333337</ele><time>2026-04-03T14:51:26Z</time></trkpt><trkpt lat="44.909076250973484" lon="4.423232309629563"><ele>496.0</ele><time>2026-04-03T14:51:27Z</time></trkpt><trkpt lat="44.909050021008625" lon="4.423129836388819"><ele>492.33333333333337</ele><time>2026-04-03T14:51:28Z</time></trkpt><trkpt lat="44.90902506016841" lon="4.423029648381355"><ele>488.6666666666667</ele><time>2026-04-03T14:51:29Z</time></trkpt><trkpt lat="44.90900020157562" lon="4.422926410441785"><ele>485.0</ele><time>2026-04-03T14:51:30Z</time></trkpt><trkpt lat="44.90896945986329" lon="4.4228123203291165"><ele>481.33333333333337</ele><time>2026-04-03T14:51:31Z</time></trkpt><trkpt lat="44.90893519745933" lon="4.422704847032439"><ele>477.6666666666667</ele><time>2026-04-03T14:51:32Z</time></trkpt><trkpt lat="44.908878897174546" lon="4.422586506242572"><ele>474.0</ele><time>2026-04-03T14:51:33Z</time></trkpt><trkpt lat="44.908795258460714" lon="4.422475381103032"><ele>474.0</ele><time>2026-04-03T14:51:34Z</time></trkpt><trkpt lat="44.90869790954912" lon="4.422390243641496"><ele>474.0</ele><time>2026-04-03T14:51:35Z</time></trkpt><trkpt lat="44.908603865356305" lon="4.422323274677035"><ele>474.0</ele><time>2026-04-03T14:51:36Z</time></trkpt><trkpt lat="44.90851717623781" lon="4.422258214614279"><ele>474.0</ele><time>2026-04-03T14:51:37Z</time></trkpt><trkpt lat="44.90843508445711" lon="4.422190687899647"><ele>474.0</ele><time>2026-04-03T14:51:38Z</time></trkpt><trkpt lat="44.90834912312471" lon="4.422123419707643"><ele>471.2</ele><time>2026-04-03T14:51:39Z</time></trkpt><trkpt lat="44.90825750455903" lon="4.4220731835307365"><ele>468.4</ele><time>2026-04-03T14:51:40Z</time></trkpt><trkpt lat="44.90816901834806" lon="4.422009108402517"><ele>465.6</ele><time>2026-04-03T14:51:41Z</time></trkpt><trkpt lat="44.908085172905366" lon="4.421946201590942"><ele>462.8</ele><time>2026-04-03T14:51:42Z</time></trkpt><trkpt lat="44.90801205414648" lon="4.421849288330343"><ele>460.0</ele><time>2026-04-03T14:51:43Z</time></trkpt><trkpt lat="44.90792936434923" lon="4.421792579522306"><ele>460.00000000000006</ele><time>2026-04-03T14:51:44Z</time></trkpt><trkpt lat="44.907849428547294" lon="4.421731367385681"><ele>460.0</ele><time>2026-04-03T14:51:45Z</time></trkpt><trkpt lat="44.90776724120173" lon="4.421671711272452"><ele>460.0</ele><time>2026-04-03T14:51:46Z</time></trkpt><trkpt lat="44.90769319414444" lon="4.421617773518626"><ele>460.0</ele><time>2026-04-03T14:51:47Z</time></trkpt><trkpt lat="44.90761318143299" lon="4.421562352057937"><ele>460.00000000000006</ele><time>2026-04-03T14:51:48Z</time></trkpt><trkpt lat="44.90754171469358" lon="4.4215123426547915"><ele>460.0</ele><time>2026-04-03T14:51:49Z</time></trkpt><trkpt lat="44.907446761498214" lon="4.4214564693985405"><ele>458.50000000000006</ele><time>2026-04-03T14:51:50Z</time></trkpt><trkpt lat="44.90736422956614" lon="4.421414618294446"><ele>457.0</ele><time>2026-04-03T14:51:51Z</time></trkpt><trkpt lat="44.90729080548522" lon="4.421382137124736"><ele>455.5</ele><time>2026-04-03T14:51:52Z</time></trkpt><trkpt lat="44.907218069539404" lon="4.421358348729054"><ele>454.0</ele><time>2026-04-03T14:51:53Z</time></trkpt><trkpt lat="44.90709664387518" lon="4.421372087975141"><ele>452.50000000000006</ele><time>2026-04-03T14:51:55Z</time></trkpt><trkpt lat="44.907032599802946" lon="4.421381610577116"><ele>451.0</ele><time>2026-04-03T14:51:56Z</time></trkpt><trkpt lat="44.90695206131976" lon="4.421358071158944"><ele>451.00000000000006</ele><time>2026-04-03T14:51:57Z</time></trkpt><trkpt lat="44.90687378856965" lon="4.421332967685652"><ele>451.0</ele><time>2026-04-03T14:51:58Z</time></trkpt><trkpt lat="44.90680237119395" lon="4.421269177512617"><ele>451.0</ele><time>2026-04-03T14:51:59Z</time></trkpt><trkpt lat="44.906717542203985" lon="4.421263340850142"><ele>451.0</ele><time>2026-04-03T14:52:00Z</time></trkpt><trkpt lat="44.90663428332335" lon="4.421225332096581"><ele>451.00000000000006</ele><time>2026-04-03T14:52:01Z</time></trkpt><trkpt lat="44.90654954826095" lon="4.421228692224731"><ele>451.0</ele><time>2026-04-03T14:52:02Z</time></trkpt><trkpt lat="44.906460216691876" lon="4.4212122483790655"><ele>451.6666666666667</ele><time>2026-04-03T14:52:03Z</time></trkpt><trkpt lat="44.90637383848977" lon="4.42116607853174"><ele>452.33333333333337</ele><time>2026-04-03T14:52:04Z</time></trkpt><trkpt lat="44.90628942285021" lon="4.421158774967954"><ele>453.0</ele><time>2026-04-03T14:52:05Z</time></trkpt><trkpt lat="44.90620491468155" lon="4.421175329865121"><ele>453.66666666666663</ele><time>2026-04-03T14:52:06Z</time></trkpt><trkpt lat="44.9061130925818" lon="4.4211986722943495"><ele>454.3333333333333</ele><time>2026-04-03T14:52:07Z</time></trkpt><trkpt lat="44.90602491585106" lon="4.42122401497211"><ele>455.0</ele><time>2026-04-03T14:52:07.999Z</time></trkpt><trkpt lat="44.905942973717394" lon="4.421241818415812"><ele>455.16666666666663</ele><time>2026-04-03T14:52:08.999Z</time></trkpt><trkpt lat="44.905869002077004" lon="4.421231662572302"><ele>455.3333333333333</ele><time>2026-04-03T14:52:09.999Z</time></trkpt><trkpt lat="44.90577306070155" lon="4.421229917562004"><ele>455.5</ele><time>2026-04-03T14:52:11.999Z</time></trkpt><trkpt lat="44.905709354966675" lon="4.421198054416456"><ele>455.66666666666663</ele><time>2026-04-03T14:52:15.999Z</time></trkpt><trkpt lat="44.905623969804346" lon="4.421135265098398"><ele>455.8333333333333</ele><time>2026-04-03T14:52:18.999Z</time></trkpt><trkpt lat="44.905558330218255" lon="4.421123527735827"><ele>456.0</ele><time>2026-04-03T14:52:20.999Z</time></trkpt><trkpt lat="44.90548714803789" lon="4.421055105313621"><ele>456.0</ele><time>2026-04-03T14:52:23.999Z</time></trkpt><trkpt lat="44.90539385329408" lon="4.421047306246292"><ele>456.0</ele><time>2026-04-03T14:52:25.999Z</time></trkpt><trkpt lat="44.90537152610119" lon="4.421137187069949"><ele>456.0</ele><time>2026-04-03T14:52:26.999Z</time></trkpt><trkpt lat="44.90531428842967" lon="4.421257076008499"><ele>456.0</ele><time>2026-04-03T14:52:28.999Z</time></trkpt><trkpt lat="44.90524765004127" lon="4.421348356643705"><ele>456.0</ele><time>2026-04-03T14:52:30.999Z</time></trkpt><trkpt lat="44.90519595049067" lon="4.421435310791544"><ele>456.0</ele><time>2026-04-03T14:52:32.999Z</time></trkpt><trkpt lat="44.90513953688469" lon="4.42150026578077"><ele>454.6</ele><time>2026-04-03T14:52:35.999Z</time></trkpt><trkpt lat="44.90509202769049" lon="4.421580983795594"><ele>453.20000000000005</ele><time>2026-04-03T14:52:45.999Z</time></trkpt><trkpt lat="44.90503707103476" lon="4.421689313055939"><ele>451.79999999999995</ele><time>2026-04-03T14:52:47.999Z</time></trkpt><trkpt lat="44.90494777928538" lon="4.421784806532012"><ele>450.4</ele><time>2026-04-03T14:52:49.999Z</time></trkpt><trkpt lat="44.90485753921721" lon="4.421858106083516"><ele>449.0</ele><time>2026-04-03T14:52:51.999Z</time></trkpt><trkpt lat="44.904775844891766" lon="4.421850770591316"><ele>449.0</ele><time>2026-04-03T14:52:53.999Z</time></trkpt><trkpt lat="44.90471114959165" lon="4.421764958642216"><ele>449.0</ele><time>2026-04-03T14:52:55.999Z</time></trkpt><trkpt lat="44.90466672068978" lon="4.421665130096286"><ele>449.0</ele><time>2026-04-03T14:52:57.999Z</time></trkpt><trkpt lat="44.904644255579555" lon="4.42153932719723"><ele>449.0</ele><time>2026-04-03T14:52:59.999Z</time></trkpt><trkpt lat="44.90462195712779" lon="4.42140383071874"><ele>449.0</ele><time>2026-04-03T14:53:02Z</time></trkpt><trkpt lat="44.90459595374558" lon="4.4212528174701005"><ele>449.49999999999994</ele><time>2026-04-03T14:53:04Z</time></trkpt><trkpt lat="44.90458394945813" lon="4.421095874979061"><ele>450.0</ele><time>2026-04-03T14:53:06Z</time></trkpt><trkpt lat="44.90456171901101" lon="4.421004688028782"><ele>450.5</ele><time>2026-04-03T14:53:07Z</time></trkpt><trkpt lat="44.90454504472162" lon="4.420913540366505"><ele>451.0</ele><time>2026-04-03T14:53:08Z</time></trkpt><trkpt lat="44.904497861973" lon="4.420752658879003"><ele>451.49999999999994</ele><time>2026-04-03T14:53:10Z</time></trkpt><trkpt lat="44.90445959901431" lon="4.420679161165937"><ele>452.0</ele><time>2026-04-03T14:53:11Z</time></trkpt><trkpt lat="44.90441621867027" lon="4.420606223352591"><ele>452.0</ele><time>2026-04-03T14:53:12Z</time></trkpt><trkpt lat="44.9043741237499" lon="4.420538006220104"><ele>452.0</ele><time>2026-04-03T14:53:13Z</time></trkpt><trkpt lat="44.904328385726245" lon="4.420458004214364"><ele>452.0</ele><time>2026-04-03T14:53:14Z</time></trkpt><trkpt lat="44.90428702830263" lon="4.420374632899018"><ele>452.0</ele><time>2026-04-03T14:53:15Z</time></trkpt><trkpt lat="44.90423959687017" lon="4.420292276052375"><ele>452.0</ele><time>2026-04-03T14:53:16Z</time></trkpt><trkpt lat="44.90420619838271" lon="4.420205865626692"><ele>452.0</ele><time>2026-04-03T14:53:17Z</time></trkpt><trkpt lat="44.90414840474089" lon="4.420125876304281"><ele>452.0</ele><time>2026-04-03T14:53:18Z</time></trkpt><trkpt lat="44.904103273675304" lon="4.420045397513239"><ele>451.8571428571429</ele><time>2026-04-03T14:53:19Z</time></trkpt><trkpt lat="44.90406004902014" lon="4.419972019704956"><ele>451.71428571428567</ele><time>2026-04-03T14:53:20Z</time></trkpt><trkpt lat="44.90401398971397" lon="4.419910110987642"><ele>451.57142857142856</ele><time>2026-04-03T14:53:21Z</time></trkpt><trkpt lat="44.903970418587676" lon="4.419839375258534"><ele>451.42857142857144</ele><time>2026-04-03T14:53:22Z</time></trkpt><trkpt lat="44.90392351291203" lon="4.419766653506379"><ele>451.28571428571433</ele><time>2026-04-03T14:53:23Z</time></trkpt><trkpt lat="44.90387571269945" lon="4.419689425259561"><ele>451.1428571428571</ele><time>2026-04-03T14:53:24Z</time></trkpt><trkpt lat="44.90383315092498" lon="4.419613857768087"><ele>451.0</ele><time>2026-04-03T14:53:25Z</time></trkpt><trkpt lat="44.90378981413749" lon="4.419534899399449"><ele>451.00000000000006</ele><time>2026-04-03T14:53:26Z</time></trkpt><trkpt lat="44.903744239135435" lon="4.419465935164736"><ele>451.0</ele><time>2026-04-03T14:53:27Z</time></trkpt><trkpt lat="44.90366747837561" lon="4.419348671013925"><ele>451.0</ele><time>2026-04-03T14:53:29Z</time></trkpt><trkpt lat="44.90358209842961" lon="4.419208972659667"><ele>451.0</ele><time>2026-04-03T14:53:31Z</time></trkpt><trkpt lat="44.90353579947425" lon="4.419141473080075"><ele>451.00000000000006</ele><time>2026-04-03T14:53:32Z</time></trkpt><trkpt lat="44.90349265323243" lon="4.419074877438517"><ele>451.0</ele><time>2026-04-03T14:53:33Z</time></trkpt><trkpt lat="44.903450273888765" lon="4.419007123411294"><ele>451.1666666666667</ele><time>2026-04-03T14:53:34Z</time></trkpt><trkpt lat="44.90336484434365" lon="4.418881166163491"><ele>451.33333333333337</ele><time>2026-04-03T14:53:36Z</time></trkpt><trkpt lat="44.90332566182478" lon="4.418801067781025"><ele>451.5</ele><time>2026-04-03T14:53:37Z</time></trkpt><trkpt lat="44.903270989879715" lon="4.418738249814287"><ele>451.66666666666663</ele><time>2026-04-03T14:53:38Z</time></trkpt><trkpt lat="44.90320938123578" lon="4.418675738447177"><ele>451.8333333333333</ele><time>2026-04-03T14:53:39Z</time></trkpt><trkpt lat="44.903131177007346" lon="4.418621611048329"><ele>452.0</ele><time>2026-04-03T14:53:40Z</time></trkpt><trkpt lat="44.90306168967413" lon="4.4185737032904955"><ele>451.99999999999994</ele><time>2026-04-03T14:53:41Z</time></trkpt><trkpt lat="44.90298996472967" lon="4.418523709958646"><ele>452.0</ele><time>2026-04-03T14:53:42Z</time></trkpt><trkpt lat="44.90293069714123" lon="4.418443120666553"><ele>452.0</ele><time>2026-04-03T14:53:43Z</time></trkpt><trkpt lat="44.902872949495034" lon="4.418365434899089"><ele>452.0</ele><time>2026-04-03T14:53:44Z</time></trkpt><trkpt lat="44.902816895892215" lon="4.418279917595607"><ele>451.99999999999994</ele><time>2026-04-03T14:53:45Z</time></trkpt><trkpt lat="44.90276789920924" lon="4.418187978128051"><ele>452.0</ele><time>2026-04-03T14:53:46Z</time></trkpt><trkpt lat="44.90272177328748" lon="4.4180801000300045"><ele>452.49999999999994</ele><time>2026-04-03T14:53:47Z</time></trkpt><trkpt lat="44.90267744858701" lon="4.4179797250974175"><ele>453.0</ele><time>2026-04-03T14:53:48Z</time></trkpt><trkpt lat="44.902634990260395" lon="4.417884657689128"><ele>453.5</ele><time>2026-04-03T14:53:49Z</time></trkpt><trkpt lat="44.90258351618053" lon="4.417790016552273"><ele>454.0</ele><time>2026-04-03T14:53:50Z</time></trkpt><trkpt lat="44.90252149546774" lon="4.417698037131898"><ele>454.49999999999994</ele><time>2026-04-03T14:53:51Z</time></trkpt><trkpt lat="44.90245096262038" lon="4.417618488426158"><ele>455.0</ele><time>2026-04-03T14:53:52Z</time></trkpt><trkpt lat="44.9023855545155" lon="4.417522769479738"><ele>455.0</ele><time>2026-04-03T14:53:53Z</time></trkpt><trkpt lat="44.90228882192971" lon="4.417483887804924"><ele>455.0</ele><time>2026-04-03T14:53:54Z</time></trkpt><trkpt lat="44.90219927536926" lon="4.417429016783047"><ele>455.0</ele><time>2026-04-03T14:53:55Z</time></trkpt><trkpt lat="44.90210452801149" lon="4.417381848887095"><ele>455.0</ele><time>2026-04-03T14:53:56Z</time></trkpt><trkpt lat="44.9020071296668" lon="4.417318052012195"><ele>455.0</ele><time>2026-04-03T14:53:57Z</time></trkpt><trkpt lat="44.90191550032268" lon="4.417259586886708"><ele>455.0</ele><time>2026-04-03T14:53:58Z</time></trkpt><trkpt lat="44.90182162565005" lon="4.417187034550323"><ele>455.0</ele><time>2026-04-03T14:53:59Z</time></trkpt><trkpt lat="44.9017227465828" lon="4.417098218820078"><ele>455.0</ele><time>2026-04-03T14:54:00Z</time></trkpt><trkpt lat="44.901625199146046" lon="4.416996390902419"><ele>455.0</ele><time>2026-04-03T14:54:01Z</time></trkpt><trkpt lat="44.90154670611489" lon="4.416863569058152"><ele>454.5</ele><time>2026-04-03T14:54:02Z</time></trkpt><trkpt lat="44.90145472730078" lon="4.416755588889309"><ele>454.0</ele><time>2026-04-03T14:54:03Z</time></trkpt><trkpt lat="44.901357815031425" lon="4.416651079974693"><ele>453.5</ele><time>2026-04-03T14:54:04Z</time></trkpt><trkpt lat="44.90126467141391" lon="4.416541996738251"><ele>453.0</ele><time>2026-04-03T14:54:05Z</time></trkpt><trkpt lat="44.90117415252848" lon="4.416435069291258"><ele>453.0</ele><time>2026-04-03T14:54:06Z</time></trkpt><trkpt lat="44.90106450642061" lon="4.416362981032916"><ele>453.0</ele><time>2026-04-03T14:54:07Z</time></trkpt><trkpt lat="44.900974422085774" lon="4.4162570225852"><ele>453.0</ele><time>2026-04-03T14:54:08Z</time></trkpt><trkpt lat="44.900884108255106" lon="4.416161794798496"><ele>453.0</ele><time>2026-04-03T14:54:09Z</time></trkpt><trkpt lat="44.900786516999126" lon="4.416059033433302"><ele>454.0</ele><time>2026-04-03T14:54:10Z</time></trkpt><trkpt lat="44.90070566307535" lon="4.415903453450227"><ele>455.0</ele><time>2026-04-03T14:54:10.999Z</time></trkpt><trkpt lat="44.90061646337114" lon="4.415794369443772"><ele>456.0</ele><time>2026-04-03T14:54:11.999Z</time></trkpt><trkpt lat="44.90052628838158" lon="4.415684756808283"><ele>457.0</ele><time>2026-04-03T14:54:12.999Z</time></trkpt><trkpt lat="44.90043320884077" lon="4.415572665665083"><ele>457.0</ele><time>2026-04-03T14:54:13.999Z</time></trkpt><trkpt lat="44.90033393941732" lon="4.415467223568858"><ele>457.0</ele><time>2026-04-03T14:54:14.999Z</time></trkpt><trkpt lat="44.900232272429456" lon="4.415314212316153"><ele>457.0</ele><time>2026-04-03T14:54:15.999Z</time></trkpt><trkpt lat="44.90010054233506" lon="4.415125168293622"><ele>457.6666666666667</ele><time>2026-04-03T14:54:16.999Z</time></trkpt><trkpt lat="44.89995685167586" lon="4.414925971916604"><ele>458.33333333333337</ele><time>2026-04-03T14:54:17.999Z</time></trkpt><trkpt lat="44.89983056295459" lon="4.414752293643802"><ele>459.0</ele><time>2026-04-03T14:54:18.999Z</time></trkpt><trkpt lat="44.899719927833324" lon="4.414590280560014"><ele>459.0</ele><time>2026-04-03T14:54:19.999Z</time></trkpt><trkpt lat="44.89962564312686" lon="4.414442256642172"><ele>459.0</ele><time>2026-04-03T14:54:20.999Z</time></trkpt><trkpt lat="44.89955282468393" lon="4.414330170233442"><ele>459.0</ele><time>2026-04-03T14:54:21.999Z</time></trkpt><trkpt lat="44.899478139047126" lon="4.414232501377033"><ele>459.0</ele><time>2026-04-03T14:54:22.999Z</time></trkpt><trkpt lat="44.89940595269994" lon="4.414159792307915"><ele>459.0</ele><time>2026-04-03T14:54:23.999Z</time></trkpt><trkpt lat="44.89933427969935" lon="4.414086730555536"><ele>459.0</ele><time>2026-04-03T14:54:24.999Z</time></trkpt><trkpt lat="44.899258357735285" lon="4.414038861024834"><ele>459.0</ele><time>2026-04-03T14:54:25.999Z</time></trkpt><trkpt lat="44.899188119914314" lon="4.4140014848574"><ele>459.0</ele><time>2026-04-03T14:54:26.999Z</time></trkpt><trkpt lat="44.89911012288704" lon="4.413958871764342"><ele>459.0</ele><time>2026-04-03T14:54:27.999Z</time></trkpt><trkpt lat="44.899026282847295" lon="4.413923305398529"><ele>459.0</ele><time>2026-04-03T14:54:28.999Z</time></trkpt><trkpt lat="44.89894308783307" lon="4.413912356071522"><ele>459.0</ele><time>2026-04-03T14:54:29.999Z</time></trkpt><trkpt lat="44.89884702186087" lon="4.413889356371669"><ele>459.3333333333333</ele><time>2026-04-03T14:54:30.999Z</time></trkpt><trkpt lat="44.89876600267489" lon="4.4138668689762985"><ele>459.66666666666663</ele><time>2026-04-03T14:54:31.999Z</time></trkpt><trkpt lat="44.89869597798303" lon="4.413846508440681"><ele>460.0</ele><time>2026-04-03T14:54:32.999Z</time></trkpt><trkpt lat="44.89862003568747" lon="4.413824882148221"><ele>460.3333333333333</ele><time>2026-04-03T14:54:33.999Z</time></trkpt><trkpt lat="44.898541172168535" lon="4.413812845623646"><ele>460.66666666666663</ele><time>2026-04-03T14:54:34.999Z</time></trkpt><trkpt lat="44.898467827935455" lon="4.413804585271961"><ele>461.0</ele><time>2026-04-03T14:54:35.999Z</time></trkpt><trkpt lat="44.89839078571796" lon="4.413795908443935"><ele>461.16666666666663</ele><time>2026-04-03T14:54:36.999Z</time></trkpt><trkpt lat="44.89831722065841" lon="4.413789213152355"><ele>461.3333333333333</ele><time>2026-04-03T14:54:37.999Z</time></trkpt><trkpt lat="44.89823704623675" lon="4.413783238421446"><ele>461.5</ele><time>2026-04-03T14:54:38.999Z</time></trkpt><trkpt lat="44.89815696201141" lon="4.413777270422945"><ele>461.66666666666663</ele><time>2026-04-03T14:54:39.999Z</time></trkpt><trkpt lat="44.89806154496702" lon="4.413775388911979"><ele>461.8333333333333</ele><time>2026-04-03T14:54:40.999Z</time></trkpt><trkpt lat="44.89797771343341" lon="4.413772901617686"><ele>462.0</ele><time>2026-04-03T14:54:41.999Z</time></trkpt><trkpt lat="44.8978946674661" lon="4.413769778890669"><ele>462.0</ele><time>2026-04-03T14:54:42.999Z</time></trkpt><trkpt lat="44.89782895525573" lon="4.4137697788917"><ele>462.0</ele><time>2026-04-03T14:54:43.999Z</time></trkpt><trkpt lat="44.89771247725979" lon="4.413758718655533"><ele>462.0</ele><time>2026-04-03T14:54:45.999Z</time></trkpt><trkpt lat="44.897623814221504" lon="4.413754299341927"><ele>462.0</ele><time>2026-04-03T14:54:47.999Z</time></trkpt><trkpt lat="44.89761625366988" lon="4.413870821839006"><ele>462.0</ele><time>2026-04-03T14:55:03.999Z</time></trkpt><trkpt lat="44.8975409935777" lon="4.41384255821564"><ele>462.0</ele><time>2026-04-03T14:56:11Z</time></trkpt><trkpt lat="44.89760139683864" lon="4.413726788300843"><ele>462.0</ele><time>2026-04-03T14:56:30.999Z</time></trkpt></trkseg></trk></gpx>